﻿<?xml version="1.0" encoding="utf-8"?><gpx creator="Garmin Desktop App" version="1.1" xsi:schemaLocation="http://www.topografix.com/GPX/1/1 http://www.topografix.com/GPX/1/1/gpx.xsd http://www.garmin.com/xmlschemas/WaypointExtension/v1 http://www8.garmin.com/xmlschemas/WaypointExtensionv1.xsd http://www.garmin.com/xmlschemas/TrackPointExtension/v1 http://www.garmin.com/xmlschemas/TrackPointExtensionv1.xsd http://www.garmin.com/xmlschemas/GpxExtensions/v3 http://www8.garmin.com/xmlschemas/GpxExtensionsv3.xsd http://www.garmin.com/xmlschemas/ActivityExtension/v1 http://www8.garmin.com/xmlschemas/ActivityExtensionv1.xsd http://www.garmin.com/xmlschemas/AdventuresExtensions/v1 http://www8.garmin.com/xmlschemas/AdventuresExtensionv1.xsd http://www.garmin.com/xmlschemas/PressureExtension/v1 http://www.garmin.com/xmlschemas/PressureExtensionv1.xsd http://www.garmin.com/xmlschemas/TripExtensions/v1 http://www.garmin.com/xmlschemas/TripExtensionsv1.xsd http://www.garmin.com/xmlschemas/TripMetaDataExtensions/v1 http://www.garmin.com/xmlschemas/TripMetaDataExtensionsv1.xsd http://www.garmin.com/xmlschemas/ViaPointTransportationModeExtensions/v1 http://www.garmin.com/xmlschemas/ViaPointTransportationModeExtensionsv1.xsd http://www.garmin.com/xmlschemas/CreationTimeExtension/v1 http://www.garmin.com/xmlschemas/CreationTimeExtensionsv1.xsd http://www.garmin.com/xmlschemas/AccelerationExtension/v1 http://www.garmin.com/xmlschemas/AccelerationExtensionv1.xsd http://www.garmin.com/xmlschemas/PowerExtension/v1 http://www.garmin.com/xmlschemas/PowerExtensionv1.xsd http://www.garmin.com/xmlschemas/VideoExtension/v1 http://www.garmin.com/xmlschemas/VideoExtensionv1.xsd" xmlns="http://www.topografix.com/GPX/1/1" xmlns:xsi="http://www.w3.org/2001/XMLSchema-instance" xmlns:wptx1="http://www.garmin.com/xmlschemas/WaypointExtension/v1" xmlns:gpxtrx="http://www.garmin.com/xmlschemas/GpxExtensions/v3" xmlns:gpxtpx="http://www.garmin.com/xmlschemas/TrackPointExtension/v1" xmlns:gpxx="http://www.garmin.com/xmlschemas/GpxExtensions/v3" xmlns:trp="http://www.garmin.com/xmlschemas/TripExtensions/v1" xmlns:adv="http://www.garmin.com/xmlschemas/AdventuresExtensions/v1" xmlns:prs="http://www.garmin.com/xmlschemas/PressureExtension/v1" xmlns:tmd="http://www.garmin.com/xmlschemas/TripMetaDataExtensions/v1" xmlns:vptm="http://www.garmin.com/xmlschemas/ViaPointTransportationModeExtensions/v1" xmlns:ctx="http://www.garmin.com/xmlschemas/CreationTimeExtension/v1" xmlns:gpxacc="http://www.garmin.com/xmlschemas/AccelerationExtension/v1" xmlns:gpxpx="http://www.garmin.com/xmlschemas/PowerExtension/v1" xmlns:vidx1="http://www.garmin.com/xmlschemas/VideoExtension/v1">

  <metadata>
    <link href="http://www.garmin.com">
      <text>Garmin International</text>
    </link>
    <time>2023-11-27T07:45:59Z</time>
    <bounds maxlat="46.021733963862062" maxlon="9.486715374514461" minlat="45.970571245998144" minlon="9.453273843973875" />
  </metadata>

  <trk>
    <name>rifugio-tavecchia2023-11-26</name>
    <extensions>
      <gpxx:TrackExtension>
        <gpxx:DisplayColor>Yellow</gpxx:DisplayColor>
      </gpxx:TrackExtension>
    </extensions>
    <trkseg>
      <trkpt lat="45.970571245998144" lon="9.453534940257669">
        <ele>441.80000000000001</ele>
        <time>2023-11-26T07:03:40Z</time>
      </trkpt>
      <trkpt lat="45.970653807744384" lon="9.453385658562183">
        <ele>442.42000000000002</ele>
        <time>2023-11-26T07:03:55Z</time>
      </trkpt>
      <trkpt lat="45.970677193254232" lon="9.45335615426302">
        <ele>442.74000000000001</ele>
        <time>2023-11-26T07:03:58Z</time>
      </trkpt>
      <trkpt lat="45.970760425552726" lon="9.45331022143364">
        <ele>443.76999999999998</ele>
        <time>2023-11-26T07:04:06Z</time>
      </trkpt>
      <trkpt lat="45.970831168815494" lon="9.453273843973875">
        <ele>443.74000000000001</ele>
        <time>2023-11-26T07:04:18Z</time>
      </trkpt>
      <trkpt lat="45.970849357545376" lon="9.453287590295076">
        <ele>445.31</ele>
        <time>2023-11-26T07:04:37Z</time>
      </trkpt>
      <trkpt lat="45.970852794125676" lon="9.453308125957847">
        <ele>445.44999999999999</ele>
        <time>2023-11-26T07:04:39Z</time>
      </trkpt>
      <trkpt lat="45.970897050574422" lon="9.453576933592558">
        <ele>445.29000000000002</ele>
        <time>2023-11-26T07:04:54Z</time>
      </trkpt>
      <trkpt lat="45.970935607329011" lon="9.453777596354485">
        <ele>446.76999999999998</ele>
        <time>2023-11-26T07:05:08Z</time>
      </trkpt>
      <trkpt lat="45.970977265387774" lon="9.453949006274343">
        <ele>449.62</ele>
        <time>2023-11-26T07:05:19Z</time>
      </trkpt>
      <trkpt lat="45.971010206267238" lon="9.453970547765493">
        <ele>449.98000000000002</ele>
        <time>2023-11-26T07:05:21Z</time>
      </trkpt>
      <trkpt lat="45.97106259316206" lon="9.454119745641947">
        <ele>453.06999999999999</ele>
        <time>2023-11-26T07:05:34Z</time>
      </trkpt>
      <trkpt lat="45.971095450222492" lon="9.454181268811226">
        <ele>451.57999999999998</ele>
        <time>2023-11-26T07:05:38Z</time>
      </trkpt>
      <trkpt lat="45.971069047227502" lon="9.454384027048945">
        <ele>452.74000000000001</ele>
        <time>2023-11-26T07:05:50Z</time>
      </trkpt>
      <trkpt lat="45.971074411645532" lon="9.454567590728402">
        <ele>455.39999999999998</ele>
        <time>2023-11-26T07:06:02Z</time>
      </trkpt>
      <trkpt lat="45.971112884581089" lon="9.45464612916112">
        <ele>457.35000000000002</ele>
        <time>2023-11-26T07:06:11Z</time>
      </trkpt>
      <trkpt lat="45.971217406913638" lon="9.454726092517376">
        <ele>459.37</ele>
        <time>2023-11-26T07:06:25Z</time>
      </trkpt>
      <trkpt lat="45.971227465197444" lon="9.454723410308361">
        <ele>459.66000000000003</ele>
        <time>2023-11-26T07:06:26Z</time>
      </trkpt>
      <trkpt lat="45.971351349726319" lon="9.454689715057612">
        <ele>462.12</ele>
        <time>2023-11-26T07:06:38Z</time>
      </trkpt>
      <trkpt lat="45.971423853188753" lon="9.454678231850267">
        <ele>463.41000000000003</ele>
        <time>2023-11-26T07:06:44Z</time>
      </trkpt>
      <trkpt lat="45.971544971689582" lon="9.454625677317381">
        <ele>466.19</ele>
        <time>2023-11-26T07:07:01Z</time>
      </trkpt>
      <trkpt lat="45.971557544544339" lon="9.454799015074968">
        <ele>468.31999999999999</ele>
        <time>2023-11-26T07:07:13Z</time>
      </trkpt>
      <trkpt lat="45.971550671383739" lon="9.45495349355042">
        <ele>470.35000000000002</ele>
        <time>2023-11-26T07:07:25Z</time>
      </trkpt>
      <trkpt lat="45.971540696918964" lon="9.454984338954091">
        <ele>471.16000000000003</ele>
        <time>2023-11-26T07:07:27Z</time>
      </trkpt>
      <trkpt lat="45.971519406884909" lon="9.455159353092313">
        <ele>472.91000000000003</ele>
        <time>2023-11-26T07:07:39Z</time>
      </trkpt>
      <trkpt lat="45.971641531214118" lon="9.455278040841222">
        <ele>475.02999999999997</ele>
        <time>2023-11-26T07:07:52Z</time>
      </trkpt>
      <trkpt lat="45.971733564510942" lon="9.455378204584122">
        <ele>477.30000000000001</ele>
        <time>2023-11-26T07:08:03Z</time>
      </trkpt>
      <trkpt lat="45.971830291673541" lon="9.455422041937709">
        <ele>480.25999999999999</ele>
        <time>2023-11-26T07:08:15Z</time>
      </trkpt>
      <trkpt lat="45.971929701045156" lon="9.455445092171431">
        <ele>483.35000000000002</ele>
        <time>2023-11-26T07:08:28Z</time>
      </trkpt>
      <trkpt lat="45.971905812621117" lon="9.455532683059573">
        <ele>485.68000000000001</ele>
        <time>2023-11-26T07:08:39Z</time>
      </trkpt>
      <trkpt lat="45.971941100433469" lon="9.455640390515328">
        <ele>488.81</ele>
        <time>2023-11-26T07:08:52Z</time>
      </trkpt>
      <trkpt lat="45.972015280276537" lon="9.455688670277596">
        <ele>492.01999999999998</ele>
        <time>2023-11-26T07:09:05Z</time>
      </trkpt>
      <trkpt lat="45.972089963033795" lon="9.455727059394121">
        <ele>495.16000000000003</ele>
        <time>2023-11-26T07:09:17Z</time>
      </trkpt>
      <trkpt lat="45.972131285816431" lon="9.455778189003468">
        <ele>498.26999999999998</ele>
        <time>2023-11-26T07:09:29Z</time>
      </trkpt>
      <trkpt lat="45.972203956916928" lon="9.455784391611815">
        <ele>501.16000000000003</ele>
        <time>2023-11-26T07:09:42Z</time>
      </trkpt>
      <trkpt lat="45.972280651330948" lon="9.455782547593117">
        <ele>504.29000000000002</ele>
        <time>2023-11-26T07:09:56Z</time>
      </trkpt>
      <trkpt lat="45.972367068752646" lon="9.455779530107975">
        <ele>507.44999999999999</ele>
        <time>2023-11-26T07:10:10Z</time>
      </trkpt>
      <trkpt lat="45.972461784258485" lon="9.455764442682266">
        <ele>509.85000000000002</ele>
        <time>2023-11-26T07:10:22Z</time>
      </trkpt>
      <trkpt lat="45.972501933574677" lon="9.455793276429176">
        <ele>511.60000000000002</ele>
        <time>2023-11-26T07:10:37Z</time>
      </trkpt>
      <trkpt lat="45.972500508651137" lon="9.455794868990779">
        <ele>512.89999999999998</ele>
        <time>2023-11-26T07:10:55Z</time>
      </trkpt>
      <trkpt lat="45.972507046535611" lon="9.455802496522665">
        <ele>515.75</ele>
        <time>2023-11-26T07:11:52Z</time>
      </trkpt>
      <trkpt lat="45.972426161170006" lon="9.455859325826168">
        <ele>518.88999999999999</ele>
        <time>2023-11-26T07:12:04Z</time>
      </trkpt>
      <trkpt lat="45.972346784546971" lon="9.455894865095615">
        <ele>521.96000000000004</ele>
        <time>2023-11-26T07:12:16Z</time>
      </trkpt>
      <trkpt lat="45.97226707264781" lon="9.455961417406797">
        <ele>524.96000000000004</ele>
        <time>2023-11-26T07:12:28Z</time>
      </trkpt>
      <trkpt lat="45.97218744456768" lon="9.456024784594774">
        <ele>528.10000000000002</ele>
        <time>2023-11-26T07:12:40Z</time>
      </trkpt>
      <trkpt lat="45.972116533666849" lon="9.456103406846523">
        <ele>531.25</ele>
        <time>2023-11-26T07:12:53Z</time>
      </trkpt>
      <trkpt lat="45.972033971920609" lon="9.456193596124649">
        <ele>534.54999999999995</ele>
        <time>2023-11-26T07:13:08Z</time>
      </trkpt>
      <trkpt lat="45.972005976364017" lon="9.456310691311956">
        <ele>537.54999999999995</ele>
        <time>2023-11-26T07:13:21Z</time>
      </trkpt>
      <trkpt lat="45.972093064337969" lon="9.456352600827813">
        <ele>540.04999999999995</ele>
        <time>2023-11-26T07:13:33Z</time>
      </trkpt>
      <trkpt lat="45.972175458446145" lon="9.456372717395425">
        <ele>543.08000000000004</ele>
        <time>2023-11-26T07:13:45Z</time>
      </trkpt>
      <trkpt lat="45.972267240285873" lon="9.456369196996093">
        <ele>546.35000000000002</ele>
        <time>2023-11-26T07:13:58Z</time>
      </trkpt>
      <trkpt lat="45.972303953021765" lon="9.456373136490583">
        <ele>547.59000000000003</ele>
        <time>2023-11-26T07:14:04Z</time>
      </trkpt>
      <trkpt lat="45.972357261925936" lon="9.456434072926641">
        <ele>550.02999999999997</ele>
        <time>2023-11-26T07:14:16Z</time>
      </trkpt>
      <trkpt lat="45.972434123978019" lon="9.456467013806105">
        <ele>552.77999999999997</ele>
        <time>2023-11-26T07:14:29Z</time>
      </trkpt>
      <trkpt lat="45.972500257194042" lon="9.456468774005771">
        <ele>555.88999999999999</ele>
        <time>2023-11-26T07:14:41Z</time>
      </trkpt>
      <trkpt lat="45.972582064568996" lon="9.456490483134985">
        <ele>556.57000000000005</ele>
        <time>2023-11-26T07:14:57Z</time>
      </trkpt>
      <trkpt lat="45.97270779311657" lon="9.456453518941999">
        <ele>557.35000000000002</ele>
        <time>2023-11-26T07:15:12Z</time>
      </trkpt>
      <trkpt lat="45.972786834463477" lon="9.456432228907943">
        <ele>563.29999999999995</ele>
        <time>2023-11-26T07:15:22Z</time>
      </trkpt>
      <trkpt lat="45.972789097577333" lon="9.456429211422801">
        <ele>563.32000000000005</ele>
        <time>2023-11-26T07:15:23Z</time>
      </trkpt>
      <trkpt lat="45.972873503342271" lon="9.456372298300266">
        <ele>566.57000000000005</ele>
        <time>2023-11-26T07:15:38Z</time>
      </trkpt>
      <trkpt lat="45.972963524982333" lon="9.456396605819464">
        <ele>569.62</ele>
        <time>2023-11-26T07:15:49Z</time>
      </trkpt>
      <trkpt lat="45.973018510267138" lon="9.45642133243382">
        <ele>572.64999999999998</ele>
        <time>2023-11-26T07:16:03Z</time>
      </trkpt>
      <trkpt lat="45.972982384264469" lon="9.456451926380396">
        <ele>575.76999999999998</ele>
        <time>2023-11-26T07:16:16Z</time>
      </trkpt>
      <trkpt lat="45.972963105887175" lon="9.456498110666871">
        <ele>577.73000000000002</ele>
        <time>2023-11-26T07:16:27Z</time>
      </trkpt>
      <trkpt lat="45.972912646830082" lon="9.456648398190737">
        <ele>580.97000000000003</ele>
        <time>2023-11-26T07:16:43Z</time>
      </trkpt>
      <trkpt lat="45.972869899123907" lon="9.456745376810432">
        <ele>584.27999999999997</ele>
        <time>2023-11-26T07:16:58Z</time>
      </trkpt>
      <trkpt lat="45.972814159467816" lon="9.456892898306251">
        <ele>587.32000000000005</ele>
        <time>2023-11-26T07:17:13Z</time>
      </trkpt>
      <trkpt lat="45.972761102020741" lon="9.457006473094225">
        <ele>589.67999999999995</ele>
        <time>2023-11-26T07:17:26Z</time>
      </trkpt>
      <trkpt lat="45.972695304080844" lon="9.457146115601063">
        <ele>592.84000000000003</ele>
        <time>2023-11-26T07:17:43Z</time>
      </trkpt>
      <trkpt lat="45.972636546939611" lon="9.457278130576015">
        <ele>595.05999999999995</ele>
        <time>2023-11-26T07:17:58Z</time>
      </trkpt>
      <trkpt lat="45.972587848082185" lon="9.45738441310823">
        <ele>598.27999999999997</ele>
        <time>2023-11-26T07:18:13Z</time>
      </trkpt>
      <trkpt lat="45.972569491714239" lon="9.457498742267489">
        <ele>601.44000000000005</ele>
        <time>2023-11-26T07:18:28Z</time>
      </trkpt>
      <trkpt lat="45.972649287432432" lon="9.457524223253131">
        <ele>604.48000000000002</ele>
        <time>2023-11-26T07:18:42Z</time>
      </trkpt>
      <trkpt lat="45.972725562751293" lon="9.457527073100209">
        <ele>607.63</ele>
        <time>2023-11-26T07:18:58Z</time>
      </trkpt>
      <trkpt lat="45.972810974344611" lon="9.457507962360978">
        <ele>610.22000000000003</ele>
        <time>2023-11-26T07:19:14Z</time>
      </trkpt>
      <trkpt lat="45.972906276583672" lon="9.4575051125139">
        <ele>613.25</ele>
        <time>2023-11-26T07:19:28Z</time>
      </trkpt>
      <trkpt lat="45.972986072301865" lon="9.457497820258141">
        <ele>616.11000000000001</ele>
        <time>2023-11-26T07:19:43Z</time>
      </trkpt>
      <trkpt lat="45.9730464220047" lon="9.457481810823083">
        <ele>618.40999999999997</ele>
        <time>2023-11-26T07:19:56Z</time>
      </trkpt>
      <trkpt lat="45.973124541342258" lon="9.457464460283518">
        <ele>621.47000000000003</ele>
        <time>2023-11-26T07:20:13Z</time>
      </trkpt>
      <trkpt lat="45.973199559375644" lon="9.457472842186689">
        <ele>624.34000000000003</ele>
        <time>2023-11-26T07:20:29Z</time>
      </trkpt>
      <trkpt lat="45.973288072273135" lon="9.457480050623417">
        <ele>627.52999999999997</ele>
        <time>2023-11-26T07:20:46Z</time>
      </trkpt>
      <trkpt lat="45.973354959860444" lon="9.4575275760144">
        <ele>630.53999999999996</ele>
        <time>2023-11-26T07:20:59Z</time>
      </trkpt>
      <trkpt lat="45.973422937095165" lon="9.457566803321242">
        <ele>632.97000000000003</ele>
        <time>2023-11-26T07:21:13Z</time>
      </trkpt>
      <trkpt lat="45.973478928208351" lon="9.457596139982343">
        <ele>635.01999999999998</ele>
        <time>2023-11-26T07:21:24Z</time>
      </trkpt>
      <trkpt lat="45.973543720319867" lon="9.457657160237432">
        <ele>638.23000000000002</ele>
        <time>2023-11-26T07:21:40Z</time>
      </trkpt>
      <trkpt lat="45.973597280681133" lon="9.457698315382004">
        <ele>640.32000000000005</ele>
        <time>2023-11-26T07:21:52Z</time>
      </trkpt>
      <trkpt lat="45.973645560443401" lon="9.457742739468813">
        <ele>643.45000000000005</ele>
        <time>2023-11-26T07:22:05Z</time>
      </trkpt>
      <trkpt lat="45.973679255694151" lon="9.457769561558962">
        <ele>645.38999999999999</ele>
        <time>2023-11-26T07:22:17Z</time>
      </trkpt>
      <trkpt lat="45.973732564598322" lon="9.457809207960963">
        <ele>648.41999999999996</ele>
        <time>2023-11-26T07:22:29Z</time>
      </trkpt>
      <trkpt lat="45.973782269284129" lon="9.457858577370644">
        <ele>650.69000000000005</ele>
        <time>2023-11-26T07:22:42Z</time>
      </trkpt>
      <trkpt lat="45.973807079717517" lon="9.457911048084498">
        <ele>654.75</ele>
        <time>2023-11-26T07:23:16Z</time>
      </trkpt>
      <trkpt lat="45.973805403336883" lon="9.457934852689505">
        <ele>657.95000000000005</ele>
        <time>2023-11-26T07:24:14Z</time>
      </trkpt>
      <trkpt lat="45.973855862393975" lon="9.458040716126561">
        <ele>660.89999999999998</ele>
        <time>2023-11-26T07:24:29Z</time>
      </trkpt>
      <trkpt lat="45.973922247067094" lon="9.458203073590994">
        <ele>664.02999999999997</ele>
        <time>2023-11-26T07:24:45Z</time>
      </trkpt>
      <trkpt lat="45.974007323384285" lon="9.458323856815696">
        <ele>667</ele>
        <time>2023-11-26T07:24:59Z</time>
      </trkpt>
      <trkpt lat="45.974044539034367" lon="9.458344979211688">
        <ele>668.37</ele>
        <time>2023-11-26T07:25:15Z</time>
      </trkpt>
      <trkpt lat="45.974101033061743" lon="9.458435419946909">
        <ele>677.84000000000003</ele>
        <time>2023-11-26T07:28:15Z</time>
      </trkpt>
      <trkpt lat="45.974154258146882" lon="9.458461822941899">
        <ele>679.63999999999999</ele>
        <time>2023-11-26T07:28:25Z</time>
      </trkpt>
      <trkpt lat="45.974196335300803" lon="9.458510857075453">
        <ele>681.36000000000001</ele>
        <time>2023-11-26T07:28:34Z</time>
      </trkpt>
      <trkpt lat="45.974263474345207" lon="9.458585623651743">
        <ele>684.63</ele>
        <time>2023-11-26T07:28:49Z</time>
      </trkpt>
      <trkpt lat="45.974324997514486" lon="9.458652846515179">
        <ele>687.63</ele>
        <time>2023-11-26T07:29:04Z</time>
      </trkpt>
      <trkpt lat="45.974365314468741" lon="9.458726942539215">
        <ele>690.57000000000005</ele>
        <time>2023-11-26T07:29:18Z</time>
      </trkpt>
      <trkpt lat="45.974413426592946" lon="9.458788717165589">
        <ele>693.38</ele>
        <time>2023-11-26T07:29:33Z</time>
      </trkpt>
      <trkpt lat="45.974461119621992" lon="9.458832303062081">
        <ele>696.38999999999999</ele>
        <time>2023-11-26T07:29:47Z</time>
      </trkpt>
      <trkpt lat="45.974519373849034" lon="9.45882492698729">
        <ele>698.62</ele>
        <time>2023-11-26T07:30:00Z</time>
      </trkpt>
      <trkpt lat="45.974569832906127" lon="9.458805983886123">
        <ele>701.32000000000005</ele>
        <time>2023-11-26T07:30:14Z</time>
      </trkpt>
      <trkpt lat="45.974620208144188" lon="9.458806402981281">
        <ele>703.64999999999998</ele>
        <time>2023-11-26T07:30:26Z</time>
      </trkpt>
      <trkpt lat="45.97468969412148" lon="9.458817970007658">
        <ele>706.78999999999996</ele>
        <time>2023-11-26T07:30:41Z</time>
      </trkpt>
      <trkpt lat="45.974761946126819" lon="9.458834901452065">
        <ele>708.83000000000004</ele>
        <time>2023-11-26T07:30:51Z</time>
      </trkpt>
      <trkpt lat="45.974848447367549" lon="9.45887865498662">
        <ele>711.37</ele>
        <time>2023-11-26T07:31:07Z</time>
      </trkpt>
      <trkpt lat="45.974957747384906" lon="9.458929784595966">
        <ele>713.55999999999995</ele>
        <time>2023-11-26T07:31:21Z</time>
      </trkpt>
      <trkpt lat="45.975065706297755" lon="9.458954846486449">
        <ele>715.50999999999999</ele>
        <time>2023-11-26T07:31:34Z</time>
      </trkpt>
      <trkpt lat="45.975168468430638" lon="9.458994073793292">
        <ele>717.24000000000001</ele>
        <time>2023-11-26T07:31:46Z</time>
      </trkpt>
      <trkpt lat="45.975182466208935" lon="9.458998013287783">
        <ele>717.32000000000005</ele>
        <time>2023-11-26T07:31:47Z</time>
      </trkpt>
      <trkpt lat="45.975256562232971" lon="9.459038581699133">
        <ele>719.19000000000005</ele>
        <time>2023-11-26T07:31:57Z</time>
      </trkpt>
      <trkpt lat="45.975310625508428" lon="9.459077641367912">
        <ele>720.92999999999995</ele>
        <time>2023-11-26T07:32:07Z</time>
      </trkpt>
      <trkpt lat="45.975403496995568" lon="9.459108738228679">
        <ele>723.52999999999997</ele>
        <time>2023-11-26T07:32:21Z</time>
      </trkpt>
      <trkpt lat="45.975492093712091" lon="9.459133129566908">
        <ele>725.85000000000002</ele>
        <time>2023-11-26T07:32:34Z</time>
      </trkpt>
      <trkpt lat="45.975546576082706" lon="9.459150480106473">
        <ele>727.91999999999996</ele>
        <time>2023-11-26T07:32:46Z</time>
      </trkpt>
      <trkpt lat="45.975604997947812" lon="9.45916305296123">
        <ele>730.33000000000004</ele>
        <time>2023-11-26T07:32:59Z</time>
      </trkpt>
      <trkpt lat="45.975675657391548" lon="9.459150899201632">
        <ele>732.74000000000001</ele>
        <time>2023-11-26T07:33:15Z</time>
      </trkpt>
      <trkpt lat="45.975755956023932" lon="9.459112845361233">
        <ele>735.12</ele>
        <time>2023-11-26T07:33:28Z</time>
      </trkpt>
      <trkpt lat="45.975853521376848" lon="9.459044951945543">
        <ele>737.11000000000001</ele>
        <time>2023-11-26T07:33:42Z</time>
      </trkpt>
      <trkpt lat="45.975907919928432" lon="9.459043024107814">
        <ele>739.19000000000005</ele>
        <time>2023-11-26T07:33:52Z</time>
      </trkpt>
      <trkpt lat="45.976004730910063" lon="9.459060709923506">
        <ele>741.48000000000002</ele>
        <time>2023-11-26T07:34:06Z</time>
      </trkpt>
      <trkpt lat="45.976083688437939" lon="9.459086693823338">
        <ele>743.95000000000005</ele>
        <time>2023-11-26T07:34:20Z</time>
      </trkpt>
      <trkpt lat="45.97617119550705" lon="9.459102367982268">
        <ele>746.47000000000003</ele>
        <time>2023-11-26T07:34:33Z</time>
      </trkpt>
      <trkpt lat="45.976257948204875" lon="9.459125837311149">
        <ele>749.12</ele>
        <time>2023-11-26T07:34:47Z</time>
      </trkpt>
      <trkpt lat="45.976329362019897" lon="9.459136566147208">
        <ele>750.84000000000003</ele>
        <time>2023-11-26T07:34:59Z</time>
      </trkpt>
      <trkpt lat="45.976388538256288" lon="9.459140840917826">
        <ele>752.78999999999996</ele>
        <time>2023-11-26T07:35:09Z</time>
      </trkpt>
      <trkpt lat="45.976442601531744" lon="9.459164561703801">
        <ele>755.66999999999996</ele>
        <time>2023-11-26T07:35:24Z</time>
      </trkpt>
      <trkpt lat="45.976523403078318" lon="9.459189623594284">
        <ele>757.75</ele>
        <time>2023-11-26T07:35:36Z</time>
      </trkpt>
      <trkpt lat="45.976617112755775" lon="9.45921728387475">
        <ele>760.10000000000002</ele>
        <time>2023-11-26T07:35:49Z</time>
      </trkpt>
      <trkpt lat="45.976662626489997" lon="9.459255505353212">
        <ele>761.75</ele>
        <time>2023-11-26T07:35:59Z</time>
      </trkpt>
      <trkpt lat="45.976742673665285" lon="9.459298839792609">
        <ele>764.55999999999995</ele>
        <time>2023-11-26T07:36:14Z</time>
      </trkpt>
      <trkpt lat="45.976809309795499" lon="9.459352316334844">
        <ele>767.22000000000003</ele>
        <time>2023-11-26T07:36:28Z</time>
      </trkpt>
      <trkpt lat="45.976878795772791" lon="9.459392884746194">
        <ele>769.79999999999995</ele>
        <time>2023-11-26T07:36:40Z</time>
      </trkpt>
      <trkpt lat="45.976926740258932" lon="9.459473434835672">
        <ele>772.37</ele>
        <time>2023-11-26T07:36:55Z</time>
      </trkpt>
      <trkpt lat="45.976949036121368" lon="9.459595056250691">
        <ele>774.78999999999996</ele>
        <time>2023-11-26T07:37:10Z</time>
      </trkpt>
      <trkpt lat="45.976995388045907" lon="9.459690609946847">
        <ele>776.63999999999999</ele>
        <time>2023-11-26T07:37:24Z</time>
      </trkpt>
      <trkpt lat="45.977010140195489" lon="9.459709469228983">
        <ele>777.41999999999996</ele>
        <time>2023-11-26T07:37:27Z</time>
      </trkpt>
      <trkpt lat="45.977011732757092" lon="9.459720030426979">
        <ele>777.45000000000005</ele>
        <time>2023-11-26T07:37:29Z</time>
      </trkpt>
      <trkpt lat="45.97706395201385" lon="9.459751965478063">
        <ele>778.47000000000003</ele>
        <time>2023-11-26T07:37:35Z</time>
      </trkpt>
      <trkpt lat="45.977132096886635" lon="9.459805861115456">
        <ele>780.46000000000004</ele>
        <time>2023-11-26T07:37:47Z</time>
      </trkpt>
      <trkpt lat="45.977195296436548" lon="9.459865959361196">
        <ele>782.62</ele>
        <time>2023-11-26T07:37:58Z</time>
      </trkpt>
      <trkpt lat="45.97727257758379" lon="9.45993016473949">
        <ele>784.90999999999997</ele>
        <time>2023-11-26T07:38:11Z</time>
      </trkpt>
      <trkpt lat="45.977297388017178" lon="9.459962854161859">
        <ele>785.28999999999996</ele>
        <time>2023-11-26T07:38:14Z</time>
      </trkpt>
      <trkpt lat="45.977350696921349" lon="9.459991939365864">
        <ele>786</ele>
        <time>2023-11-26T07:38:21Z</time>
      </trkpt>
      <trkpt lat="45.977387996390462" lon="9.460011217743158">
        <ele>786.85000000000002</ele>
        <time>2023-11-26T07:38:27Z</time>
      </trkpt>
      <trkpt lat="45.97748170606792" lon="9.460016414523125">
        <ele>787.42999999999995</ele>
        <time>2023-11-26T07:38:37Z</time>
      </trkpt>
      <trkpt lat="45.977600980550051" lon="9.460017755627632">
        <ele>788.5</ele>
        <time>2023-11-26T07:38:48Z</time>
      </trkpt>
      <trkpt lat="45.97774950787425" lon="9.459990011528134">
        <ele>789.70000000000005</ele>
        <time>2023-11-26T07:39:01Z</time>
      </trkpt>
      <trkpt lat="45.977923348546028" lon="9.459917759522796">
        <ele>791.19000000000005</ele>
        <time>2023-11-26T07:39:17Z</time>
      </trkpt>
      <trkpt lat="45.978024350479245" lon="9.459876604378223">
        <ele>791.96000000000004</ele>
        <time>2023-11-26T07:39:28Z</time>
      </trkpt>
      <trkpt lat="45.978033822029829" lon="9.459870988503099">
        <ele>791.92999999999995</ele>
        <time>2023-11-26T07:39:29Z</time>
      </trkpt>
      <trkpt lat="45.97804413177073" lon="9.459864785894752">
        <ele>791.88999999999999</ele>
        <time>2023-11-26T07:39:30Z</time>
      </trkpt>
      <trkpt lat="45.978055447340012" lon="9.459860259667039">
        <ele>792.04999999999995</ele>
        <time>2023-11-26T07:39:31Z</time>
      </trkpt>
      <trkpt lat="45.978066679090261" lon="9.459855565801263">
        <ele>792.12</ele>
        <time>2023-11-26T07:39:32Z</time>
      </trkpt>
      <trkpt lat="45.978077575564384" lon="9.45985003374517">
        <ele>792.25</ele>
        <time>2023-11-26T07:39:33Z</time>
      </trkpt>
      <trkpt lat="45.978233562782407" lon="9.459753641858697">
        <ele>793.07000000000005</ele>
        <time>2023-11-26T07:39:49Z</time>
      </trkpt>
      <trkpt lat="45.978288967162371" lon="9.4597137439996">
        <ele>793.63</ele>
        <time>2023-11-26T07:39:58Z</time>
      </trkpt>
      <trkpt lat="45.978300618007779" lon="9.459705613553524">
        <ele>793.78999999999996</ele>
        <time>2023-11-26T07:39:59Z</time>
      </trkpt>
      <trkpt lat="45.978377144783735" lon="9.459662614390254">
        <ele>794.33000000000004</ele>
        <time>2023-11-26T07:40:06Z</time>
      </trkpt>
      <trkpt lat="45.978389130905271" lon="9.459656495600939">
        <ele>794.33000000000004</ele>
        <time>2023-11-26T07:40:07Z</time>
      </trkpt>
      <trkpt lat="45.978541430085897" lon="9.45958323776722">
        <ele>794.78999999999996</ele>
        <time>2023-11-26T07:40:21Z</time>
      </trkpt>
      <trkpt lat="45.978769417852163" lon="9.459501011297107">
        <ele>796.02999999999997</ele>
        <time>2023-11-26T07:40:39Z</time>
      </trkpt>
      <trkpt lat="45.978777799755335" lon="9.459503022953868">
        <ele>796.14999999999998</ele>
        <time>2023-11-26T07:40:40Z</time>
      </trkpt>
      <trkpt lat="45.978789031505585" lon="9.459502855315805">
        <ele>796.09000000000003</ele>
        <time>2023-11-26T07:40:41Z</time>
      </trkpt>
      <trkpt lat="45.978802358731627" lon="9.459500927478075">
        <ele>796.14999999999998</ele>
        <time>2023-11-26T07:40:42Z</time>
      </trkpt>
      <trkpt lat="45.978815853595734" lon="9.459496485069394">
        <ele>796.25</ele>
        <time>2023-11-26T07:40:43Z</time>
      </trkpt>
      <trkpt lat="45.978910233825445" lon="9.459465723484755">
        <ele>796.63</ele>
        <time>2023-11-26T07:40:52Z</time>
      </trkpt>
      <trkpt lat="45.979011068120599" lon="9.459429429844022">
        <ele>797.25999999999999</ele>
        <time>2023-11-26T07:41:01Z</time>
      </trkpt>
      <trkpt lat="45.979134785011411" lon="9.459388609975576">
        <ele>797.46000000000004</ele>
        <time>2023-11-26T07:41:11Z</time>
      </trkpt>
      <trkpt lat="45.979246515780687" lon="9.459367571398616">
        <ele>797.34000000000003</ele>
        <time>2023-11-26T07:41:23Z</time>
      </trkpt>
      <trkpt lat="45.979270404204726" lon="9.459398500621319">
        <ele>797.33000000000004</ele>
        <time>2023-11-26T07:41:37Z</time>
      </trkpt>
      <trkpt lat="45.979335363954306" lon="9.459492797031999">
        <ele>795.99000000000001</ele>
        <time>2023-11-26T07:41:49Z</time>
      </trkpt>
      <trkpt lat="45.979350283741951" lon="9.459500843659043">
        <ele>795.64999999999998</ele>
        <time>2023-11-26T07:41:50Z</time>
      </trkpt>
      <trkpt lat="45.979407364502549" lon="9.459566893056035">
        <ele>793.94000000000005</ele>
        <time>2023-11-26T07:41:58Z</time>
      </trkpt>
      <trkpt lat="45.979453464969993" lon="9.459640989080071">
        <ele>792.58000000000004</ele>
        <time>2023-11-26T07:42:05Z</time>
      </trkpt>
      <trkpt lat="45.97949537448585" lon="9.459720281884074">
        <ele>790.88999999999999</ele>
        <time>2023-11-26T07:42:13Z</time>
      </trkpt>
      <trkpt lat="45.979524459689856" lon="9.45975816808641">
        <ele>790.13999999999999</ele>
        <time>2023-11-26T07:42:17Z</time>
      </trkpt>
      <trkpt lat="45.979560920968652" lon="9.459855230525136">
        <ele>788.69000000000005</ele>
        <time>2023-11-26T07:42:25Z</time>
      </trkpt>
      <trkpt lat="45.979618337005377" lon="9.460006607696414">
        <ele>789.01999999999998</ele>
        <time>2023-11-26T07:42:35Z</time>
      </trkpt>
      <trkpt lat="45.979638369753957" lon="9.460055055096746">
        <ele>786.39999999999998</ele>
        <time>2023-11-26T07:42:39Z</time>
      </trkpt>
      <trkpt lat="45.979702575132251" lon="9.460163516923785">
        <ele>785.08000000000004</ele>
        <time>2023-11-26T07:42:48Z</time>
      </trkpt>
      <trkpt lat="45.979713387787342" lon="9.460173239931464">
        <ele>784.95000000000005</ele>
        <time>2023-11-26T07:42:49Z</time>
      </trkpt>
      <trkpt lat="45.979824112728238" lon="9.460239289328456">
        <ele>783.57000000000005</ele>
        <time>2023-11-26T07:42:59Z</time>
      </trkpt>
      <trkpt lat="45.979934250935912" lon="9.460262088105083">
        <ele>782.48000000000002</ele>
        <time>2023-11-26T07:43:09Z</time>
      </trkpt>
      <trkpt lat="45.980009017512202" lon="9.460269967094064">
        <ele>781.99000000000001</ele>
        <time>2023-11-26T07:43:16Z</time>
      </trkpt>
      <trkpt lat="45.980024775490165" lon="9.460267787799239">
        <ele>781.98000000000002</ele>
        <time>2023-11-26T07:43:17Z</time>
      </trkpt>
      <trkpt lat="45.980091243982315" lon="9.460273152217269">
        <ele>781.62</ele>
        <time>2023-11-26T07:43:22Z</time>
      </trkpt>
      <trkpt lat="45.980130387470126" lon="9.460266614332795">
        <ele>781.44000000000005</ele>
        <time>2023-11-26T07:43:25Z</time>
      </trkpt>
      <trkpt lat="45.980262821540236" lon="9.460282539948821">
        <ele>780.26999999999998</ele>
        <time>2023-11-26T07:43:36Z</time>
      </trkpt>
      <trkpt lat="45.98042911849916" lon="9.460232248529792">
        <ele>780.45000000000005</ele>
        <time>2023-11-26T07:43:49Z</time>
      </trkpt>
      <trkpt lat="45.980502376332879" lon="9.460235852748156">
        <ele>781.01999999999998</ele>
        <time>2023-11-26T07:43:55Z</time>
      </trkpt>
      <trkpt lat="45.980634475126863" lon="9.460269967094064">
        <ele>782.09000000000003</ele>
        <time>2023-11-26T07:44:06Z</time>
      </trkpt>
      <trkpt lat="45.980742266401649" lon="9.460335513576865">
        <ele>783.10000000000002</ele>
        <time>2023-11-26T07:44:16Z</time>
      </trkpt>
      <trkpt lat="45.980806304141879" lon="9.46042469702661">
        <ele>783.94000000000005</ele>
        <time>2023-11-26T07:44:25Z</time>
      </trkpt>
      <trkpt lat="45.980857266113162" lon="9.460523352026939">
        <ele>784.66999999999996</ele>
        <time>2023-11-26T07:44:33Z</time>
      </trkpt>
      <trkpt lat="45.980931697413325" lon="9.460621168836951">
        <ele>785.5</ele>
        <time>2023-11-26T07:44:41Z</time>
      </trkpt>
      <trkpt lat="45.980951059609652" lon="9.460645643994212">
        <ele>785.53999999999996</ele>
        <time>2023-11-26T07:44:43Z</time>
      </trkpt>
      <trkpt lat="45.981010738760233" lon="9.460775731131434">
        <ele>786.46000000000004</ele>
        <time>2023-11-26T07:44:52Z</time>
      </trkpt>
      <trkpt lat="45.981017276644707" lon="9.46079014800489">
        <ele>786.58000000000004</ele>
        <time>2023-11-26T07:44:53Z</time>
      </trkpt>
      <trkpt lat="45.981018198654056" lon="9.460807079449296">
        <ele>786.60000000000002</ele>
        <time>2023-11-26T07:44:54Z</time>
      </trkpt>
      <trkpt lat="45.981020629405975" lon="9.460823507979512">
        <ele>786.62</ele>
        <time>2023-11-26T07:44:55Z</time>
      </trkpt>
      <trkpt lat="45.981025407090783" lon="9.460838679224253">
        <ele>786.78999999999996</ele>
        <time>2023-11-26T07:44:56Z</time>
      </trkpt>
      <trkpt lat="45.981032280251384" lon="9.460853096097708">
        <ele>786.85000000000002</ele>
        <time>2023-11-26T07:44:57Z</time>
      </trkpt>
      <trkpt lat="45.981041835620999" lon="9.460866255685687">
        <ele>787.14999999999998</ele>
        <time>2023-11-26T07:44:58Z</time>
      </trkpt>
      <trkpt lat="45.981048876419663" lon="9.460880504921079">
        <ele>787.12</ele>
        <time>2023-11-26T07:44:59Z</time>
      </trkpt>
      <trkpt lat="45.981056252494454" lon="9.460894083604217">
        <ele>787.14999999999998</ele>
        <time>2023-11-26T07:45:00Z</time>
      </trkpt>
      <trkpt lat="45.981064382940531" lon="9.460907494649291">
        <ele>787.22000000000003</ele>
        <time>2023-11-26T07:45:01Z</time>
      </trkpt>
      <trkpt lat="45.981070417910814" lon="9.460922582075">
        <ele>787.32000000000005</ele>
        <time>2023-11-26T07:45:02Z</time>
      </trkpt>
      <trkpt lat="45.98107997328043" lon="9.460936998948455">
        <ele>787.38999999999999</ele>
        <time>2023-11-26T07:45:03Z</time>
      </trkpt>
      <trkpt lat="45.981090702116489" lon="9.460949907079339">
        <ele>787.54999999999995</ele>
        <time>2023-11-26T07:45:04Z</time>
      </trkpt>
      <trkpt lat="45.981199331581593" lon="9.461075467988849">
        <ele>788.69000000000005</ele>
        <time>2023-11-26T07:45:15Z</time>
      </trkpt>
      <trkpt lat="45.981359258294106" lon="9.461170351132751">
        <ele>789.38999999999999</ele>
        <time>2023-11-26T07:45:29Z</time>
      </trkpt>
      <trkpt lat="45.981494877487421" lon="9.461270598694682">
        <ele>790.04999999999995</ele>
        <time>2023-11-26T07:45:41Z</time>
      </trkpt>
      <trkpt lat="45.981607027351856" lon="9.461378389969468">
        <ele>790.51999999999998</ele>
        <time>2023-11-26T07:45:52Z</time>
      </trkpt>
      <trkpt lat="45.981669723987579" lon="9.461448295041919">
        <ele>791.00999999999999</ele>
        <time>2023-11-26T07:45:59Z</time>
      </trkpt>
      <trkpt lat="45.981701156124473" lon="9.461472518742085">
        <ele>791.17999999999995</ele>
        <time>2023-11-26T07:46:02Z</time>
      </trkpt>
      <trkpt lat="45.981816658750176" lon="9.46155047044158">
        <ele>791.64999999999998</ele>
        <time>2023-11-26T07:46:13Z</time>
      </trkpt>
      <trkpt lat="45.981843816116452" lon="9.461566647514701">
        <ele>791.51999999999998</ele>
        <time>2023-11-26T07:46:16Z</time>
      </trkpt>
      <trkpt lat="45.981935849413276" lon="9.461643006652594">
        <ele>791.79999999999995</ele>
        <time>2023-11-26T07:46:26Z</time>
      </trkpt>
      <trkpt lat="45.981960073113441" lon="9.46165750734508">
        <ele>791.80999999999995</ele>
        <time>2023-11-26T07:46:28Z</time>
      </trkpt>
      <trkpt lat="45.982081526890397" lon="9.461734453216195">
        <ele>792.09000000000003</ele>
        <time>2023-11-26T07:46:39Z</time>
      </trkpt>
      <trkpt lat="45.982118491083384" lon="9.461756413802505">
        <ele>792.45000000000005</ele>
        <time>2023-11-26T07:46:42Z</time>
      </trkpt>
      <trkpt lat="45.982130477204919" lon="9.461766304448247">
        <ele>792.45000000000005</ele>
        <time>2023-11-26T07:46:43Z</time>
      </trkpt>
      <trkpt lat="45.982142798602581" lon="9.461773512884975">
        <ele>792.49000000000001</ele>
        <time>2023-11-26T07:46:44Z</time>
      </trkpt>
      <trkpt lat="45.982155287638307" lon="9.461780553683639">
        <ele>792.45000000000005</ele>
        <time>2023-11-26T07:46:45Z</time>
      </trkpt>
      <trkpt lat="45.982258385047317" lon="9.46182606741786">
        <ele>792.63</ele>
        <time>2023-11-26T07:46:54Z</time>
      </trkpt>
      <trkpt lat="45.982343880459666" lon="9.461812991648912">
        <ele>793.04999999999995</ele>
        <time>2023-11-26T07:47:00Z</time>
      </trkpt>
      <trkpt lat="45.982358464971185" lon="9.461810560896993">
        <ele>793.08000000000004</ele>
        <time>2023-11-26T07:47:01Z</time>
      </trkpt>
      <trkpt lat="45.982374642044306" lon="9.461811985820532">
        <ele>793.17999999999995</ele>
        <time>2023-11-26T07:47:02Z</time>
      </trkpt>
      <trkpt lat="45.982390232384205" lon="9.461813746020198">
        <ele>793.16999999999996</ele>
        <time>2023-11-26T07:47:03Z</time>
      </trkpt>
      <trkpt lat="45.98240414634347" lon="9.461812572553754">
        <ele>793.13999999999999</ele>
        <time>2023-11-26T07:47:04Z</time>
      </trkpt>
      <trkpt lat="45.982417892664671" lon="9.461810477077961">
        <ele>793.24000000000001</ele>
        <time>2023-11-26T07:47:05Z</time>
      </trkpt>
      <trkpt lat="45.982430884614587" lon="9.461809806525707">
        <ele>793.22000000000003</ele>
        <time>2023-11-26T07:47:06Z</time>
      </trkpt>
      <trkpt lat="45.982555104419589" lon="9.461801759898663">
        <ele>793.73000000000002</ele>
        <time>2023-11-26T07:47:16Z</time>
      </trkpt>
      <trkpt lat="45.98271494731307" lon="9.461787678301334">
        <ele>794</ele>
        <time>2023-11-26T07:47:28Z</time>
      </trkpt>
      <trkpt lat="45.982832880690694" lon="9.46176546625793">
        <ele>794.86000000000001</ele>
        <time>2023-11-26T07:47:37Z</time>
      </trkpt>
      <trkpt lat="45.982974451035261" lon="9.461766975000501">
        <ele>795.83000000000004</ele>
        <time>2023-11-26T07:47:48Z</time>
      </trkpt>
      <trkpt lat="45.983069753274322" lon="9.461791701614857">
        <ele>796.65999999999997</ele>
        <time>2023-11-26T07:47:56Z</time>
      </trkpt>
      <trkpt lat="45.983179388567805" lon="9.46183193475008">
        <ele>797.46000000000004</ele>
        <time>2023-11-26T07:48:05Z</time>
      </trkpt>
      <trkpt lat="45.983258010819554" lon="9.461848698556423">
        <ele>798.42999999999995</ele>
        <time>2023-11-26T07:48:12Z</time>
      </trkpt>
      <trkpt lat="45.983272511512041" lon="9.461847608909011">
        <ele>798.42999999999995</ele>
        <time>2023-11-26T07:48:13Z</time>
      </trkpt>
      <trkpt lat="45.983286928385496" lon="9.461850123479962">
        <ele>798.34000000000003</ele>
        <time>2023-11-26T07:48:14Z</time>
      </trkpt>
      <trkpt lat="45.983296316117048" lon="9.461859846487641">
        <ele>798.39999999999998</ele>
        <time>2023-11-26T07:48:15Z</time>
      </trkpt>
      <trkpt lat="45.983317773789167" lon="9.461868228390813">
        <ele>798.62</ele>
        <time>2023-11-26T07:48:17Z</time>
      </trkpt>
      <trkpt lat="45.983330179005861" lon="9.461870240047574">
        <ele>798.72000000000003</ele>
        <time>2023-11-26T07:48:18Z</time>
      </trkpt>
      <trkpt lat="45.983458673581481" lon="9.461894296109676">
        <ele>799.86000000000001</ele>
        <time>2023-11-26T07:48:29Z</time>
      </trkpt>
      <trkpt lat="45.983510725200176" lon="9.461882226169109">
        <ele>800.5</ele>
        <time>2023-11-26T07:48:34Z</time>
      </trkpt>
      <trkpt lat="45.983521202579141" lon="9.46188029833138">
        <ele>800.52999999999997</ele>
        <time>2023-11-26T07:48:35Z</time>
      </trkpt>
      <trkpt lat="45.983576020225883" lon="9.461872335523367">
        <ele>801.08000000000004</ele>
        <time>2023-11-26T07:48:40Z</time>
      </trkpt>
      <trkpt lat="45.98358809016645" lon="9.461868898943067">
        <ele>801.10000000000002</ele>
        <time>2023-11-26T07:48:41Z</time>
      </trkpt>
      <trkpt lat="45.983600579202175" lon="9.46186613291502">
        <ele>801.11000000000001</ele>
        <time>2023-11-26T07:48:42Z</time>
      </trkpt>
      <trkpt lat="45.983613654971123" lon="9.461863785982132">
        <ele>801.01999999999998</ele>
        <time>2023-11-26T07:48:43Z</time>
      </trkpt>
      <trkpt lat="45.983625389635563" lon="9.461863031610847">
        <ele>801</ele>
        <time>2023-11-26T07:48:44Z</time>
      </trkpt>
      <trkpt lat="45.983637291938066" lon="9.46186319924891">
        <ele>801.16999999999996</ele>
        <time>2023-11-26T07:48:45Z</time>
      </trkpt>
      <trkpt lat="45.983648272231221" lon="9.461862277239561">
        <ele>801.17999999999995</ele>
        <time>2023-11-26T07:48:46Z</time>
      </trkpt>
      <trkpt lat="45.983661264181137" lon="9.461861019954085">
        <ele>801.25999999999999</ele>
        <time>2023-11-26T07:48:47Z</time>
      </trkpt>
      <trkpt lat="45.983674842864275" lon="9.461861355230212">
        <ele>801.25999999999999</ele>
        <time>2023-11-26T07:48:48Z</time>
      </trkpt>
      <trkpt lat="45.983814736828208" lon="9.46184802800417">
        <ele>802.19000000000005</ele>
        <time>2023-11-26T07:49:00Z</time>
      </trkpt>
      <trkpt lat="45.983958402648568" lon="9.4618378020823">
        <ele>802.89999999999998</ele>
        <time>2023-11-26T07:49:12Z</time>
      </trkpt>
      <trkpt lat="45.984073067083955" lon="9.461796898394823">
        <ele>803.32000000000005</ele>
        <time>2023-11-26T07:49:23Z</time>
      </trkpt>
      <trkpt lat="45.984083460643888" lon="9.461791031062603">
        <ele>803.38</ele>
        <time>2023-11-26T07:49:24Z</time>
      </trkpt>
      <trkpt lat="45.984094105660915" lon="9.461784744635224">
        <ele>803.61000000000001</ele>
        <time>2023-11-26T07:49:25Z</time>
      </trkpt>
      <trkpt lat="45.98421111702919" lon="9.461691537871957">
        <ele>803.82000000000005</ele>
        <time>2023-11-26T07:49:36Z</time>
      </trkpt>
      <trkpt lat="45.984346233308315" lon="9.461512584239245">
        <ele>804.38</ele>
        <time>2023-11-26T07:49:51Z</time>
      </trkpt>
      <trkpt lat="45.984460646286607" lon="9.461312592029572">
        <ele>804.92999999999995</ele>
        <time>2023-11-26T07:50:06Z</time>
      </trkpt>
      <trkpt lat="45.984470788389444" lon="9.461287697777152">
        <ele>805.30999999999995</ele>
        <time>2023-11-26T07:50:21Z</time>
      </trkpt>
      <trkpt lat="45.984464921057224" lon="9.461279734969139">
        <ele>805.91999999999996</ele>
        <time>2023-11-26T07:50:45Z</time>
      </trkpt>
      <trkpt lat="45.984461233019829" lon="9.461280656978488">
        <ele>805.34000000000003</ele>
        <time>2023-11-26T07:51:18Z</time>
      </trkpt>
      <trkpt lat="45.984460478648543" lon="9.461280573159456">
        <ele>806.55999999999995</ele>
        <time>2023-11-26T07:51:21Z</time>
      </trkpt>
      <trkpt lat="45.984464753419161" lon="9.46127881295979">
        <ele>806.63</ele>
        <time>2023-11-26T07:51:47Z</time>
      </trkpt>
      <trkpt lat="45.984460143372416" lon="9.461271017789841">
        <ele>807.37</ele>
        <time>2023-11-26T07:51:59Z</time>
      </trkpt>
      <trkpt lat="45.984466597437859" lon="9.461267916485667">
        <ele>807.04999999999995</ele>
        <time>2023-11-26T07:52:26Z</time>
      </trkpt>
      <trkpt lat="45.984480176120996" lon="9.461260372772813">
        <ele>807.09000000000003</ele>
        <time>2023-11-26T07:52:47Z</time>
      </trkpt>
      <trkpt lat="45.984484618529677" lon="9.461261797696352">
        <ele>807.76999999999998</ele>
        <time>2023-11-26T07:52:52Z</time>
      </trkpt>
      <trkpt lat="45.984495766460896" lon="9.461266994476318">
        <ele>807.5</ele>
        <time>2023-11-26T07:53:11Z</time>
      </trkpt>
      <trkpt lat="45.984496856108308" lon="9.461267665028572">
        <ele>807.88999999999999</ele>
        <time>2023-11-26T07:53:33Z</time>
      </trkpt>
      <trkpt lat="45.984499203041196" lon="9.461266910657287">
        <ele>808.45000000000005</ele>
        <time>2023-11-26T07:53:58Z</time>
      </trkpt>
      <trkpt lat="45.984551338478923" lon="9.461274202913046">
        <ele>809.44000000000005</ele>
        <time>2023-11-26T07:54:13Z</time>
      </trkpt>
      <trkpt lat="45.984617723152041" lon="9.461298929527402">
        <ele>811.46000000000004</ele>
        <time>2023-11-26T07:54:31Z</time>
      </trkpt>
      <trkpt lat="45.984692489728332" lon="9.461272023618221">
        <ele>814.03999999999996</ele>
        <time>2023-11-26T07:54:46Z</time>
      </trkpt>
      <trkpt lat="45.984772704541683" lon="9.461280573159456">
        <ele>816.36000000000001</ele>
        <time>2023-11-26T07:55:00Z</time>
      </trkpt>
      <trkpt lat="45.984869012609124" lon="9.461291385814548">
        <ele>818.72000000000003</ele>
        <time>2023-11-26T07:55:14Z</time>
      </trkpt>
      <trkpt lat="45.984966075047851" lon="9.461267329752445">
        <ele>820.45000000000005</ele>
        <time>2023-11-26T07:55:26Z</time>
      </trkpt>
      <trkpt lat="45.985078560188413" lon="9.461279064416885">
        <ele>823.38</ele>
        <time>2023-11-26T07:55:45Z</time>
      </trkpt>
      <trkpt lat="45.985167324542999" lon="9.461336815729737">
        <ele>826.00999999999999</ele>
        <time>2023-11-26T07:56:00Z</time>
      </trkpt>
      <trkpt lat="45.985221555456519" lon="9.461363470181823">
        <ele>827.02999999999997</ele>
        <time>2023-11-26T07:56:07Z</time>
      </trkpt>
      <trkpt lat="45.985313504934311" lon="9.461425831541419">
        <ele>829.05999999999995</ele>
        <time>2023-11-26T07:56:20Z</time>
      </trkpt>
      <trkpt lat="45.985359102487564" lon="9.46153094060719">
        <ele>830.47000000000003</ele>
        <time>2023-11-26T07:56:31Z</time>
      </trkpt>
      <trkpt lat="45.985469073057175" lon="9.461544351652265">
        <ele>831.75999999999999</ele>
        <time>2023-11-26T07:56:43Z</time>
      </trkpt>
      <trkpt lat="45.985482148826122" lon="9.46154460310936">
        <ele>831.84000000000003</ele>
        <time>2023-11-26T07:56:44Z</time>
      </trkpt>
      <trkpt lat="45.985581558197737" lon="9.461593553423882">
        <ele>832.44000000000005</ele>
        <time>2023-11-26T07:56:55Z</time>
      </trkpt>
      <trkpt lat="45.985670406371355" lon="9.461599672213197">
        <ele>831.89999999999998</ele>
        <time>2023-11-26T07:57:06Z</time>
      </trkpt>
      <trkpt lat="45.985764116048813" lon="9.461625991389155">
        <ele>830.71000000000004</ele>
        <time>2023-11-26T07:57:18Z</time>
      </trkpt>
      <trkpt lat="45.985830500721931" lon="9.461599923670292">
        <ele>829.71000000000004</ele>
        <time>2023-11-26T07:57:27Z</time>
      </trkpt>
      <trkpt lat="45.985839050263166" lon="9.461587937548757">
        <ele>829.51999999999998</ele>
        <time>2023-11-26T07:57:28Z</time>
      </trkpt>
      <trkpt lat="45.985846593976021" lon="9.461576119065285">
        <ele>829.38999999999999</ele>
        <time>2023-11-26T07:57:29Z</time>
      </trkpt>
      <trkpt lat="45.985932843759656" lon="9.46141074411571">
        <ele>829.86000000000001</ele>
        <time>2023-11-26T07:57:42Z</time>
      </trkpt>
      <trkpt lat="45.985970729961991" lon="9.461268754675984">
        <ele>830.87</ele>
        <time>2023-11-26T07:57:54Z</time>
      </trkpt>
      <trkpt lat="45.985951200127602" lon="9.461200945079327">
        <ele>832.79999999999995</ele>
        <time>2023-11-26T07:58:05Z</time>
      </trkpt>
      <trkpt lat="45.985912475734949" lon="9.461128609254956">
        <ele>835.04999999999995</ele>
        <time>2023-11-26T07:58:17Z</time>
      </trkpt>
      <trkpt lat="45.98595161922276" lon="9.461064906790853">
        <ele>837.19000000000005</ele>
        <time>2023-11-26T07:58:31Z</time>
      </trkpt>
      <trkpt lat="45.98601758480072" lon="9.461091393604875">
        <ele>839.01999999999998</ele>
        <time>2023-11-26T07:58:46Z</time>
      </trkpt>
      <trkpt lat="45.986066786572337" lon="9.461139589548111">
        <ele>840.82000000000005</ele>
        <time>2023-11-26T07:58:58Z</time>
      </trkpt>
      <trkpt lat="45.986131746321917" lon="9.461154090240598">
        <ele>842.54999999999995</ele>
        <time>2023-11-26T07:59:12Z</time>
      </trkpt>
      <trkpt lat="45.986203830689192" lon="9.461185606196523">
        <ele>845.49000000000001</ele>
        <time>2023-11-26T07:59:27Z</time>
      </trkpt>
      <trkpt lat="45.986256133764982" lon="9.461204297840595">
        <ele>847.51999999999998</ele>
        <time>2023-11-26T07:59:39Z</time>
      </trkpt>
      <trkpt lat="45.986319752410054" lon="9.461253583431244">
        <ele>849.61000000000001</ele>
        <time>2023-11-26T07:59:54Z</time>
      </trkpt>
      <trkpt lat="45.98637574352324" lon="9.461303791031241">
        <ele>852.17999999999995</ele>
        <time>2023-11-26T08:00:08Z</time>
      </trkpt>
      <trkpt lat="45.986440451815724" lon="9.461365565657616">
        <ele>854.50999999999999</ele>
        <time>2023-11-26T08:00:22Z</time>
      </trkpt>
      <trkpt lat="45.986506585031748" lon="9.461367661133409">
        <ele>856.5</ele>
        <time>2023-11-26T08:00:35Z</time>
      </trkpt>
      <trkpt lat="45.986590320244431" lon="9.46137017570436">
        <ele>858.73000000000002</ele>
        <time>2023-11-26T08:00:51Z</time>
      </trkpt>
      <trkpt lat="45.986647820100188" lon="9.461366990581155">
        <ele>860.70000000000005</ele>
        <time>2023-11-26T08:01:05Z</time>
      </trkpt>
      <trkpt lat="45.986726358532906" lon="9.461416527628899">
        <ele>863.59000000000003</ele>
        <time>2023-11-26T08:01:24Z</time>
      </trkpt>
      <trkpt lat="45.986786540597677" lon="9.461435135453939">
        <ele>866.39999999999998</ele>
        <time>2023-11-26T08:01:40Z</time>
      </trkpt>
      <trkpt lat="45.986878909170628" lon="9.461446115747094">
        <ele>868.37</ele>
        <time>2023-11-26T08:01:56Z</time>
      </trkpt>
      <trkpt lat="45.986972954124212" lon="9.46147620677948">
        <ele>870.70000000000005</ele>
        <time>2023-11-26T08:02:11Z</time>
      </trkpt>
      <trkpt lat="45.987000362947583" lon="9.461563294753432">
        <ele>873.12</ele>
        <time>2023-11-26T08:02:27Z</time>
      </trkpt>
      <trkpt lat="45.987114021554589" lon="9.461583662778139">
        <ele>878.16999999999996</ele>
        <time>2023-11-26T08:02:57Z</time>
      </trkpt>
      <trkpt lat="45.987091222777963" lon="9.461479475721717">
        <ele>880.05999999999995</ele>
        <time>2023-11-26T08:03:12Z</time>
      </trkpt>
      <trkpt lat="45.987124834209681" lon="9.461474698036909">
        <ele>882.37</ele>
        <time>2023-11-26T08:03:27Z</time>
      </trkpt>
      <trkpt lat="45.987191470339894" lon="9.461490204557777">
        <ele>884.25999999999999</ele>
        <time>2023-11-26T08:03:42Z</time>
      </trkpt>
      <trkpt lat="45.987264225259423" lon="9.461556170135737">
        <ele>886.48000000000002</ele>
        <time>2023-11-26T08:03:58Z</time>
      </trkpt>
      <trkpt lat="45.987345445901155" lon="9.461613921448588">
        <ele>888.70000000000005</ele>
        <time>2023-11-26T08:04:12Z</time>
      </trkpt>
      <trkpt lat="45.987429684028029" lon="9.461678462103009">
        <ele>890.72000000000003</ele>
        <time>2023-11-26T08:04:27Z</time>
      </trkpt>
      <trkpt lat="45.987540995702147" lon="9.46168189868331">
        <ele>893.13</ele>
        <time>2023-11-26T08:04:43Z</time>
      </trkpt>
      <trkpt lat="45.987606961280107" lon="9.461713749915361">
        <ele>895.25</ele>
        <time>2023-11-26T08:05:00Z</time>
      </trkpt>
      <trkpt lat="45.987678039819002" lon="9.461774183437228">
        <ele>897.19000000000005</ele>
        <time>2023-11-26T08:05:17Z</time>
      </trkpt>
      <trkpt lat="45.987777449190617" lon="9.461848782375455">
        <ele>898.88</ele>
        <time>2023-11-26T08:05:35Z</time>
      </trkpt>
      <trkpt lat="45.987869231030345" lon="9.461887087672949">
        <ele>901.57000000000005</ele>
        <time>2023-11-26T08:05:50Z</time>
      </trkpt>
      <trkpt lat="45.987959671765566" lon="9.461950622498989">
        <ele>903.41999999999996</ele>
        <time>2023-11-26T08:06:05Z</time>
      </trkpt>
      <trkpt lat="45.988065032288432" lon="9.46196143515408">
        <ele>904.94000000000005</ele>
        <time>2023-11-26T08:06:21Z</time>
      </trkpt>
      <trkpt lat="45.988187659531832" lon="9.46198926307261">
        <ele>906.62</ele>
        <time>2023-11-26T08:06:37Z</time>
      </trkpt>
      <trkpt lat="45.988280447199941" lon="9.46199999190867">
        <ele>908.14999999999998</ele>
        <time>2023-11-26T08:06:50Z</time>
      </trkpt>
      <trkpt lat="45.988372145220637" lon="9.461997644975781">
        <ele>910.58000000000004</ele>
        <time>2023-11-26T08:07:06Z</time>
      </trkpt>
      <trkpt lat="45.988481864333153" lon="9.462048104032874">
        <ele>912.77999999999997</ele>
        <time>2023-11-26T08:07:21Z</time>
      </trkpt>
      <trkpt lat="45.988595271483064" lon="9.462107196450234">
        <ele>914.25</ele>
        <time>2023-11-26T08:07:37Z</time>
      </trkpt>
      <trkpt lat="45.988732483237982" lon="9.462152794003487">
        <ele>916.25</ele>
        <time>2023-11-26T08:07:52Z</time>
      </trkpt>
      <trkpt lat="45.988824684172869" lon="9.462126391008496">
        <ele>918.47000000000003</ele>
        <time>2023-11-26T08:08:08Z</time>
      </trkpt>
      <trkpt lat="45.988916382193565" lon="9.462130665779114">
        <ele>920.41999999999996</ele>
        <time>2023-11-26T08:08:24Z</time>
      </trkpt>
      <trkpt lat="45.988960890099406" lon="9.462100155651569">
        <ele>923.23000000000002</ele>
        <time>2023-11-26T08:08:40Z</time>
      </trkpt>
      <trkpt lat="45.98902802914381" lon="9.462096132338047">
        <ele>925.25</ele>
        <time>2023-11-26T08:08:56Z</time>
      </trkpt>
      <trkpt lat="45.989107992500067" lon="9.462065789848566">
        <ele>927.38</ele>
        <time>2023-11-26T08:09:12Z</time>
      </trkpt>
      <trkpt lat="45.989167168736458" lon="9.462059754878283">
        <ele>929.52999999999997</ele>
        <time>2023-11-26T08:09:28Z</time>
      </trkpt>
      <trkpt lat="45.989217795431614" lon="9.462062940001488">
        <ele>931.72000000000003</ele>
        <time>2023-11-26T08:09:44Z</time>
      </trkpt>
      <trkpt lat="45.989286275580525" lon="9.462073082104325">
        <ele>934.39999999999998</ele>
        <time>2023-11-26T08:10:00Z</time>
      </trkpt>
      <trkpt lat="45.989387780427933" lon="9.462114069610834">
        <ele>935.45000000000005</ele>
        <time>2023-11-26T08:10:13Z</time>
      </trkpt>
      <trkpt lat="45.989473946392536" lon="9.462164025753737">
        <ele>937.05999999999995</ele>
        <time>2023-11-26T08:10:28Z</time>
      </trkpt>
      <trkpt lat="45.989585509523749" lon="9.462199648842216">
        <ele>938.12</ele>
        <time>2023-11-26T08:10:41Z</time>
      </trkpt>
      <trkpt lat="45.989689193665981" lon="9.462223537266254">
        <ele>939.72000000000003</ele>
        <time>2023-11-26T08:10:56Z</time>
      </trkpt>
      <trkpt lat="45.989810563623905" lon="9.462223621085286">
        <ele>941.44000000000005</ele>
        <time>2023-11-26T08:11:12Z</time>
      </trkpt>
      <trkpt lat="45.989919612184167" lon="9.462254466488957">
        <ele>942.62</ele>
        <time>2023-11-26T08:11:27Z</time>
      </trkpt>
      <trkpt lat="45.990006197243929" lon="9.46223795413971">
        <ele>944.17999999999995</ele>
        <time>2023-11-26T08:11:40Z</time>
      </trkpt>
      <trkpt lat="45.990098146721721" lon="9.462193697690964">
        <ele>946.64999999999998</ele>
        <time>2023-11-26T08:11:55Z</time>
      </trkpt>
      <trkpt lat="45.990170398727059" lon="9.462128402665258">
        <ele>948.69000000000005</ele>
        <time>2023-11-26T08:12:08Z</time>
      </trkpt>
      <trkpt lat="45.990241896361113" lon="9.462082218378782">
        <ele>950.49000000000001</ele>
        <time>2023-11-26T08:12:23Z</time>
      </trkpt>
      <trkpt lat="45.990292355418205" lon="9.462097221985459">
        <ele>951.58000000000004</ele>
        <time>2023-11-26T08:12:33Z</time>
      </trkpt>
      <trkpt lat="45.990357650443912" lon="9.462048271670938">
        <ele>953.70000000000005</ele>
        <time>2023-11-26T08:12:47Z</time>
      </trkpt>
      <trkpt lat="45.99040056578815" lon="9.462020443752408">
        <ele>955.14999999999998</ele>
        <time>2023-11-26T08:13:00Z</time>
      </trkpt>
      <trkpt lat="45.990444486960769" lon="9.461994962766767">
        <ele>956.83000000000004</ele>
        <time>2023-11-26T08:13:12Z</time>
      </trkpt>
      <trkpt lat="45.990522857755423" lon="9.4619414024055">
        <ele>958.15999999999997</ele>
        <time>2023-11-26T08:13:24Z</time>
      </trkpt>
      <trkpt lat="45.990587901324034" lon="9.461892787367106">
        <ele>960.54999999999995</ele>
        <time>2023-11-26T08:13:39Z</time>
      </trkpt>
      <trkpt lat="45.990602821111679" lon="9.461826235055924">
        <ele>962.97000000000003</ele>
        <time>2023-11-26T08:13:56Z</time>
      </trkpt>
      <trkpt lat="45.990651771426201" lon="9.461781727150083">
        <ele>965.19000000000005</ele>
        <time>2023-11-26T08:14:10Z</time>
      </trkpt>
      <trkpt lat="45.990700386464596" lon="9.461729759350419">
        <ele>967.58000000000004</ele>
        <time>2023-11-26T08:14:26Z</time>
      </trkpt>
      <trkpt lat="45.990749420598149" lon="9.461683239787817">
        <ele>969.63</ele>
        <time>2023-11-26T08:14:38Z</time>
      </trkpt>
      <trkpt lat="45.990812871605158" lon="9.461645605042577">
        <ele>972.09000000000003</ele>
        <time>2023-11-26T08:14:55Z</time>
      </trkpt>
      <trkpt lat="45.990840783342719" lon="9.461594810709357">
        <ele>974.36000000000001</ele>
        <time>2023-11-26T08:15:10Z</time>
      </trkpt>
      <trkpt lat="45.990822678431869" lon="9.461558097973466">
        <ele>976.53999999999996</ele>
        <time>2023-11-26T08:15:21Z</time>
      </trkpt>
      <trkpt lat="45.99074556492269" lon="9.461516607552767">
        <ele>978.21000000000004</ele>
        <time>2023-11-26T08:15:36Z</time>
      </trkpt>
      <trkpt lat="45.990722933784127" lon="9.461458269506693">
        <ele>980.75</ele>
        <time>2023-11-26T08:15:54Z</time>
      </trkpt>
      <trkpt lat="45.990789318457246" lon="9.461440080776811">
        <ele>982.34000000000003</ele>
        <time>2023-11-26T08:16:07Z</time>
      </trkpt>
      <trkpt lat="45.990941114723682" lon="9.461430190131068">
        <ele>984.17999999999995</ele>
        <time>2023-11-26T08:16:24Z</time>
      </trkpt>
      <trkpt lat="45.991055946797132" lon="9.461391298100352">
        <ele>985.41999999999996</ele>
        <time>2023-11-26T08:16:36Z</time>
      </trkpt>
      <trkpt lat="45.991070531308651" lon="9.461369086056948">
        <ele>985.75</ele>
        <time>2023-11-26T08:16:40Z</time>
      </trkpt>
      <trkpt lat="45.991242527961731" lon="9.461391046643257">
        <ele>987.55999999999995</ele>
        <time>2023-11-26T08:16:57Z</time>
      </trkpt>
      <trkpt lat="45.991375213488936" lon="9.461404290050268">
        <ele>988.87</ele>
        <time>2023-11-26T08:17:10Z</time>
      </trkpt>
      <trkpt lat="45.991493817418814" lon="9.461438236758113">
        <ele>990.34000000000003</ele>
        <time>2023-11-26T08:17:24Z</time>
      </trkpt>
      <trkpt lat="45.991607559844851" lon="9.461487270891666">
        <ele>991.74000000000001</ele>
        <time>2023-11-26T08:17:38Z</time>
      </trkpt>
      <trkpt lat="45.991730438545346" lon="9.461569162085652">
        <ele>993.58000000000004</ele>
        <time>2023-11-26T08:17:53Z</time>
      </trkpt>
      <trkpt lat="45.991837307810783" lon="9.461616016924381">
        <ele>995.44000000000005</ele>
        <time>2023-11-26T08:18:08Z</time>
      </trkpt>
      <trkpt lat="45.991962281987071" lon="9.46159740909934">
        <ele>997.25</ele>
        <time>2023-11-26T08:18:23Z</time>
      </trkpt>
      <trkpt lat="45.992071498185396" lon="9.461549632251263">
        <ele>999.42999999999995</ele>
        <time>2023-11-26T08:18:37Z</time>
      </trkpt>
      <trkpt lat="45.992168476805091" lon="9.46145567111671">
        <ele>1001.59</ele>
        <time>2023-11-26T08:18:51Z</time>
      </trkpt>
      <trkpt lat="45.992180546745658" lon="9.461439745500684">
        <ele>1002</ele>
        <time>2023-11-26T08:18:53Z</time>
      </trkpt>
      <trkpt lat="45.992215415462852" lon="9.461398590356112">
        <ele>1002.71</ele>
        <time>2023-11-26T08:18:58Z</time>
      </trkpt>
      <trkpt lat="45.992252128198743" lon="9.46131594479084">
        <ele>1003.76</ele>
        <time>2023-11-26T08:19:05Z</time>
      </trkpt>
      <trkpt lat="45.992298144847155" lon="9.461207818239927">
        <ele>1005.16</ele>
        <time>2023-11-26T08:19:15Z</time>
      </trkpt>
      <trkpt lat="45.992330918088555" lon="9.461027272045612">
        <ele>1007.14</ele>
        <time>2023-11-26T08:19:28Z</time>
      </trkpt>
      <trkpt lat="45.992360087111592" lon="9.46090498007834">
        <ele>1008.83</ele>
        <time>2023-11-26T08:19:38Z</time>
      </trkpt>
      <trkpt lat="45.992420185357332" lon="9.460765924304724">
        <ele>1010.55</ele>
        <time>2023-11-26T08:19:51Z</time>
      </trkpt>
      <trkpt lat="45.99249579012394" lon="9.460679506883025">
        <ele>1012.45</ele>
        <time>2023-11-26T08:20:03Z</time>
      </trkpt>
      <trkpt lat="45.99259402602911" lon="9.460639106109738">
        <ele>1014.2</ele>
        <time>2023-11-26T08:20:14Z</time>
      </trkpt>
      <trkpt lat="45.992706092074513" lon="9.460620079189539">
        <ele>1016.04</ele>
        <time>2023-11-26T08:20:27Z</time>
      </trkpt>
      <trkpt lat="45.99282612092793" lon="9.460608847439289">
        <ele>1017.24</ele>
        <time>2023-11-26T08:20:39Z</time>
      </trkpt>
      <trkpt lat="45.992951011285186" lon="9.460598034784198">
        <ele>1018.73</ele>
        <time>2023-11-26T08:20:51Z</time>
      </trkpt>
      <trkpt lat="45.993093755096197" lon="9.460659977048636">
        <ele>1020.14</ele>
        <time>2023-11-26T08:21:04Z</time>
      </trkpt>
      <trkpt lat="45.993181178346276" lon="9.460713034495711">
        <ele>1021.8</ele>
        <time>2023-11-26T08:21:14Z</time>
      </trkpt>
      <trkpt lat="45.993214789777994" lon="9.460722086951137">
        <ele>1022.46</ele>
        <time>2023-11-26T08:21:18Z</time>
      </trkpt>
      <trkpt lat="45.993265751749277" lon="9.460734575986862">
        <ele>1022.95</ele>
        <time>2023-11-26T08:21:23Z</time>
      </trkpt>
      <trkpt lat="45.993361053988338" lon="9.460735330358148">
        <ele>1024.3199999999999</ele>
        <time>2023-11-26T08:21:33Z</time>
      </trkpt>
      <trkpt lat="45.993461553007364" lon="9.460701048374176">
        <ele>1025.79</ele>
        <time>2023-11-26T08:21:45Z</time>
      </trkpt>
      <trkpt lat="45.993555681779981" lon="9.460703395307064">
        <ele>1027.1800000000001</ele>
        <time>2023-11-26T08:21:55Z</time>
      </trkpt>
      <trkpt lat="45.993688786402345" lon="9.460716051980853">
        <ele>1028.97</ele>
        <time>2023-11-26T08:22:08Z</time>
      </trkpt>
      <trkpt lat="45.993794649839401" lon="9.460748992860317">
        <ele>1030.1700000000001</ele>
        <time>2023-11-26T08:22:22Z</time>
      </trkpt>
      <trkpt lat="45.993830356746912" lon="9.460780424997211">
        <ele>1032.77</ele>
        <time>2023-11-26T08:24:26Z</time>
      </trkpt>
      <trkpt lat="45.993848880752921" lon="9.46082778275013">
        <ele>1036.3199999999999</ele>
        <time>2023-11-26T08:26:52Z</time>
      </trkpt>
      <trkpt lat="45.993882995098829" lon="9.460820909589529">
        <ele>1040.29</ele>
        <time>2023-11-26T08:30:01Z</time>
      </trkpt>
      <trkpt lat="45.993883330374956" lon="9.460820993408561">
        <ele>1040.5699999999999</ele>
        <time>2023-11-26T08:30:02Z</time>
      </trkpt>
      <trkpt lat="45.99388743750751" lon="9.46082191541791">
        <ele>1043.72</ele>
        <time>2023-11-26T08:30:15Z</time>
      </trkpt>
      <trkpt lat="45.993903782218695" lon="9.460862148553133">
        <ele>1046.79</ele>
        <time>2023-11-26T08:31:08Z</time>
      </trkpt>
      <trkpt lat="45.993876373395324" lon="9.460843373090029">
        <ele>1045.3199999999999</ele>
        <time>2023-11-26T08:31:13Z</time>
      </trkpt>
      <trkpt lat="45.993873104453087" lon="9.460836416110396">
        <ele>1046.3399999999999</ele>
        <time>2023-11-26T08:31:20Z</time>
      </trkpt>
      <trkpt lat="45.993888024240732" lon="9.460838092491031">
        <ele>1046.51</ele>
        <time>2023-11-26T08:31:31Z</time>
      </trkpt>
      <trkpt lat="45.993894059211016" lon="9.460831470787525">
        <ele>1046.47</ele>
        <time>2023-11-26T08:31:36Z</time>
      </trkpt>
      <trkpt lat="45.993924820795655" lon="9.460875308141112">
        <ele>1046.54</ele>
        <time>2023-11-26T08:31:44Z</time>
      </trkpt>
      <trkpt lat="45.993959773331881" lon="9.460918307304382">
        <ele>1047.3900000000001</ele>
        <time>2023-11-26T08:31:56Z</time>
      </trkpt>
      <trkpt lat="45.993986176326871" lon="9.460919983685017">
        <ele>1047.6800000000001</ele>
        <time>2023-11-26T08:32:01Z</time>
      </trkpt>
      <trkpt lat="45.994006879627705" lon="9.460929371416569">
        <ele>1047.77</ele>
        <time>2023-11-26T08:32:07Z</time>
      </trkpt>
      <trkpt lat="45.994044514372945" lon="9.460925264284015">
        <ele>1047.8900000000001</ele>
        <time>2023-11-26T08:32:14Z</time>
      </trkpt>
      <trkpt lat="45.994052225723863" lon="9.460926940664649">
        <ele>1048.01</ele>
        <time>2023-11-26T08:32:15Z</time>
      </trkpt>
      <trkpt lat="45.994109390303493" lon="9.460945883765817">
        <ele>1048.5</ele>
        <time>2023-11-26T08:32:21Z</time>
      </trkpt>
      <trkpt lat="45.994119867682457" lon="9.460955020040274">
        <ele>1049.28</ele>
        <time>2023-11-26T08:32:25Z</time>
      </trkpt>
      <trkpt lat="45.994138056412339" lon="9.460955858230591">
        <ele>1049.49</ele>
        <time>2023-11-26T08:32:26Z</time>
      </trkpt>
      <trkpt lat="45.994158089160919" lon="9.460953176021576">
        <ele>1049.4000000000001</ele>
        <time>2023-11-26T08:32:28Z</time>
      </trkpt>
      <trkpt lat="45.994157502427697" lon="9.460956361144781">
        <ele>1049.72</ele>
        <time>2023-11-26T08:32:29Z</time>
      </trkpt>
      <trkpt lat="45.99423042498529" lon="9.460980584844947">
        <ele>1050.6300000000001</ele>
        <time>2023-11-26T08:32:38Z</time>
      </trkpt>
      <trkpt lat="45.994240567088127" lon="9.460981758311391">
        <ele>1050.5999999999999</ele>
        <time>2023-11-26T08:32:39Z</time>
      </trkpt>
      <trkpt lat="45.994278537109494" lon="9.460977399721742">
        <ele>1051.3399999999999</ele>
        <time>2023-11-26T08:32:44Z</time>
      </trkpt>
      <trkpt lat="45.994338132441044" lon="9.460973963141441">
        <ele>1052.29</ele>
        <time>2023-11-26T08:32:53Z</time>
      </trkpt>
      <trkpt lat="45.994412815198302" lon="9.460958288982511">
        <ele>1053.54</ele>
        <time>2023-11-26T08:33:05Z</time>
      </trkpt>
      <trkpt lat="45.994460005313158" lon="9.460953259840608">
        <ele>1054.71</ele>
        <time>2023-11-26T08:33:11Z</time>
      </trkpt>
      <trkpt lat="45.994481630623341" lon="9.460948901250958">
        <ele>1054.6600000000001</ele>
        <time>2023-11-26T08:33:13Z</time>
      </trkpt>
      <trkpt lat="45.994563270360231" lon="9.460916547104716">
        <ele>1055.9000000000001</ele>
        <time>2023-11-26T08:33:21Z</time>
      </trkpt>
      <trkpt lat="45.994597803801298" lon="9.460891569033265">
        <ele>1056.6199999999999</ele>
        <time>2023-11-26T08:33:26Z</time>
      </trkpt>
      <trkpt lat="45.994616411626339" lon="9.46089081466198">
        <ele>1056.8299999999999</ele>
        <time>2023-11-26T08:33:27Z</time>
      </trkpt>
      <trkpt lat="45.994634516537189" lon="9.460887042805553">
        <ele>1056.8800000000001</ele>
        <time>2023-11-26T08:33:28Z</time>
      </trkpt>
      <trkpt lat="45.994634013622999" lon="9.460875056684017">
        <ele>1056.8299999999999</ele>
        <time>2023-11-26T08:33:29Z</time>
      </trkpt>
      <trkpt lat="45.994676006957889" lon="9.460835577920079">
        <ele>1057.5899999999999</ele>
        <time>2023-11-26T08:33:34Z</time>
      </trkpt>
      <trkpt lat="45.994686735793948" lon="9.460825603455305">
        <ele>1057.8399999999999</ele>
        <time>2023-11-26T08:33:35Z</time>
      </trkpt>
      <trkpt lat="45.994685227051377" lon="9.460817389190197">
        <ele>1057.99</ele>
        <time>2023-11-26T08:33:36Z</time>
      </trkpt>
      <trkpt lat="45.994724873453379" lon="9.460790064185858">
        <ele>1058.4100000000001</ele>
        <time>2023-11-26T08:33:40Z</time>
      </trkpt>
      <trkpt lat="45.99473811686039" lon="9.460775479674339">
        <ele>1058.4100000000001</ele>
        <time>2023-11-26T08:33:42Z</time>
      </trkpt>
      <trkpt lat="45.994777847081423" lon="9.460748573765159">
        <ele>1058.9300000000001</ele>
        <time>2023-11-26T08:33:47Z</time>
      </trkpt>
      <trkpt lat="45.99483534693718" lon="9.460732229053974">
        <ele>1059.6300000000001</ele>
        <time>2023-11-26T08:33:53Z</time>
      </trkpt>
      <trkpt lat="45.994885722175241" lon="9.460722841322422">
        <ele>1060.26</ele>
        <time>2023-11-26T08:33:59Z</time>
      </trkpt>
      <trkpt lat="45.994923608377576" lon="9.460722422227264">
        <ele>1060.6600000000001</ele>
        <time>2023-11-26T08:34:03Z</time>
      </trkpt>
      <trkpt lat="45.994943808764219" lon="9.460726948454976">
        <ele>1060.9000000000001</ele>
        <time>2023-11-26T08:34:05Z</time>
      </trkpt>
      <trkpt lat="45.995033830404282" lon="9.460741281509399">
        <ele>1062.0599999999999</ele>
        <time>2023-11-26T08:34:14Z</time>
      </trkpt>
      <trkpt lat="45.99511438049376" lon="9.460753686726093">
        <ele>1062.8199999999999</ele>
        <time>2023-11-26T08:34:22Z</time>
      </trkpt>
      <trkpt lat="45.995140951126814" lon="9.460754692554474">
        <ele>1063.02</ele>
        <time>2023-11-26T08:34:25Z</time>
      </trkpt>
      <trkpt lat="45.995158720761538" lon="9.460760895162821">
        <ele>1063.0899999999999</ele>
        <time>2023-11-26T08:34:27Z</time>
      </trkpt>
      <trkpt lat="45.995219573378563" lon="9.460777072235942">
        <ele>1064</ele>
        <time>2023-11-26T08:34:35Z</time>
      </trkpt>
      <trkpt lat="45.995290735736489" lon="9.460824094712734">
        <ele>1064.77</ele>
        <time>2023-11-26T08:34:44Z</time>
      </trkpt>
      <trkpt lat="45.99535871297121" lon="9.460878157988191">
        <ele>1065.28</ele>
        <time>2023-11-26T08:34:52Z</time>
      </trkpt>
      <trkpt lat="45.995393497869372" lon="9.460893915966153">
        <ele>1066.02</ele>
        <time>2023-11-26T08:34:56Z</time>
      </trkpt>
      <trkpt lat="45.995448147878051" lon="9.460920402780175">
        <ele>1067.8399999999999</ele>
        <time>2023-11-26T08:35:06Z</time>
      </trkpt>
      <trkpt lat="45.995525429025292" lon="9.460996510460973">
        <ele>1069.97</ele>
        <time>2023-11-26T08:35:17Z</time>
      </trkpt>
      <trkpt lat="45.995608242228627" lon="9.461064487695694">
        <ele>1072.48</ele>
        <time>2023-11-26T08:35:32Z</time>
      </trkpt>
      <trkpt lat="45.995672028511763" lon="9.461104301735759">
        <ele>1074.05</ele>
        <time>2023-11-26T08:35:44Z</time>
      </trkpt>
      <trkpt lat="45.995742352679372" lon="9.461205471307039">
        <ele>1075.96</ele>
        <time>2023-11-26T08:35:55Z</time>
      </trkpt>
      <trkpt lat="45.99579306319356" lon="9.461292056366801">
        <ele>1077.3699999999999</ele>
        <time>2023-11-26T08:36:04Z</time>
      </trkpt>
      <trkpt lat="45.995860118418932" lon="9.461402697488666">
        <ele>1078.77</ele>
        <time>2023-11-26T08:36:14Z</time>
      </trkpt>
      <trkpt lat="45.995938740670681" lon="9.461510572582483">
        <ele>1080.3800000000001</ele>
        <time>2023-11-26T08:36:26Z</time>
      </trkpt>
      <trkpt lat="45.995996408164501" lon="9.461609227582812">
        <ele>1081.8499999999999</ele>
        <time>2023-11-26T08:36:38Z</time>
      </trkpt>
      <trkpt lat="45.996063463389874" lon="9.461677623912692">
        <ele>1083.6600000000001</ele>
        <time>2023-11-26T08:36:50Z</time>
      </trkpt>
      <trkpt lat="45.996169243007898" lon="9.461767729371786">
        <ele>1085.8800000000001</ele>
        <time>2023-11-26T08:37:04Z</time>
      </trkpt>
      <trkpt lat="45.996305700391531" lon="9.461864372715354">
        <ele>1087.21</ele>
        <time>2023-11-26T08:37:19Z</time>
      </trkpt>
      <trkpt lat="45.996447186917067" lon="9.461909886449575">
        <ele>1087.9200000000001</ele>
        <time>2023-11-26T08:37:34Z</time>
      </trkpt>
      <trkpt lat="45.996544416993856" lon="9.461983814835548">
        <ele>1089.4200000000001</ele>
        <time>2023-11-26T08:37:46Z</time>
      </trkpt>
      <trkpt lat="45.996691770851612" lon="9.462023712694645">
        <ele>1091.6300000000001</ele>
        <time>2023-11-26T08:38:00Z</time>
      </trkpt>
      <trkpt lat="45.996796125546098" lon="9.462072160094976">
        <ele>1094.6900000000001</ele>
        <time>2023-11-26T08:38:14Z</time>
      </trkpt>
      <trkpt lat="45.996892852708697" lon="9.462161092087627">
        <ele>1097.01</ele>
        <time>2023-11-26T08:38:30Z</time>
      </trkpt>
      <trkpt lat="45.996979018673301" lon="9.462229739874601">
        <ele>1098.5699999999999</ele>
        <time>2023-11-26T08:38:43Z</time>
      </trkpt>
      <trkpt lat="45.997027549892664" lon="9.462326467037201">
        <ele>1100.2</ele>
        <time>2023-11-26T08:38:53Z</time>
      </trkpt>
      <trkpt lat="45.997054204344749" lon="9.462414225563407">
        <ele>1101.25</ele>
        <time>2023-11-26T08:39:01Z</time>
      </trkpt>
      <trkpt lat="45.997059820219874" lon="9.462443143129349">
        <ele>1101.3599999999999</ele>
        <time>2023-11-26T08:39:03Z</time>
      </trkpt>
      <trkpt lat="45.997121930122375" lon="9.462562333792448">
        <ele>1101.79</ele>
        <time>2023-11-26T08:39:13Z</time>
      </trkpt>
      <trkpt lat="45.997163252905011" lon="9.462661826983094">
        <ele>1102.51</ele>
        <time>2023-11-26T08:39:22Z</time>
      </trkpt>
      <trkpt lat="45.997195271775126" lon="9.462729636579752">
        <ele>1102.9300000000001</ele>
        <time>2023-11-26T08:39:27Z</time>
      </trkpt>
      <trkpt lat="45.99726777523756" lon="9.46281848475337">
        <ele>1104.3399999999999</ele>
        <time>2023-11-26T08:39:39Z</time>
      </trkpt>
      <trkpt lat="45.997339775785804" lon="9.462889563292265">
        <ele>1106.4400000000001</ele>
        <time>2023-11-26T08:39:52Z</time>
      </trkpt>
      <trkpt lat="45.997428372502327" lon="9.462967179715633">
        <ele>1107.8099999999999</ele>
        <time>2023-11-26T08:40:04Z</time>
      </trkpt>
      <trkpt lat="45.997476987540722" lon="9.463022835552692">
        <ele>1108.3199999999999</ele>
        <time>2023-11-26T08:40:11Z</time>
      </trkpt>
      <trkpt lat="45.997483022511005" lon="9.463034737855196">
        <ele>1108.4200000000001</ele>
        <time>2023-11-26T08:40:12Z</time>
      </trkpt>
      <trkpt lat="45.997487800195813" lon="9.463047562167049">
        <ele>1108.46</ele>
        <time>2023-11-26T08:40:13Z</time>
      </trkpt>
      <trkpt lat="45.997491991147399" lon="9.46306080557406">
        <ele>1108.47</ele>
        <time>2023-11-26T08:40:14Z</time>
      </trkpt>
      <trkpt lat="45.997495008632541" lon="9.463198771700263">
        <ele>1109.3299999999999</ele>
        <time>2023-11-26T08:40:25Z</time>
      </trkpt>
      <trkpt lat="45.99751990288496" lon="9.463346879929304">
        <ele>1110.4000000000001</ele>
        <time>2023-11-26T08:40:37Z</time>
      </trkpt>
      <trkpt lat="45.99755653180182" lon="9.463433297351003">
        <ele>1111.3399999999999</ele>
        <time>2023-11-26T08:40:45Z</time>
      </trkpt>
      <trkpt lat="45.997596429660916" lon="9.463474452495575">
        <ele>1111.75</ele>
        <time>2023-11-26T08:40:50Z</time>
      </trkpt>
      <trkpt lat="45.997658874839544" lon="9.46354310028255">
        <ele>1112.5899999999999</ele>
        <time>2023-11-26T08:40:59Z</time>
      </trkpt>
      <trkpt lat="45.997719895094633" lon="9.463637815788388">
        <ele>1114.1600000000001</ele>
        <time>2023-11-26T08:41:10Z</time>
      </trkpt>
      <trkpt lat="45.997798182070255" lon="9.463779553771019">
        <ele>1114.6800000000001</ele>
        <time>2023-11-26T08:41:23Z</time>
      </trkpt>
      <trkpt lat="45.99788342602551" lon="9.463916514068842">
        <ele>1116.4200000000001</ele>
        <time>2023-11-26T08:41:37Z</time>
      </trkpt>
      <trkpt lat="45.998001946136355" lon="9.464032603427768">
        <ele>1117.6600000000001</ele>
        <time>2023-11-26T08:41:52Z</time>
      </trkpt>
      <trkpt lat="45.998083837330341" lon="9.464194374158979">
        <ele>1118.0899999999999</ele>
        <time>2023-11-26T08:42:06Z</time>
      </trkpt>
      <trkpt lat="45.998116442933679" lon="9.464276265352964">
        <ele>1118.6199999999999</ele>
        <time>2023-11-26T08:42:12Z</time>
      </trkpt>
      <trkpt lat="45.99816681817174" lon="9.464325299486518">
        <ele>1118.8800000000001</ele>
        <time>2023-11-26T08:42:17Z</time>
      </trkpt>
      <trkpt lat="45.998182240873575" lon="9.464333849027753">
        <ele>1118.9300000000001</ele>
        <time>2023-11-26T08:42:18Z</time>
      </trkpt>
      <trkpt lat="45.998192550614476" lon="9.46434591896832">
        <ele>1119.05</ele>
        <time>2023-11-26T08:42:19Z</time>
      </trkpt>
      <trkpt lat="45.998205039650202" lon="9.464363604784012">
        <ele>1119.26</ele>
        <time>2023-11-26T08:42:21Z</time>
      </trkpt>
      <trkpt lat="45.998212080448866" lon="9.464375339448452">
        <ele>1119.3699999999999</ele>
        <time>2023-11-26T08:42:22Z</time>
      </trkpt>
      <trkpt lat="45.998299168422818" lon="9.464471396058798">
        <ele>1120.6500000000001</ele>
        <time>2023-11-26T08:42:36Z</time>
      </trkpt>
      <trkpt lat="45.998315596953034" lon="9.464471815153956">
        <ele>1120.77</ele>
        <time>2023-11-26T08:42:38Z</time>
      </trkpt>
      <trkpt lat="45.998342083767056" lon="9.464482208713889">
        <ele>1121.01</ele>
        <time>2023-11-26T08:42:41Z</time>
      </trkpt>
      <trkpt lat="45.998457251116633" lon="9.464481202885509">
        <ele>1123.1800000000001</ele>
        <time>2023-11-26T08:42:55Z</time>
      </trkpt>
      <trkpt lat="45.998509805649519" lon="9.464484974741936">
        <ele>1125.02</ele>
        <time>2023-11-26T08:43:06Z</time>
      </trkpt>
      <trkpt lat="45.99852304905653" lon="9.464485058560967">
        <ele>1125.0699999999999</ele>
        <time>2023-11-26T08:43:10Z</time>
      </trkpt>
      <trkpt lat="45.998606784269214" lon="9.464533003047109">
        <ele>1126.0699999999999</ele>
        <time>2023-11-26T08:43:21Z</time>
      </trkpt>
      <trkpt lat="45.998700745403767" lon="9.46454431861639">
        <ele>1128.3699999999999</ele>
        <time>2023-11-26T08:43:33Z</time>
      </trkpt>
      <trkpt lat="45.998741984367371" lon="9.464558819308877">
        <ele>1129.01</ele>
        <time>2023-11-26T08:43:38Z</time>
      </trkpt>
      <trkpt lat="45.998816080391407" lon="9.46458974853158">
        <ele>1130.27</ele>
        <time>2023-11-26T08:43:48Z</time>
      </trkpt>
      <trkpt lat="45.998908448964357" lon="9.464606512337923">
        <ele>1131.7</ele>
        <time>2023-11-26T08:44:00Z</time>
      </trkpt>
      <trkpt lat="45.998991513624787" lon="9.464606260880828">
        <ele>1133.2</ele>
        <time>2023-11-26T08:44:10Z</time>
      </trkpt>
      <trkpt lat="45.999070974066854" lon="9.46460047736764">
        <ele>1135.6300000000001</ele>
        <time>2023-11-26T08:44:22Z</time>
      </trkpt>
      <trkpt lat="45.999137358739972" lon="9.464619420468807">
        <ele>1137.1400000000001</ele>
        <time>2023-11-26T08:44:33Z</time>
      </trkpt>
      <trkpt lat="45.999213550239801" lon="9.464663593098521">
        <ele>1138.1199999999999</ele>
        <time>2023-11-26T08:44:44Z</time>
      </trkpt>
      <trkpt lat="45.999287562444806" lon="9.464682787656784">
        <ele>1139.72</ele>
        <time>2023-11-26T08:44:56Z</time>
      </trkpt>
      <trkpt lat="45.999370291829109" lon="9.464760404080153">
        <ele>1141.3099999999999</ele>
        <time>2023-11-26T08:45:09Z</time>
      </trkpt>
      <trkpt lat="45.999425193294883" lon="9.464801056310535">
        <ele>1142.8399999999999</ele>
        <time>2023-11-26T08:45:17Z</time>
      </trkpt>
      <trkpt lat="45.999500714242458" lon="9.464851850643754">
        <ele>1144.25</ele>
        <time>2023-11-26T08:45:28Z</time>
      </trkpt>
      <trkpt lat="45.999516304582357" lon="9.464901052415371">
        <ele>1144.24</ele>
        <time>2023-11-26T08:45:31Z</time>
      </trkpt>
      <trkpt lat="45.999530302360654" lon="9.464930891990662">
        <ele>1144.21</ele>
        <time>2023-11-26T08:45:33Z</time>
      </trkpt>
      <trkpt lat="45.999588472768664" lon="9.465011693537235">
        <ele>1144.27</ele>
        <time>2023-11-26T08:45:42Z</time>
      </trkpt>
      <trkpt lat="45.999590065330267" lon="9.465026780962944">
        <ele>1144.21</ele>
        <time>2023-11-26T08:45:43Z</time>
      </trkpt>
      <trkpt lat="45.999610684812069" lon="9.465109594166279">
        <ele>1144.28</ele>
        <time>2023-11-26T08:45:49Z</time>
      </trkpt>
      <trkpt lat="45.999691989272833" lon="9.465172123163939">
        <ele>1145.5999999999999</ele>
        <time>2023-11-26T08:45:59Z</time>
      </trkpt>
      <trkpt lat="45.999757032841444" lon="9.465233813971281">
        <ele>1146.73</ele>
        <time>2023-11-26T08:46:09Z</time>
      </trkpt>
      <trkpt lat="45.999818053096533" lon="9.465255187824369">
        <ele>1148.3099999999999</ele>
        <time>2023-11-26T08:46:18Z</time>
      </trkpt>
      <trkpt lat="45.999866751953959" lon="9.465324422344565">
        <ele>1150.3299999999999</ele>
        <time>2023-11-26T08:46:29Z</time>
      </trkpt>
      <trkpt lat="45.999911008402705" lon="9.465397763997316">
        <ele>1150.73</ele>
        <time>2023-11-26T08:46:37Z</time>
      </trkpt>
      <trkpt lat="45.999925173819065" lon="9.465417126193643">
        <ele>1150.6600000000001</ele>
        <time>2023-11-26T08:46:39Z</time>
      </trkpt>
      <trkpt lat="45.999999437481165" lon="9.46548443287611">
        <ele>1151.7</ele>
        <time>2023-11-26T08:46:50Z</time>
      </trkpt>
      <trkpt lat="46.000066995620728" lon="9.465517792850733">
        <ele>1153.3499999999999</ele>
        <time>2023-11-26T08:47:00Z</time>
      </trkpt>
      <trkpt lat="46.000125417485833" lon="9.465581495314837">
        <ele>1154.4100000000001</ele>
        <time>2023-11-26T08:47:09Z</time>
      </trkpt>
      <trkpt lat="46.000198759138584" lon="9.465632541105151">
        <ele>1156.72</ele>
        <time>2023-11-26T08:47:21Z</time>
      </trkpt>
      <trkpt lat="46.000270089134574" lon="9.465688448399305">
        <ele>1158.0699999999999</ele>
        <time>2023-11-26T08:47:32Z</time>
      </trkpt>
      <trkpt lat="46.000334629788995" lon="9.465790539979935">
        <ele>1158.74</ele>
        <time>2023-11-26T08:47:44Z</time>
      </trkpt>
      <trkpt lat="46.000387603417039" lon="9.465868324041367">
        <ele>1160.1099999999999</ele>
        <time>2023-11-26T08:47:54Z</time>
      </trkpt>
      <trkpt lat="46.000447869300842" lon="9.465941833332181">
        <ele>1161.1099999999999</ele>
        <time>2023-11-26T08:48:05Z</time>
      </trkpt>
      <trkpt lat="46.000535124912858" lon="9.465947868302465">
        <ele>1162.6099999999999</ele>
        <time>2023-11-26T08:48:17Z</time>
      </trkpt>
      <trkpt lat="46.000600168481469" lon="9.466012492775917">
        <ele>1164.4000000000001</ele>
        <time>2023-11-26T08:48:30Z</time>
      </trkpt>
      <trkpt lat="46.000683903694153" lon="9.466055072844029">
        <ele>1166.1700000000001</ele>
        <time>2023-11-26T08:48:43Z</time>
      </trkpt>
      <trkpt lat="46.000779289752245" lon="9.466085080057383">
        <ele>1167.95</ele>
        <time>2023-11-26T08:48:58Z</time>
      </trkpt>
      <trkpt lat="46.00084793753922" lon="9.466130174696446">
        <ele>1169.5699999999999</ele>
        <time>2023-11-26T08:49:09Z</time>
      </trkpt>
      <trkpt lat="46.000928655266762" lon="9.466152302920818">
        <ele>1171.23</ele>
        <time>2023-11-26T08:49:20Z</time>
      </trkpt>
      <trkpt lat="46.000971486791968" lon="9.466163534671068">
        <ele>1172.25</ele>
        <time>2023-11-26T08:49:26Z</time>
      </trkpt>
      <trkpt lat="46.000980958342552" lon="9.466168647632003">
        <ele>1172.5699999999999</ele>
        <time>2023-11-26T08:49:27Z</time>
      </trkpt>
      <trkpt lat="46.001040637493134" lon="9.466167390346527">
        <ele>1173.97</ele>
        <time>2023-11-26T08:49:36Z</time>
      </trkpt>
      <trkpt lat="46.001094868406653" lon="9.466166635975242">
        <ele>1175.5999999999999</ele>
        <time>2023-11-26T08:49:46Z</time>
      </trkpt>
      <trkpt lat="46.001142729073763" lon="9.466143166646361">
        <ele>1177.02</ele>
        <time>2023-11-26T08:49:55Z</time>
      </trkpt>
      <trkpt lat="46.001217244192958" lon="9.466113829985261">
        <ele>1178.5599999999999</ele>
        <time>2023-11-26T08:50:06Z</time>
      </trkpt>
      <trkpt lat="46.001287316903472" lon="9.466111985966563">
        <ele>1180.24</ele>
        <time>2023-11-26T08:50:16Z</time>
      </trkpt>
      <trkpt lat="46.001355797052383" lon="9.466082314029336">
        <ele>1182.1500000000001</ele>
        <time>2023-11-26T08:50:27Z</time>
      </trkpt>
      <trkpt lat="46.001407345756888" lon="9.466097736731172">
        <ele>1184.0599999999999</ele>
        <time>2023-11-26T08:50:37Z</time>
      </trkpt>
      <trkpt lat="46.001482782885432" lon="9.466126319020987">
        <ele>1185.6900000000001</ele>
        <time>2023-11-26T08:50:49Z</time>
      </trkpt>
      <trkpt lat="46.001534750685096" lon="9.466144172474742">
        <ele>1186.8800000000001</ele>
        <time>2023-11-26T08:50:59Z</time>
      </trkpt>
      <trkpt lat="46.001597531139851" lon="9.46615724824369">
        <ele>1189.1099999999999</ele>
        <time>2023-11-26T08:51:11Z</time>
      </trkpt>
      <trkpt lat="46.001649918034673" lon="9.466228159144521">
        <ele>1190.22</ele>
        <time>2023-11-26T08:51:21Z</time>
      </trkpt>
      <trkpt lat="46.001665759831667" lon="9.466237798333168">
        <ele>1190.4000000000001</ele>
        <time>2023-11-26T08:51:23Z</time>
      </trkpt>
      <trkpt lat="46.001747231930494" lon="9.466281216591597">
        <ele>1191.29</ele>
        <time>2023-11-26T08:51:34Z</time>
      </trkpt>
      <trkpt lat="46.001790734007955" lon="9.466293957084417">
        <ele>1191.5</ele>
        <time>2023-11-26T08:51:39Z</time>
      </trkpt>
      <trkpt lat="46.001891484484076" lon="9.466324131935835">
        <ele>1191.99</ele>
        <time>2023-11-26T08:51:50Z</time>
      </trkpt>
      <trkpt lat="46.001909086480737" lon="9.466331927105784">
        <ele>1192.3</ele>
        <time>2023-11-26T08:51:52Z</time>
      </trkpt>
      <trkpt lat="46.001952169463038" lon="9.466405687853694">
        <ele>1192.45</ele>
        <time>2023-11-26T08:51:59Z</time>
      </trkpt>
      <trkpt lat="46.001958036795259" lon="9.466418428346515">
        <ele>1192.3499999999999</ele>
        <time>2023-11-26T08:52:00Z</time>
      </trkpt>
      <trkpt lat="46.00200992077589" lon="9.4664968829602">
        <ele>1192.3599999999999</ele>
        <time>2023-11-26T08:52:07Z</time>
      </trkpt>
      <trkpt lat="46.00201821886003" lon="9.46650811471045">
        <ele>1192.52</ele>
        <time>2023-11-26T08:52:08Z</time>
      </trkpt>
      <trkpt lat="46.002035066485405" lon="9.466522950679064">
        <ele>1192.52</ele>
        <time>2023-11-26T08:52:10Z</time>
      </trkpt>
      <trkpt lat="46.002110000699759" lon="9.466584390029311">
        <ele>1193.05</ele>
        <time>2023-11-26T08:52:19Z</time>
      </trkpt>
      <trkpt lat="46.002188455313444" lon="9.466611547395587">
        <ele>1194.21</ele>
        <time>2023-11-26T08:52:28Z</time>
      </trkpt>
      <trkpt lat="46.002275878563523" lon="9.466667287051678">
        <ele>1195.7</ele>
        <time>2023-11-26T08:52:39Z</time>
      </trkpt>
      <trkpt lat="46.002375790849328" lon="9.466699389740825">
        <ele>1197.3499999999999</ele>
        <time>2023-11-26T08:52:53Z</time>
      </trkpt>
      <trkpt lat="46.002447456121445" lon="9.466697126626968">
        <ele>1198.8</ele>
        <time>2023-11-26T08:53:03Z</time>
      </trkpt>
      <trkpt lat="46.002537310123444" lon="9.466718081384897">
        <ele>1200.74</ele>
        <time>2023-11-26T08:53:16Z</time>
      </trkpt>
      <trkpt lat="46.002613333985209" lon="9.46674850769341">
        <ele>1202.5999999999999</ele>
        <time>2023-11-26T08:53:26Z</time>
      </trkpt>
      <trkpt lat="46.002688687294722" lon="9.4667749106884">
        <ele>1204.1900000000001</ele>
        <time>2023-11-26T08:53:37Z</time>
      </trkpt>
      <trkpt lat="46.0027692373842" lon="9.466803409159184">
        <ele>1206.02</ele>
        <time>2023-11-26T08:53:50Z</time>
      </trkpt>
      <trkpt lat="46.002850374206901" lon="9.466868117451668">
        <ele>1206.95</ele>
        <time>2023-11-26T08:54:01Z</time>
      </trkpt>
      <trkpt lat="46.002933271229267" lon="9.466903489083052">
        <ele>1208.48</ele>
        <time>2023-11-26T08:54:12Z</time>
      </trkpt>
      <trkpt lat="46.002953052520752" lon="9.466900220140815">
        <ele>1208.6199999999999</ele>
        <time>2023-11-26T08:54:14Z</time>
      </trkpt>
      <trkpt lat="46.003021029755473" lon="9.466907847672701">
        <ele>1210.0799999999999</ele>
        <time>2023-11-26T08:54:25Z</time>
      </trkpt>
      <trkpt lat="46.003084480762482" lon="9.466928299516439">
        <ele>1211.53</ele>
        <time>2023-11-26T08:54:36Z</time>
      </trkpt>
      <trkpt lat="46.003140890970826" lon="9.466939698904753">
        <ele>1213.03</ele>
        <time>2023-11-26T08:54:46Z</time>
      </trkpt>
      <trkpt lat="46.003203000873327" lon="9.466950930655003">
        <ele>1215.1400000000001</ele>
        <time>2023-11-26T08:54:57Z</time>
      </trkpt>
      <trkpt lat="46.003268882632256" lon="9.466998036950827">
        <ele>1215.23</ele>
        <time>2023-11-26T08:55:08Z</time>
      </trkpt>
      <trkpt lat="46.003335434943438" lon="9.467027373611927">
        <ele>1216.52</ele>
        <time>2023-11-26T08:55:19Z</time>
      </trkpt>
      <trkpt lat="46.003391342237592" lon="9.467015387490392">
        <ele>1217.74</ele>
        <time>2023-11-26T08:55:29Z</time>
      </trkpt>
      <trkpt lat="46.00345772691071" lon="9.466967610642314">
        <ele>1218.76</ele>
        <time>2023-11-26T08:55:39Z</time>
      </trkpt>
      <trkpt lat="46.003529476001859" lon="9.466907847672701">
        <ele>1220.03</ele>
        <time>2023-11-26T08:55:50Z</time>
      </trkpt>
      <trkpt lat="46.003607762977481" lon="9.466922851279378">
        <ele>1221.71</ele>
        <time>2023-11-26T08:56:02Z</time>
      </trkpt>
      <trkpt lat="46.003685127943754" lon="9.46693710051477">
        <ele>1223.01</ele>
        <time>2023-11-26T08:56:12Z</time>
      </trkpt>
      <trkpt lat="46.003778083249927" lon="9.466927126049995">
        <ele>1224.5899999999999</ele>
        <time>2023-11-26T08:56:25Z</time>
      </trkpt>
      <trkpt lat="46.003792248666286" lon="9.466921342536807">
        <ele>1224.8299999999999</ele>
        <time>2023-11-26T08:56:36Z</time>
      </trkpt>
      <trkpt lat="46.003877576440573" lon="9.466914804652333">
        <ele>1227.1099999999999</ele>
        <time>2023-11-26T08:56:49Z</time>
      </trkpt>
      <trkpt lat="46.003946475684643" lon="9.466881947591901">
        <ele>1229.5899999999999</ele>
        <time>2023-11-26T08:57:01Z</time>
      </trkpt>
      <trkpt lat="46.003950918093324" lon="9.466889910399914">
        <ele>1229.9100000000001</ele>
        <time>2023-11-26T08:57:15Z</time>
      </trkpt>
      <trkpt lat="46.004006071016192" lon="9.46687993593514">
        <ele>1229.6700000000001</ele>
        <time>2023-11-26T08:57:25Z</time>
      </trkpt>
      <trkpt lat="46.0040816757828" lon="9.466815898194909">
        <ele>1230.4000000000001</ele>
        <time>2023-11-26T08:57:37Z</time>
      </trkpt>
      <trkpt lat="46.004159962758422" lon="9.466787315905094">
        <ele>1231.6600000000001</ele>
        <time>2023-11-26T08:57:48Z</time>
      </trkpt>
      <trkpt lat="46.004239842295647" lon="9.466751189902425">
        <ele>1233.77</ele>
        <time>2023-11-26T08:58:02Z</time>
      </trkpt>
      <trkpt lat="46.004346124827862" lon="9.466756219044328">
        <ele>1236.23</ele>
        <time>2023-11-26T08:58:15Z</time>
      </trkpt>
      <trkpt lat="46.004424998536706" lon="9.466720931231976">
        <ele>1237.8599999999999</ele>
        <time>2023-11-26T08:58:26Z</time>
      </trkpt>
      <trkpt lat="46.004539411514997" lon="9.466748926788569">
        <ele>1239.6700000000001</ele>
        <time>2023-11-26T08:58:39Z</time>
      </trkpt>
      <trkpt lat="46.004616189748049" lon="9.466724116355181">
        <ele>1241.9400000000001</ele>
        <time>2023-11-26T08:58:51Z</time>
      </trkpt>
      <trkpt lat="46.00470470264554" lon="9.466711292043328">
        <ele>1244.0799999999999</ele>
        <time>2023-11-26T08:59:04Z</time>
      </trkpt>
      <trkpt lat="46.004773434251547" lon="9.46669964119792">
        <ele>1246.1700000000001</ele>
        <time>2023-11-26T08:59:18Z</time>
      </trkpt>
      <trkpt lat="46.004845099523664" lon="9.466746160760522">
        <ele>1248.3599999999999</ele>
        <time>2023-11-26T08:59:31Z</time>
      </trkpt>
      <trkpt lat="46.004910310730338" lon="9.466787315905094">
        <ele>1249.45</ele>
        <time>2023-11-26T08:59:41Z</time>
      </trkpt>
      <trkpt lat="46.00502572953701" lon="9.46678027510643">
        <ele>1250.21</ele>
        <time>2023-11-26T08:59:52Z</time>
      </trkpt>
      <trkpt lat="46.005036290735006" lon="9.466779101639986">
        <ele>1250.4400000000001</ele>
        <time>2023-11-26T08:59:53Z</time>
      </trkpt>
      <trkpt lat="46.005101921036839" lon="9.466781532391906">
        <ele>1251.29</ele>
        <time>2023-11-26T09:00:01Z</time>
      </trkpt>
      <trkpt lat="46.005166294053197" lon="9.46683157235384">
        <ele>1252.8699999999999</ele>
        <time>2023-11-26T09:00:11Z</time>
      </trkpt>
      <trkpt lat="46.005222536623478" lon="9.466848839074373">
        <ele>1254.7</ele>
        <time>2023-11-26T09:00:20Z</time>
      </trkpt>
      <trkpt lat="46.005297219380736" lon="9.466873314231634">
        <ele>1255.96</ele>
        <time>2023-11-26T09:00:31Z</time>
      </trkpt>
      <trkpt lat="46.005368800833821" lon="9.466884881258011">
        <ele>1257.1099999999999</ele>
        <time>2023-11-26T09:00:42Z</time>
      </trkpt>
      <trkpt lat="46.005422528833151" lon="9.46688286960125">
        <ele>1258.1099999999999</ele>
        <time>2023-11-26T09:00:50Z</time>
      </trkpt>
      <trkpt lat="46.005440633744001" lon="9.466881360858679">
        <ele>1258.1800000000001</ele>
        <time>2023-11-26T09:00:52Z</time>
      </trkpt>
      <trkpt lat="46.005526296794415" lon="9.466868033632636">
        <ele>1258.8</ele>
        <time>2023-11-26T09:01:03Z</time>
      </trkpt>
      <trkpt lat="46.005596034228802" lon="9.466906925663352">
        <ele>1259.4200000000001</ele>
        <time>2023-11-26T09:01:13Z</time>
      </trkpt>
      <trkpt lat="46.005692007020116" lon="9.466901309788227">
        <ele>1260.3699999999999</ele>
        <time>2023-11-26T09:01:25Z</time>
      </trkpt>
      <trkpt lat="46.005717990919948" lon="9.466891000047326">
        <ele>1260.6600000000001</ele>
        <time>2023-11-26T09:01:28Z</time>
      </trkpt>
      <trkpt lat="46.005810275673866" lon="9.466855209320784">
        <ele>1261.1600000000001</ele>
        <time>2023-11-26T09:01:39Z</time>
      </trkpt>
      <trkpt lat="46.005907757207751" lon="9.466854874044657">
        <ele>1260.9100000000001</ele>
        <time>2023-11-26T09:01:51Z</time>
      </trkpt>
      <trkpt lat="46.00594924762845" lon="9.466880019754171">
        <ele>1260.79</ele>
        <time>2023-11-26T09:01:56Z</time>
      </trkpt>
      <trkpt lat="46.005990654230118" lon="9.466894352808595">
        <ele>1261.25</ele>
        <time>2023-11-26T09:02:01Z</time>
      </trkpt>
      <trkpt lat="46.006050920113921" lon="9.466951517388225">
        <ele>1261.5899999999999</ele>
        <time>2023-11-26T09:02:11Z</time>
      </trkpt>
      <trkpt lat="46.00607824511826" lon="9.466986637562513">
        <ele>1261.74</ele>
        <time>2023-11-26T09:02:15Z</time>
      </trkpt>
      <trkpt lat="46.006148234009743" lon="9.4670754019171">
        <ele>1262.26</ele>
        <time>2023-11-26T09:02:25Z</time>
      </trkpt>
      <trkpt lat="46.006260802969337" lon="9.467103816568852">
        <ele>1263.51</ele>
        <time>2023-11-26T09:02:39Z</time>
      </trkpt>
      <trkpt lat="46.006331630051136" lon="9.467099290341139">
        <ele>1264.97</ele>
        <time>2023-11-26T09:02:49Z</time>
      </trkpt>
      <trkpt lat="46.006403462961316" lon="9.46710909716785">
        <ele>1266.4000000000001</ele>
        <time>2023-11-26T09:02:59Z</time>
      </trkpt>
      <trkpt lat="46.006449731066823" lon="9.467118652537465">
        <ele>1267.0599999999999</ele>
        <time>2023-11-26T09:03:06Z</time>
      </trkpt>
      <trkpt lat="46.006528353318572" lon="9.467126782983542">
        <ele>1268.29</ele>
        <time>2023-11-26T09:03:17Z</time>
      </trkpt>
      <trkpt lat="46.006578225642443" lon="9.467140780761838">
        <ele>1269.74</ele>
        <time>2023-11-26T09:03:27Z</time>
      </trkpt>
      <trkpt lat="46.006654081866145" lon="9.467169111594558">
        <ele>1271.1500000000001</ele>
        <time>2023-11-26T09:03:38Z</time>
      </trkpt>
      <trkpt lat="46.006690543144941" lon="9.467173051089048">
        <ele>1272.1300000000001</ele>
        <time>2023-11-26T09:03:42Z</time>
      </trkpt>
      <trkpt lat="46.006725998595357" lon="9.467178415507078">
        <ele>1272.98</ele>
        <time>2023-11-26T09:03:47Z</time>
      </trkpt>
      <trkpt lat="46.006787018850446" lon="9.467168105766177">
        <ele>1274.1800000000001</ele>
        <time>2023-11-26T09:03:57Z</time>
      </trkpt>
      <trkpt lat="46.006830772385001" lon="9.46713600307703">
        <ele>1275.6099999999999</ele>
        <time>2023-11-26T09:04:06Z</time>
      </trkpt>
      <trkpt lat="46.006881566718221" lon="9.467135081067681">
        <ele>1276.71</ele>
        <time>2023-11-26T09:04:14Z</time>
      </trkpt>
      <trkpt lat="46.006963206455112" lon="9.467131141573191">
        <ele>1277.8599999999999</ele>
        <time>2023-11-26T09:04:26Z</time>
      </trkpt>
      <trkpt lat="46.007008804008365" lon="9.467126950621605">
        <ele>1279.3099999999999</ele>
        <time>2023-11-26T09:04:36Z</time>
      </trkpt>
      <trkpt lat="46.007085498422384" lon="9.46714136749506">
        <ele>1280.8199999999999</ele>
        <time>2023-11-26T09:04:47Z</time>
      </trkpt>
      <trkpt lat="46.007143668830395" lon="9.467143630608916">
        <ele>1282.1099999999999</ele>
        <time>2023-11-26T09:04:57Z</time>
      </trkpt>
      <trkpt lat="46.007211646065116" lon="9.467101637274027">
        <ele>1284.9000000000001</ele>
        <time>2023-11-26T09:05:14Z</time>
      </trkpt>
      <trkpt lat="46.00729295052588" lon="9.467099541798234">
        <ele>1286.45</ele>
        <time>2023-11-26T09:05:27Z</time>
      </trkpt>
      <trkpt lat="46.007349696010351" lon="9.467096691951156">
        <ele>1287.74</ele>
        <time>2023-11-26T09:05:37Z</time>
      </trkpt>
      <trkpt lat="46.007424211129546" lon="9.467059392482042">
        <ele>1289.5999999999999</ele>
        <time>2023-11-26T09:05:51Z</time>
      </trkpt>
      <trkpt lat="46.007477687671781" lon="9.4670236017555">
        <ele>1291.9100000000001</ele>
        <time>2023-11-26T09:06:05Z</time>
      </trkpt>
      <trkpt lat="46.00756854750216" lon="9.467043969780207">
        <ele>1293.49</ele>
        <time>2023-11-26T09:06:20Z</time>
      </trkpt>
      <trkpt lat="46.007611965760589" lon="9.46703583933413">
        <ele>1293.5799999999999</ele>
        <time>2023-11-26T09:06:25Z</time>
      </trkpt>
      <trkpt lat="46.00766871124506" lon="9.46700306609273">
        <ele>1294.76</ele>
        <time>2023-11-26T09:06:34Z</time>
      </trkpt>
      <trkpt lat="46.007762001827359" lon="9.466995690017939">
        <ele>1296.74</ele>
        <time>2023-11-26T09:06:46Z</time>
      </trkpt>
      <trkpt lat="46.007797289639711" lon="9.466985380277038">
        <ele>1296.99</ele>
        <time>2023-11-26T09:06:50Z</time>
      </trkpt>
      <trkpt lat="46.007883120328188" lon="9.466943303123117">
        <ele>1298.4300000000001</ele>
        <time>2023-11-26T09:07:02Z</time>
      </trkpt>
      <trkpt lat="46.007946655154228" lon="9.466900723055005">
        <ele>1300.8499999999999</ele>
        <time>2023-11-26T09:07:15Z</time>
      </trkpt>
      <trkpt lat="46.008037095889449" lon="9.466849593445659">
        <ele>1302.6300000000001</ele>
        <time>2023-11-26T09:07:29Z</time>
      </trkpt>
      <trkpt lat="46.008086632937193" lon="9.466833500191569">
        <ele>1303</ele>
        <time>2023-11-26T09:07:39Z</time>
      </trkpt>
      <trkpt lat="46.008159471675754" lon="9.466779353097081">
        <ele>1304.4300000000001</ele>
        <time>2023-11-26T09:07:52Z</time>
      </trkpt>
      <trkpt lat="46.008236836642027" lon="9.466777006164193">
        <ele>1305.51</ele>
        <time>2023-11-26T09:08:02Z</time>
      </trkpt>
      <trkpt lat="46.008248487487435" lon="9.466777928173542">
        <ele>1305.51</ele>
        <time>2023-11-26T09:08:03Z</time>
      </trkpt>
      <trkpt lat="46.008307160809636" lon="9.466774156317115">
        <ele>1306.3900000000001</ele>
        <time>2023-11-26T09:08:09Z</time>
      </trkpt>
      <trkpt lat="46.008375054225326" lon="9.466775916516781">
        <ele>1307.5999999999999</ele>
        <time>2023-11-26T09:08:19Z</time>
      </trkpt>
      <trkpt lat="46.00841143168509" lon="9.466799469664693">
        <ele>1308.1800000000001</ele>
        <time>2023-11-26T09:08:32Z</time>
      </trkpt>
      <trkpt lat="46.008504973724484" lon="9.46679200977087">
        <ele>1310.9400000000001</ele>
        <time>2023-11-26T09:08:46Z</time>
      </trkpt>
      <trkpt lat="46.008559036999941" lon="9.466789830476046">
        <ele>1312.95</ele>
        <time>2023-11-26T09:08:58Z</time>
      </trkpt>
      <trkpt lat="46.008613100275397" lon="9.466804414987564">
        <ele>1315.23</ele>
        <time>2023-11-26T09:09:11Z</time>
      </trkpt>
      <trkpt lat="46.00873195566237" lon="9.466738952323794">
        <ele>1314.6400000000001</ele>
        <time>2023-11-26T09:10:01Z</time>
      </trkpt>
      <trkpt lat="46.008734637871385" lon="9.46673434227705">
        <ele>1317.8099999999999</ele>
        <time>2023-11-26T09:10:03Z</time>
      </trkpt>
      <trkpt lat="46.008736146613955" lon="9.466732162982225">
        <ele>1317.78</ele>
        <time>2023-11-26T09:10:04Z</time>
      </trkpt>
      <trkpt lat="46.00874712690711" lon="9.466738281771541">
        <ele>1317.8199999999999</ele>
        <time>2023-11-26T09:10:06Z</time>
      </trkpt>
      <trkpt lat="46.00874955765903" lon="9.466745825484395">
        <ele>1316.73</ele>
        <time>2023-11-26T09:10:09Z</time>
      </trkpt>
      <trkpt lat="46.008715191856027" lon="9.466787818819284">
        <ele>1316.48</ele>
        <time>2023-11-26T09:11:21Z</time>
      </trkpt>
      <trkpt lat="46.008704211562872" lon="9.466788405552506">
        <ele>1316.9000000000001</ele>
        <time>2023-11-26T09:11:55Z</time>
      </trkpt>
      <trkpt lat="46.008721310645342" lon="9.466768121346831">
        <ele>1316.8499999999999</ele>
        <time>2023-11-26T09:12:10Z</time>
      </trkpt>
      <trkpt lat="46.008728099986911" lon="9.466752028092742">
        <ele>1313.99</ele>
        <time>2023-11-26T09:13:37Z</time>
      </trkpt>
      <trkpt lat="46.008728351444006" lon="9.466752028092742">
        <ele>1315.98</ele>
        <time>2023-11-26T09:13:40Z</time>
      </trkpt>
      <trkpt lat="46.008703876286745" lon="9.466781700029969">
        <ele>1315.49</ele>
        <time>2023-11-26T09:13:58Z</time>
      </trkpt>
      <trkpt lat="46.008730279281735" lon="9.466755129396915">
        <ele>1317.1700000000001</ele>
        <time>2023-11-26T09:15:24Z</time>
      </trkpt>
      <trkpt lat="46.008732542395592" lon="9.466763092204928">
        <ele>1319.02</ele>
        <time>2023-11-26T09:15:35Z</time>
      </trkpt>
      <trkpt lat="46.00873296149075" lon="9.46676560677588">
        <ele>1316.3199999999999</ele>
        <time>2023-11-26T09:15:38Z</time>
      </trkpt>
      <trkpt lat="46.008723909035325" lon="9.466770300641656">
        <ele>1315.5</ele>
        <time>2023-11-26T09:16:43Z</time>
      </trkpt>
      <trkpt lat="46.008723238483071" lon="9.466768456622958">
        <ele>1315.27</ele>
        <time>2023-11-26T09:17:23Z</time>
      </trkpt>
      <trkpt lat="46.008724328130484" lon="9.466758314520121">
        <ele>1316.1900000000001</ele>
        <time>2023-11-26T09:18:02Z</time>
      </trkpt>
      <trkpt lat="46.008714605122805" lon="9.466777676716447">
        <ele>1315.77</ele>
        <time>2023-11-26T09:18:25Z</time>
      </trkpt>
      <trkpt lat="46.008723741397262" lon="9.46676854044199">
        <ele>1316.9200000000001</ele>
        <time>2023-11-26T09:19:06Z</time>
      </trkpt>
      <trkpt lat="46.00874905474484" lon="9.466700982302427">
        <ele>1320.8199999999999</ele>
        <time>2023-11-26T09:19:55Z</time>
      </trkpt>
      <trkpt lat="46.008843434974551" lon="9.46667910553515">
        <ele>1320.03</ele>
        <time>2023-11-26T09:20:07Z</time>
      </trkpt>
      <trkpt lat="46.008891295641661" lon="9.466746328398585">
        <ele>1319.1199999999999</ele>
        <time>2023-11-26T09:20:17Z</time>
      </trkpt>
      <trkpt lat="46.008982490748167" lon="9.466781867668033">
        <ele>1319.45</ele>
        <time>2023-11-26T09:20:27Z</time>
      </trkpt>
      <trkpt lat="46.009043594822288" lon="9.466820675879717">
        <ele>1320.4000000000001</ele>
        <time>2023-11-26T09:20:38Z</time>
      </trkpt>
      <trkpt lat="46.009120624512434" lon="9.466908937320113">
        <ele>1322.8099999999999</ele>
        <time>2023-11-26T09:20:51Z</time>
      </trkpt>
      <trkpt lat="46.009226739406586" lon="9.466897118836641">
        <ele>1324.6700000000001</ele>
        <time>2023-11-26T09:21:04Z</time>
      </trkpt>
      <trkpt lat="46.009292956441641" lon="9.46676267310977">
        <ele>1326.6700000000001</ele>
        <time>2023-11-26T09:21:17Z</time>
      </trkpt>
      <trkpt lat="46.009305780753493" lon="9.466636022552848">
        <ele>1327.8800000000001</ele>
        <time>2023-11-26T09:21:29Z</time>
      </trkpt>
      <trkpt lat="46.009343666955829" lon="9.466509455814958">
        <ele>1330.0899999999999</ele>
        <time>2023-11-26T09:21:43Z</time>
      </trkpt>
      <trkpt lat="46.009348025545478" lon="9.466410214081407">
        <ele>1331.3800000000001</ele>
        <time>2023-11-26T09:21:56Z</time>
      </trkpt>
      <trkpt lat="46.009337548166513" lon="9.466375513002276">
        <ele>1333.4400000000001</ele>
        <time>2023-11-26T09:22:09Z</time>
      </trkpt>
      <trkpt lat="46.009389767423272" lon="9.466317007318139">
        <ele>1334.55</ele>
        <time>2023-11-26T09:22:24Z</time>
      </trkpt>
      <trkpt lat="46.009453637525439" lon="9.466285491362214">
        <ele>1335.9100000000001</ele>
        <time>2023-11-26T09:22:38Z</time>
      </trkpt>
      <trkpt lat="46.009515328332782" lon="9.466244671493769">
        <ele>1337.9400000000001</ele>
        <time>2023-11-26T09:22:52Z</time>
      </trkpt>
      <trkpt lat="46.009542737156153" lon="9.466158421710134">
        <ele>1340.03</ele>
        <time>2023-11-26T09:23:06Z</time>
      </trkpt>
      <trkpt lat="46.009490014985204" lon="9.466150123625994">
        <ele>1341.72</ele>
        <time>2023-11-26T09:23:19Z</time>
      </trkpt>
      <trkpt lat="46.009453134611249" lon="9.466169569641352">
        <ele>1342.0999999999999</ele>
        <time>2023-11-26T09:23:23Z</time>
      </trkpt>
      <trkpt lat="46.009399071335793" lon="9.466145262122154">
        <ele>1343.0699999999999</ele>
        <time>2023-11-26T09:23:34Z</time>
      </trkpt>
      <trkpt lat="46.009380798786879" lon="9.466094048693776">
        <ele>1344.48</ele>
        <time>2023-11-26T09:23:47Z</time>
      </trkpt>
      <trkpt lat="46.009361520409584" lon="9.466047948226333">
        <ele>1346.6800000000001</ele>
        <time>2023-11-26T09:23:59Z</time>
      </trkpt>
      <trkpt lat="46.009418265894055" lon="9.466034201905131">
        <ele>1348.52</ele>
        <time>2023-11-26T09:24:13Z</time>
      </trkpt>
      <trkpt lat="46.009494289755821" lon="9.466004781424999">
        <ele>1350.1700000000001</ele>
        <time>2023-11-26T09:24:28Z</time>
      </trkpt>
      <trkpt lat="46.009583221748471" lon="9.465975947678089">
        <ele>1351.9200000000001</ele>
        <time>2023-11-26T09:24:41Z</time>
      </trkpt>
      <trkpt lat="46.009598141536117" lon="9.465909311547875">
        <ele>1353.95</ele>
        <time>2023-11-26T09:24:56Z</time>
      </trkpt>
      <trkpt lat="46.009552041068673" lon="9.465887853875756">
        <ele>1354.8900000000001</ele>
        <time>2023-11-26T09:25:08Z</time>
      </trkpt>
      <trkpt lat="46.009516920894384" lon="9.465806381776929">
        <ele>1356.9000000000001</ele>
        <time>2023-11-26T09:25:24Z</time>
      </trkpt>
      <trkpt lat="46.009465623646975" lon="9.465743266046047">
        <ele>1358.3</ele>
        <time>2023-11-26T09:25:37Z</time>
      </trkpt>
      <trkpt lat="46.0094038490206" lon="9.465637151151896">
        <ele>1360.1600000000001</ele>
        <time>2023-11-26T09:25:55Z</time>
      </trkpt>
      <trkpt lat="46.009465372189879" lon="9.465647879987955">
        <ele>1358.3299999999999</ele>
        <time>2023-11-26T09:26:07Z</time>
      </trkpt>
      <trkpt lat="46.009470317512751" lon="9.465651400387287">
        <ele>1364.8399999999999</ele>
        <time>2023-11-26T09:26:08Z</time>
      </trkpt>
      <trkpt lat="46.009474759921432" lon="9.465653579682112">
        <ele>1363.76</ele>
        <time>2023-11-26T09:26:09Z</time>
      </trkpt>
      <trkpt lat="46.00948398001492" lon="9.465658944100142">
        <ele>1362.0799999999999</ele>
        <time>2023-11-26T09:26:11Z</time>
      </trkpt>
      <trkpt lat="46.009552627801895" lon="9.465614771470428">
        <ele>1364.01</ele>
        <time>2023-11-26T09:26:27Z</time>
      </trkpt>
      <trkpt lat="46.009652791544795" lon="9.465631619095802">
        <ele>1365.8</ele>
        <time>2023-11-26T09:26:43Z</time>
      </trkpt>
      <trkpt lat="46.00974147208035" lon="9.465647377073765">
        <ele>1367.5799999999999</ele>
        <time>2023-11-26T09:26:55Z</time>
      </trkpt>
      <trkpt lat="46.009809533134103" lon="9.465651819482446">
        <ele>1369.24</ele>
        <time>2023-11-26T09:27:09Z</time>
      </trkpt>
      <trkpt lat="46.009887652471662" lon="9.46559876203537">
        <ele>1371.8699999999999</ele>
        <time>2023-11-26T09:27:24Z</time>
      </trkpt>
      <trkpt lat="46.009977171197534" lon="9.465567162260413">
        <ele>1373.2</ele>
        <time>2023-11-26T09:27:35Z</time>
      </trkpt>
      <trkpt lat="46.010049087926745" lon="9.465599767863751">
        <ele>1374.8599999999999</ele>
        <time>2023-11-26T09:27:45Z</time>
      </trkpt>
      <trkpt lat="46.010142378509045" lon="9.465614017099142">
        <ele>1377.1300000000001</ele>
        <time>2023-11-26T09:27:59Z</time>
      </trkpt>
      <trkpt lat="46.01020566187799" lon="9.465731028467417">
        <ele>1377.9400000000001</ele>
        <time>2023-11-26T09:28:15Z</time>
      </trkpt>
      <trkpt lat="46.010207002982497" lon="9.46585139259696">
        <ele>1379.0799999999999</ele>
        <time>2023-11-26T09:28:26Z</time>
      </trkpt>
      <trkpt lat="46.010201806202531" lon="9.465871006250382">
        <ele>1378.8900000000001</ele>
        <time>2023-11-26T09:28:27Z</time>
      </trkpt>
      <trkpt lat="46.010195855051279" lon="9.465890536084771">
        <ele>1379.45</ele>
        <time>2023-11-26T09:28:28Z</time>
      </trkpt>
      <trkpt lat="46.010177247226238" lon="9.465984497219324">
        <ele>1379.1199999999999</ele>
        <time>2023-11-26T09:28:34Z</time>
      </trkpt>
      <trkpt lat="46.010229215025902" lon="9.466094970703125">
        <ele>1380.3299999999999</ele>
        <time>2023-11-26T09:28:44Z</time>
      </trkpt>
      <trkpt lat="46.010255618020892" lon="9.466110561043024">
        <ele>1380.5</ele>
        <time>2023-11-26T09:28:47Z</time>
      </trkpt>
      <trkpt lat="46.010265508666635" lon="9.466123385354877">
        <ele>1380.4000000000001</ele>
        <time>2023-11-26T09:28:48Z</time>
      </trkpt>
      <trkpt lat="46.010272381827235" lon="9.466140484437347">
        <ele>1380.27</ele>
        <time>2023-11-26T09:28:49Z</time>
      </trkpt>
      <trkpt lat="46.010275315493345" lon="9.466156912967563">
        <ele>1380.28</ele>
        <time>2023-11-26T09:28:50Z</time>
      </trkpt>
      <trkpt lat="46.010277913883328" lon="9.466173928231001">
        <ele>1380.22</ele>
        <time>2023-11-26T09:28:51Z</time>
      </trkpt>
      <trkpt lat="46.010283026844263" lon="9.466191781684756">
        <ele>1380.0799999999999</ele>
        <time>2023-11-26T09:28:52Z</time>
      </trkpt>
      <trkpt lat="46.010286128148437" lon="9.466207791119814">
        <ele>1380.02</ele>
        <time>2023-11-26T09:28:53Z</time>
      </trkpt>
      <trkpt lat="46.010287553071976" lon="9.466224806383252">
        <ele>1379.96</ele>
        <time>2023-11-26T09:28:54Z</time>
      </trkpt>
      <trkpt lat="46.010293252766132" lon="9.466239558532834">
        <ele>1379.9000000000001</ele>
        <time>2023-11-26T09:28:55Z</time>
      </trkpt>
      <trkpt lat="46.010302556678653" lon="9.466253472492099">
        <ele>1379.8599999999999</ele>
        <time>2023-11-26T09:28:56Z</time>
      </trkpt>
      <trkpt lat="46.010331138968468" lon="9.466357575729489">
        <ele>1380.27</ele>
        <time>2023-11-26T09:29:04Z</time>
      </trkpt>
      <trkpt lat="46.010340359061956" lon="9.466456146910787">
        <ele>1381.3199999999999</ele>
        <time>2023-11-26T09:29:12Z</time>
      </trkpt>
      <trkpt lat="46.010341364890337" lon="9.466471401974559">
        <ele>1381.3399999999999</ele>
        <time>2023-11-26T09:29:13Z</time>
      </trkpt>
      <trkpt lat="46.010346645489335" lon="9.466572823002935">
        <ele>1382.5999999999999</ele>
        <time>2023-11-26T09:29:22Z</time>
      </trkpt>
      <trkpt lat="46.010354524478316" lon="9.466610457748175">
        <ele>1383.0599999999999</ele>
        <time>2023-11-26T09:29:26Z</time>
      </trkpt>
      <trkpt lat="46.010358296334743" lon="9.466640632599592">
        <ele>1382.3299999999999</ele>
        <time>2023-11-26T09:29:28Z</time>
      </trkpt>
      <trkpt lat="46.010367097333074" lon="9.466695617884398">
        <ele>1381.74</ele>
        <time>2023-11-26T09:29:32Z</time>
      </trkpt>
      <trkpt lat="46.010370953008533" lon="9.466710370033979">
        <ele>1381.8099999999999</ele>
        <time>2023-11-26T09:29:33Z</time>
      </trkpt>
      <trkpt lat="46.010436667129397" lon="9.466838361695409">
        <ele>1382.1099999999999</ele>
        <time>2023-11-26T09:29:43Z</time>
      </trkpt>
      <trkpt lat="46.010482264682651" lon="9.466880271211267">
        <ele>1382.96</ele>
        <time>2023-11-26T09:29:48Z</time>
      </trkpt>
      <trkpt lat="46.010566251352429" lon="9.466949086636305">
        <ele>1384.0799999999999</ele>
        <time>2023-11-26T09:29:57Z</time>
      </trkpt>
      <trkpt lat="46.010605059564114" lon="9.466996612027288">
        <ele>1385.29</ele>
        <time>2023-11-26T09:30:03Z</time>
      </trkpt>
      <trkpt lat="46.010623667389154" lon="9.46701237000525">
        <ele>1385.4000000000001</ele>
        <time>2023-11-26T09:30:05Z</time>
      </trkpt>
      <trkpt lat="46.010672282427549" lon="9.467073138803244">
        <ele>1385.79</ele>
        <time>2023-11-26T09:30:14Z</time>
      </trkpt>
      <trkpt lat="46.010695248842239" lon="9.467086968943477">
        <ele>1385.97</ele>
        <time>2023-11-26T09:30:19Z</time>
      </trkpt>
      <trkpt lat="46.010753670707345" lon="9.467146312817931">
        <ele>1387.0699999999999</ele>
        <time>2023-11-26T09:30:28Z</time>
      </trkpt>
      <trkpt lat="46.010835058987141" lon="9.467213284224272">
        <ele>1386.95</ele>
        <time>2023-11-26T09:30:41Z</time>
      </trkpt>
      <trkpt lat="46.010894486680627" lon="9.467287547886372">
        <ele>1387.8</ele>
        <time>2023-11-26T09:30:53Z</time>
      </trkpt>
      <trkpt lat="46.010918291285634" lon="9.467368433251977">
        <ele>1387.54</ele>
        <time>2023-11-26T09:31:00Z</time>
      </trkpt>
      <trkpt lat="46.010930612683296" lon="9.46744529530406">
        <ele>1386.76</ele>
        <time>2023-11-26T09:31:04Z</time>
      </trkpt>
      <trkpt lat="46.010935222730041" lon="9.467463735491037">
        <ele>1386.4000000000001</ele>
        <time>2023-11-26T09:31:05Z</time>
      </trkpt>
      <trkpt lat="46.010947963222861" lon="9.467507656663656">
        <ele>1385.5899999999999</ele>
        <time>2023-11-26T09:31:08Z</time>
      </trkpt>
      <trkpt lat="46.011009402573109" lon="9.467583261430264">
        <ele>1386.72</ele>
        <time>2023-11-26T09:31:18Z</time>
      </trkpt>
      <trkpt lat="46.011096239089966" lon="9.467651406303048">
        <ele>1387.8099999999999</ele>
        <time>2023-11-26T09:31:31Z</time>
      </trkpt>
      <trkpt lat="46.011154744774103" lon="9.467709073796868">
        <ele>1388.78</ele>
        <time>2023-11-26T09:31:40Z</time>
      </trkpt>
      <trkpt lat="46.011213250458241" lon="9.467762131243944">
        <ele>1390.0799999999999</ele>
        <time>2023-11-26T09:31:50Z</time>
      </trkpt>
      <trkpt lat="46.011244179680943" lon="9.4678058847785">
        <ele>1391.1099999999999</ele>
        <time>2023-11-26T09:32:00Z</time>
      </trkpt>
      <trkpt lat="46.011286843568087" lon="9.467839747667313">
        <ele>1392.4300000000001</ele>
        <time>2023-11-26T09:32:07Z</time>
      </trkpt>
      <trkpt lat="46.011332022026181" lon="9.467919208109379">
        <ele>1393.9400000000001</ele>
        <time>2023-11-26T09:32:17Z</time>
      </trkpt>
      <trkpt lat="46.011402430012822" lon="9.467978468164802">
        <ele>1395.45</ele>
        <time>2023-11-26T09:32:31Z</time>
      </trkpt>
      <trkpt lat="46.011469317600131" lon="9.468037895858288">
        <ele>1396.75</ele>
        <time>2023-11-26T09:32:40Z</time>
      </trkpt>
      <trkpt lat="46.011529080569744" lon="9.468077123165131">
        <ele>1397.73</ele>
        <time>2023-11-26T09:32:48Z</time>
      </trkpt>
      <trkpt lat="46.011552885174751" lon="9.468090534210205">
        <ele>1398.0699999999999</ele>
        <time>2023-11-26T09:32:52Z</time>
      </trkpt>
      <trkpt lat="46.011594543233514" lon="9.468132359907031">
        <ele>1398.77</ele>
        <time>2023-11-26T09:33:00Z</time>
      </trkpt>
      <trkpt lat="46.011664448305964" lon="9.468206707388163">
        <ele>1399.99</ele>
        <time>2023-11-26T09:33:11Z</time>
      </trkpt>
      <trkpt lat="46.011731000617146" lon="9.468270996585488">
        <ele>1400.21</ele>
        <time>2023-11-26T09:33:21Z</time>
      </trkpt>
      <trkpt lat="46.011748686432838" lon="9.468277283012867">
        <ele>1400.1900000000001</ele>
        <time>2023-11-26T09:33:23Z</time>
      </trkpt>
      <trkpt lat="46.011844491586089" lon="9.468310307711363">
        <ele>1401.6500000000001</ele>
        <time>2023-11-26T09:33:34Z</time>
      </trkpt>
      <trkpt lat="46.011936608701944" lon="9.468377530574799">
        <ele>1402.47</ele>
        <time>2023-11-26T09:33:48Z</time>
      </trkpt>
      <trkpt lat="46.012048842385411" lon="9.468396557494998">
        <ele>1403.6400000000001</ele>
        <time>2023-11-26T09:34:02Z</time>
      </trkpt>
      <trkpt lat="46.012189658358693" lon="9.468426899984479">
        <ele>1405.29</ele>
        <time>2023-11-26T09:34:17Z</time>
      </trkpt>
      <trkpt lat="46.012300467118621" lon="9.468455985188484">
        <ele>1407.5599999999999</ele>
        <time>2023-11-26T09:34:30Z</time>
      </trkpt>
      <trkpt lat="46.012359894812107" lon="9.46850853972137">
        <ele>1408.04</ele>
        <time>2023-11-26T09:34:42Z</time>
      </trkpt>
      <trkpt lat="46.012444803491235" lon="9.468522956594825">
        <ele>1409.3099999999999</ele>
        <time>2023-11-26T09:34:55Z</time>
      </trkpt>
      <trkpt lat="46.012520156800747" lon="9.468514658510685">
        <ele>1410.8900000000001</ele>
        <time>2023-11-26T09:35:11Z</time>
      </trkpt>
      <trkpt lat="46.012594336643815" lon="9.468514658510685">
        <ele>1412.6300000000001</ele>
        <time>2023-11-26T09:35:25Z</time>
      </trkpt>
      <trkpt lat="46.012671366333961" lon="9.468475766479969">
        <ele>1414.4200000000001</ele>
        <time>2023-11-26T09:35:40Z</time>
      </trkpt>
      <trkpt lat="46.012747557833791" lon="9.46839421056211">
        <ele>1416.6300000000001</ele>
        <time>2023-11-26T09:35:55Z</time>
      </trkpt>
      <trkpt lat="46.012840429320931" lon="9.468369567766786">
        <ele>1418.5999999999999</ele>
        <time>2023-11-26T09:36:10Z</time>
      </trkpt>
      <trkpt lat="46.012906143441796" lon="9.468374513089657">
        <ele>1419.2</ele>
        <time>2023-11-26T09:36:24Z</time>
      </trkpt>
      <trkpt lat="46.012954758480191" lon="9.46836780756712">
        <ele>1420.21</ele>
        <time>2023-11-26T09:36:35Z</time>
      </trkpt>
      <trkpt lat="46.013028519228101" lon="9.468357162550092">
        <ele>1421.55</ele>
        <time>2023-11-26T09:36:45Z</time>
      </trkpt>
      <trkpt lat="46.01307051256299" lon="9.468357916921377">
        <ele>1422.75</ele>
        <time>2023-11-26T09:36:55Z</time>
      </trkpt>
      <trkpt lat="46.013124408200383" lon="9.468333525583148">
        <ele>1423.9400000000001</ele>
        <time>2023-11-26T09:37:07Z</time>
      </trkpt>
      <trkpt lat="46.013213424012065" lon="9.468368897214532">
        <ele>1425.3499999999999</ele>
        <time>2023-11-26T09:37:21Z</time>
      </trkpt>
      <trkpt lat="46.013266732916236" lon="9.468388175591826">
        <ele>1426.48</ele>
        <time>2023-11-26T09:37:33Z</time>
      </trkpt>
      <trkpt lat="46.013344852253795" lon="9.468405861407518">
        <ele>1427.74</ele>
        <time>2023-11-26T09:37:43Z</time>
      </trkpt>
      <trkpt lat="46.013401430100203" lon="9.468430085107684">
        <ele>1428.6300000000001</ele>
        <time>2023-11-26T09:37:53Z</time>
      </trkpt>
      <trkpt lat="46.013469742611051" lon="9.468461768701673">
        <ele>1429.9000000000001</ele>
        <time>2023-11-26T09:38:06Z</time>
      </trkpt>
      <trkpt lat="46.013502180576324" lon="9.468480376526713">
        <ele>1430.3900000000001</ele>
        <time>2023-11-26T09:38:17Z</time>
      </trkpt>
      <trkpt lat="46.013552471995354" lon="9.468485070392489">
        <ele>1431.5899999999999</ele>
        <time>2023-11-26T09:38:25Z</time>
      </trkpt>
      <trkpt lat="46.013583987951279" lon="9.468513820320368">
        <ele>1433.3800000000001</ele>
        <time>2023-11-26T09:38:35Z</time>
      </trkpt>
      <trkpt lat="46.013650624081492" lon="9.468537960201502">
        <ele>1435.6800000000001</ele>
        <time>2023-11-26T09:38:48Z</time>
      </trkpt>
      <trkpt lat="46.013708375394344" lon="9.468570984899998">
        <ele>1437.6700000000001</ele>
        <time>2023-11-26T09:39:01Z</time>
      </trkpt>
      <trkpt lat="46.013769814744592" lon="9.46858330629766">
        <ele>1438.3499999999999</ele>
        <time>2023-11-26T09:39:13Z</time>
      </trkpt>
      <trkpt lat="46.013857070356607" lon="9.46862043812871">
        <ele>1440.1199999999999</ele>
        <time>2023-11-26T09:39:26Z</time>
      </trkpt>
      <trkpt lat="46.013900740072131" lon="9.468643823638558">
        <ele>1441.3399999999999</ele>
        <time>2023-11-26T09:39:37Z</time>
      </trkpt>
      <trkpt lat="46.013956312090158" lon="9.468667125329375">
        <ele>1442.05</ele>
        <time>2023-11-26T09:39:49Z</time>
      </trkpt>
      <trkpt lat="46.014036778360605" lon="9.468699898570776">
        <ele>1443.0599999999999</ele>
        <time>2023-11-26T09:40:01Z</time>
      </trkpt>
      <trkpt lat="46.014094864949584" lon="9.468722613528371">
        <ele>1443.3900000000001</ele>
        <time>2023-11-26T09:40:12Z</time>
      </trkpt>
      <trkpt lat="46.014169212430716" lon="9.468711633235216">
        <ele>1444.8399999999999</ele>
        <time>2023-11-26T09:40:27Z</time>
      </trkpt>
      <trkpt lat="46.01427205838263" lon="9.468674752861261">
        <ele>1446.95</ele>
        <time>2023-11-26T09:40:41Z</time>
      </trkpt>
      <trkpt lat="46.014338191598654" lon="9.468669556081295">
        <ele>1447.48</ele>
        <time>2023-11-26T09:40:53Z</time>
      </trkpt>
      <trkpt lat="46.014396613463759" lon="9.46862387470901">
        <ele>1448.48</ele>
        <time>2023-11-26T09:41:04Z</time>
      </trkpt>
      <trkpt lat="46.014481773599982" lon="9.468588251620531">
        <ele>1449.8900000000001</ele>
        <time>2023-11-26T09:41:21Z</time>
      </trkpt>
      <trkpt lat="46.014539441093802" lon="9.468588922172785">
        <ele>1451.04</ele>
        <time>2023-11-26T09:41:33Z</time>
      </trkpt>
      <trkpt lat="46.014581769704819" lon="9.468633262440562">
        <ele>1451.6800000000001</ele>
        <time>2023-11-26T09:41:45Z</time>
      </trkpt>
      <trkpt lat="46.014559222385287" lon="9.468701491132379">
        <ele>1452.72</ele>
        <time>2023-11-26T09:41:53Z</time>
      </trkpt>
      <trkpt lat="46.014557126909494" lon="9.468719093129039">
        <ele>1452.5999999999999</ele>
        <time>2023-11-26T09:41:54Z</time>
      </trkpt>
      <trkpt lat="46.014555618166924" lon="9.46874750778079">
        <ele>1452.6400000000001</ele>
        <time>2023-11-26T09:41:56Z</time>
      </trkpt>
      <trkpt lat="46.014564000070095" lon="9.468857981264591">
        <ele>1452.99</ele>
        <time>2023-11-26T09:42:04Z</time>
      </trkpt>
      <trkpt lat="46.01457305252552" lon="9.468939118087292">
        <ele>1453.73</ele>
        <time>2023-11-26T09:42:14Z</time>
      </trkpt>
      <trkpt lat="46.014583529904485" lon="9.468965856358409">
        <ele>1453.8900000000001</ele>
        <time>2023-11-26T09:42:28Z</time>
      </trkpt>
      <trkpt lat="46.014568693935871" lon="9.469063254073262">
        <ele>1454.9300000000001</ele>
        <time>2023-11-26T09:42:38Z</time>
      </trkpt>
      <trkpt lat="46.014547320082784" lon="9.469169788062573">
        <ele>1456.76</ele>
        <time>2023-11-26T09:42:49Z</time>
      </trkpt>
      <trkpt lat="46.014502895995975" lon="9.469207003712654">
        <ele>1458.3900000000001</ele>
        <time>2023-11-26T09:43:57Z</time>
      </trkpt>
      <trkpt lat="46.014510607346892" lon="9.469267688691616">
        <ele>1460.48</ele>
        <time>2023-11-26T09:46:50Z</time>
      </trkpt>
      <trkpt lat="46.014512283727527" lon="9.469276070594788">
        <ele>1461.0699999999999</ele>
        <time>2023-11-26T09:47:29Z</time>
      </trkpt>
      <trkpt lat="46.014516977593303" lon="9.469279926270247">
        <ele>1460.9400000000001</ele>
        <time>2023-11-26T09:47:53Z</time>
      </trkpt>
      <trkpt lat="46.014509852975607" lon="9.469273388385773">
        <ele>1459.8199999999999</ele>
        <time>2023-11-26T09:48:19Z</time>
      </trkpt>
      <trkpt lat="46.014508260414004" lon="9.469270203262568">
        <ele>1462.97</ele>
        <time>2023-11-26T09:48:23Z</time>
      </trkpt>
      <trkpt lat="46.014507589861751" lon="9.469265844672918">
        <ele>1461.1400000000001</ele>
        <time>2023-11-26T09:48:42Z</time>
      </trkpt>
      <trkpt lat="46.014513792470098" lon="9.469267604872584">
        <ele>1460.5999999999999</ele>
        <time>2023-11-26T09:49:05Z</time>
      </trkpt>
      <trkpt lat="46.014510774984956" lon="9.469257881864905">
        <ele>1461.6099999999999</ele>
        <time>2023-11-26T09:49:31Z</time>
      </trkpt>
      <trkpt lat="46.014521084725857" lon="9.469259222969413">
        <ele>1461.3900000000001</ele>
        <time>2023-11-26T09:49:59Z</time>
      </trkpt>
      <trkpt lat="46.014549918472767" lon="9.469344047829509">
        <ele>1460.76</ele>
        <time>2023-11-26T09:50:18Z</time>
      </trkpt>
      <trkpt lat="46.014554193243384" lon="9.469354944303632">
        <ele>1460.78</ele>
        <time>2023-11-26T09:50:19Z</time>
      </trkpt>
      <trkpt lat="46.014624601230025" lon="9.469477655366063">
        <ele>1460.95</ele>
        <time>2023-11-26T09:50:30Z</time>
      </trkpt>
      <trkpt lat="46.014750329777598" lon="9.469629870727658">
        <ele>1461.8</ele>
        <time>2023-11-26T09:50:43Z</time>
      </trkpt>
      <trkpt lat="46.014800956472754" lon="9.469643952324987">
        <ele>1462.4000000000001</ele>
        <time>2023-11-26T09:50:48Z</time>
      </trkpt>
      <trkpt lat="46.014876142144203" lon="9.469687957316637">
        <ele>1462.9100000000001</ele>
        <time>2023-11-26T09:50:58Z</time>
      </trkpt>
      <trkpt lat="46.014929618686438" lon="9.469728274270892">
        <ele>1463.8199999999999</ele>
        <time>2023-11-26T09:51:08Z</time>
      </trkpt>
      <trkpt lat="46.015006564557552" lon="9.469783678650856">
        <ele>1464.8900000000001</ele>
        <time>2023-11-26T09:51:20Z</time>
      </trkpt>
      <trkpt lat="46.015052497386932" lon="9.469835981726646">
        <ele>1465.6600000000001</ele>
        <time>2023-11-26T09:51:30Z</time>
      </trkpt>
      <trkpt lat="46.015077224001288" lon="9.469865737482905">
        <ele>1465.6900000000001</ele>
        <time>2023-11-26T09:51:34Z</time>
      </trkpt>
      <trkpt lat="46.015086192637682" lon="9.46987571194768">
        <ele>1465.45</ele>
        <time>2023-11-26T09:51:35Z</time>
      </trkpt>
      <trkpt lat="46.015152661129832" lon="9.469965985044837">
        <ele>1465.7</ele>
        <time>2023-11-26T09:51:46Z</time>
      </trkpt>
      <trkpt lat="46.015215609222651" lon="9.470047876238823">
        <ele>1466.5799999999999</ele>
        <time>2023-11-26T09:51:57Z</time>
      </trkpt>
      <trkpt lat="46.015249723568559" lon="9.47008827701211">
        <ele>1467.23</ele>
        <time>2023-11-26T09:52:02Z</time>
      </trkpt>
      <trkpt lat="46.015324993059039" lon="9.470157930627465">
        <ele>1467.8800000000001</ele>
        <time>2023-11-26T09:52:13Z</time>
      </trkpt>
      <trkpt lat="46.015380481258035" lon="9.470242001116276">
        <ele>1468.9300000000001</ele>
        <time>2023-11-26T09:52:24Z</time>
      </trkpt>
      <trkpt lat="46.015420043841004" lon="9.470261782407761">
        <ele>1469.6300000000001</ele>
        <time>2023-11-26T09:52:30Z</time>
      </trkpt>
      <trkpt lat="46.015436891466379" lon="9.470259770751">
        <ele>1469.5999999999999</ele>
        <time>2023-11-26T09:52:32Z</time>
      </trkpt>
      <trkpt lat="46.015527583658695" lon="9.470254490152001">
        <ele>1470.3199999999999</ele>
        <time>2023-11-26T09:52:44Z</time>
      </trkpt>
      <trkpt lat="46.015589190647006" lon="9.470308050513268">
        <ele>1471.0899999999999</ele>
        <time>2023-11-26T09:52:54Z</time>
      </trkpt>
      <trkpt lat="46.015667142346501" lon="9.470351887866855">
        <ele>1471.79</ele>
        <time>2023-11-26T09:53:05Z</time>
      </trkpt>
      <trkpt lat="46.015678960829973" lon="9.470352558419108">
        <ele>1471.7</ele>
        <time>2023-11-26T09:53:06Z</time>
      </trkpt>
      <trkpt lat="46.015749452635646" lon="9.470340739935637">
        <ele>1471.6099999999999</ele>
        <time>2023-11-26T09:53:16Z</time>
      </trkpt>
      <trkpt lat="46.015795972198248" lon="9.470331100746989">
        <ele>1471.52</ele>
        <time>2023-11-26T09:53:28Z</time>
      </trkpt>
      <trkpt lat="46.015862189233303" lon="9.470392959192395">
        <ele>1472.27</ele>
        <time>2023-11-26T09:53:40Z</time>
      </trkpt>
      <trkpt lat="46.015922538936138" lon="9.470484992489219">
        <ele>1471.6800000000001</ele>
        <time>2023-11-26T09:53:50Z</time>
      </trkpt>
      <trkpt lat="46.015966711565852" lon="9.470500415191054">
        <ele>1471.8</ele>
        <time>2023-11-26T09:53:56Z</time>
      </trkpt>
      <trkpt lat="46.016015075147152" lon="9.470513071864843">
        <ele>1472.0899999999999</ele>
        <time>2023-11-26T09:54:01Z</time>
      </trkpt>
      <trkpt lat="46.016026809811592" lon="9.470513910055161">
        <ele>1472.21</ele>
        <time>2023-11-26T09:54:02Z</time>
      </trkpt>
      <trkpt lat="46.016130996868014" lon="9.470582054927945">
        <ele>1474.73</ele>
        <time>2023-11-26T09:54:14Z</time>
      </trkpt>
      <trkpt lat="46.016141390427947" lon="9.470602171495557">
        <ele>1475.1600000000001</ele>
        <time>2023-11-26T09:54:16Z</time>
      </trkpt>
      <trkpt lat="46.016173996031284" lon="9.470638884231448">
        <ele>1476.3299999999999</ele>
        <time>2023-11-26T09:54:25Z</time>
      </trkpt>
      <trkpt lat="46.016210289672017" lon="9.470691857859492">
        <ele>1477.04</ele>
        <time>2023-11-26T09:54:41Z</time>
      </trkpt>
      <trkpt lat="46.016270639374852" lon="9.470823286101222">
        <ele>1478.5799999999999</ele>
        <time>2023-11-26T09:54:53Z</time>
      </trkpt>
      <trkpt lat="46.016284385696054" lon="9.470842983573675">
        <ele>1478.95</ele>
        <time>2023-11-26T09:54:55Z</time>
      </trkpt>
      <trkpt lat="46.016444060951471" lon="9.470912469550967">
        <ele>1481.79</ele>
        <time>2023-11-26T09:55:14Z</time>
      </trkpt>
      <trkpt lat="46.016538441181183" lon="9.470960665494204">
        <ele>1483.2</ele>
        <time>2023-11-26T09:55:27Z</time>
      </trkpt>
      <trkpt lat="46.016559731215239" lon="9.471025876700878">
        <ele>1483.3900000000001</ele>
        <time>2023-11-26T09:56:59Z</time>
      </trkpt>
      <trkpt lat="46.016577836126089" lon="9.471108438447118">
        <ele>1482.8</ele>
        <time>2023-11-26T09:57:15Z</time>
      </trkpt>
      <trkpt lat="46.016592923551798" lon="9.471157807856798">
        <ele>1482.76</ele>
        <time>2023-11-26T09:57:19Z</time>
      </trkpt>
      <trkpt lat="46.01660524494946" lon="9.471184797585011">
        <ele>1482.8299999999999</ele>
        <time>2023-11-26T09:57:21Z</time>
      </trkpt>
      <trkpt lat="46.016674982383847" lon="9.471340281888843">
        <ele>1483.21</ele>
        <time>2023-11-26T09:57:32Z</time>
      </trkpt>
      <trkpt lat="46.016707587987185" lon="9.471397614106536">
        <ele>1483.52</ele>
        <time>2023-11-26T09:57:36Z</time>
      </trkpt>
      <trkpt lat="46.016714964061975" lon="9.471411444246769">
        <ele>1483.47</ele>
        <time>2023-11-26T09:57:37Z</time>
      </trkpt>
      <trkpt lat="46.016722843050957" lon="9.471425442025065">
        <ele>1483.4000000000001</ele>
        <time>2023-11-26T09:57:38Z</time>
      </trkpt>
      <trkpt lat="46.016731895506382" lon="9.471436170861125">
        <ele>1483.51</ele>
        <time>2023-11-26T09:57:39Z</time>
      </trkpt>
      <trkpt lat="46.016741702333093" lon="9.471448408439755">
        <ele>1483.5599999999999</ele>
        <time>2023-11-26T09:57:40Z</time>
      </trkpt>
      <trkpt lat="46.016749329864979" lon="9.471460981294513">
        <ele>1483.53</ele>
        <time>2023-11-26T09:57:41Z</time>
      </trkpt>
      <trkpt lat="46.016758214682341" lon="9.471471961587668">
        <ele>1483.4400000000001</ele>
        <time>2023-11-26T09:57:42Z</time>
      </trkpt>
      <trkpt lat="46.016766764223576" lon="9.471479002386332">
        <ele>1483.54</ele>
        <time>2023-11-26T09:57:43Z</time>
      </trkpt>
      <trkpt lat="46.016895761713386" lon="9.471569275483489">
        <ele>1485.23</ele>
        <time>2023-11-26T09:57:57Z</time>
      </trkpt>
      <trkpt lat="46.017001960426569" lon="9.471621913835406">
        <ele>1486.4400000000001</ele>
        <time>2023-11-26T09:58:08Z</time>
      </trkpt>
      <trkpt lat="46.017101537436247" lon="9.471644125878811">
        <ele>1487.4000000000001</ele>
        <time>2023-11-26T09:58:18Z</time>
      </trkpt>
      <trkpt lat="46.017232881858945" lon="9.471650328487158">
        <ele>1487.5999999999999</ele>
        <time>2023-11-26T09:58:31Z</time>
      </trkpt>
      <trkpt lat="46.017365483567119" lon="9.471717970445752">
        <ele>1487.46</ele>
        <time>2023-11-26T09:58:44Z</time>
      </trkpt>
      <trkpt lat="46.017447123304009" lon="9.471896002069116">
        <ele>1487.1900000000001</ele>
        <time>2023-11-26T09:58:57Z</time>
      </trkpt>
      <trkpt lat="46.017476292327046" lon="9.472122229635716">
        <ele>1487.25</ele>
        <time>2023-11-26T09:59:10Z</time>
      </trkpt>
      <trkpt lat="46.017527170479298" lon="9.47233596816659">
        <ele>1487.7</ele>
        <time>2023-11-26T09:59:23Z</time>
      </trkpt>
      <trkpt lat="46.017643176019192" lon="9.472522297874093">
        <ele>1488.22</ele>
        <time>2023-11-26T09:59:37Z</time>
      </trkpt>
      <trkpt lat="46.017744010314345" lon="9.472767719998956">
        <ele>1489.52</ele>
        <time>2023-11-26T09:59:54Z</time>
      </trkpt>
      <trkpt lat="46.017859345301986" lon="9.472973495721817">
        <ele>1490.1900000000001</ele>
        <time>2023-11-26T10:00:09Z</time>
      </trkpt>
      <trkpt lat="46.017989097163081" lon="9.473170218989253">
        <ele>1491.4300000000001</ele>
        <time>2023-11-26T10:00:25Z</time>
      </trkpt>
      <trkpt lat="46.018109545111656" lon="9.473347077146173">
        <ele>1492.5599999999999</ele>
        <time>2023-11-26T10:00:40Z</time>
      </trkpt>
      <trkpt lat="46.01822261698544" lon="9.473486887291074">
        <ele>1493.55</ele>
        <time>2023-11-26T10:00:53Z</time>
      </trkpt>
      <trkpt lat="46.018355386331677" lon="9.473648490384221">
        <ele>1494.8099999999999</ele>
        <time>2023-11-26T10:01:08Z</time>
      </trkpt>
      <trkpt lat="46.018465692177415" lon="9.47379894554615">
        <ele>1496.01</ele>
        <time>2023-11-26T10:01:21Z</time>
      </trkpt>
      <trkpt lat="46.018584044650197" lon="9.473971528932452">
        <ele>1497.4200000000001</ele>
        <time>2023-11-26T10:01:36Z</time>
      </trkpt>
      <trkpt lat="46.018717819824815" lon="9.474185016006231">
        <ele>1498.6800000000001</ele>
        <time>2023-11-26T10:01:53Z</time>
      </trkpt>
      <trkpt lat="46.018854612484574" lon="9.474395485594869">
        <ele>1499.9400000000001</ele>
        <time>2023-11-26T10:02:10Z</time>
      </trkpt>
      <trkpt lat="46.018979251384735" lon="9.474568739533424">
        <ele>1500.6400000000001</ele>
        <time>2023-11-26T10:02:24Z</time>
      </trkpt>
      <trkpt lat="46.019120654091239" lon="9.474777197465301">
        <ele>1501.6199999999999</ele>
        <time>2023-11-26T10:02:41Z</time>
      </trkpt>
      <trkpt lat="46.019247053191066" lon="9.474933100864291">
        <ele>1502.5599999999999</ele>
        <time>2023-11-26T10:02:55Z</time>
      </trkpt>
      <trkpt lat="46.01930639706552" lon="9.475031001493335">
        <ele>1503.52</ele>
        <time>2023-11-26T10:03:04Z</time>
      </trkpt>
      <trkpt lat="46.019314611330628" lon="9.475043155252934">
        <ele>1503.6700000000001</ele>
        <time>2023-11-26T10:03:05Z</time>
      </trkpt>
      <trkpt lat="46.019323244690895" lon="9.475055309012532">
        <ele>1503.71</ele>
        <time>2023-11-26T10:03:06Z</time>
      </trkpt>
      <trkpt lat="46.019331458956003" lon="9.475066708400846">
        <ele>1503.7</ele>
        <time>2023-11-26T10:03:07Z</time>
      </trkpt>
      <trkpt lat="46.019340343773365" lon="9.475077940151095">
        <ele>1503.8299999999999</ele>
        <time>2023-11-26T10:03:08Z</time>
      </trkpt>
      <trkpt lat="46.019348725676537" lon="9.475090093910694">
        <ele>1503.8599999999999</ele>
        <time>2023-11-26T10:03:09Z</time>
      </trkpt>
      <trkpt lat="46.019457103684545" lon="9.475273489952087">
        <ele>1504.8499999999999</ele>
        <time>2023-11-26T10:03:23Z</time>
      </trkpt>
      <trkpt lat="46.019534301012754" lon="9.475420843809843">
        <ele>1506.2</ele>
        <time>2023-11-26T10:03:34Z</time>
      </trkpt>
      <trkpt lat="46.019606050103903" lon="9.475582195445895">
        <ele>1507.1800000000001</ele>
        <time>2023-11-26T10:03:46Z</time>
      </trkpt>
      <trkpt lat="46.019643098115921" lon="9.475681185722351">
        <ele>1507.8699999999999</ele>
        <time>2023-11-26T10:03:55Z</time>
      </trkpt>
      <trkpt lat="46.019622562453151" lon="9.475702894851565">
        <ele>1508.1099999999999</ele>
        <time>2023-11-26T10:04:02Z</time>
      </trkpt>
      <trkpt lat="46.019615605473518" lon="9.47571630589664">
        <ele>1508.1800000000001</ele>
        <time>2023-11-26T10:04:20Z</time>
      </trkpt>
      <trkpt lat="46.019696826115251" lon="9.47580624371767">
        <ele>1509.01</ele>
        <time>2023-11-26T10:04:31Z</time>
      </trkpt>
      <trkpt lat="46.019794140011072" lon="9.475901881232858">
        <ele>1510.8</ele>
        <time>2023-11-26T10:04:44Z</time>
      </trkpt>
      <trkpt lat="46.019862284883857" lon="9.476027442142367">
        <ele>1512.6400000000001</ele>
        <time>2023-11-26T10:04:57Z</time>
      </trkpt>
      <trkpt lat="46.019869074225426" lon="9.476101538166404">
        <ele>1513.6099999999999</ele>
        <time>2023-11-26T10:05:06Z</time>
      </trkpt>
      <trkpt lat="46.019870331510901" lon="9.476163228973746">
        <ele>1514.46</ele>
        <time>2023-11-26T10:05:11Z</time>
      </trkpt>
      <trkpt lat="46.019924310967326" lon="9.476386606693268">
        <ele>1516.1300000000001</ele>
        <time>2023-11-26T10:05:27Z</time>
      </trkpt>
      <trkpt lat="46.019934872165322" lon="9.476413512602449">
        <ele>1516.3199999999999</ele>
        <time>2023-11-26T10:05:29Z</time>
      </trkpt>
      <trkpt lat="46.019921880215406" lon="9.476438574492931">
        <ele>1516.23</ele>
        <time>2023-11-26T10:05:31Z</time>
      </trkpt>
      <trkpt lat="46.020002011209726" lon="9.476580396294594">
        <ele>1517.1300000000001</ele>
        <time>2023-11-26T10:05:43Z</time>
      </trkpt>
      <trkpt lat="46.020069569349289" lon="9.47666228748858">
        <ele>1517.7</ele>
        <time>2023-11-26T10:05:51Z</time>
      </trkpt>
      <trkpt lat="46.020101588219404" lon="9.476715931668878">
        <ele>1517.49</ele>
        <time>2023-11-26T10:05:55Z</time>
      </trkpt>
      <trkpt lat="46.020208457484841" lon="9.476905949413776">
        <ele>1517.49</ele>
        <time>2023-11-26T10:06:11Z</time>
      </trkpt>
      <trkpt lat="46.020259000360966" lon="9.477019691839814">
        <ele>1517.74</ele>
        <time>2023-11-26T10:06:21Z</time>
      </trkpt>
      <trkpt lat="46.020284481346607" lon="9.477052129805088">
        <ele>1517.75</ele>
        <time>2023-11-26T10:06:23Z</time>
      </trkpt>
      <trkpt lat="46.020294288173318" lon="9.477073000743985">
        <ele>1517.71</ele>
        <time>2023-11-26T10:06:24Z</time>
      </trkpt>
      <trkpt lat="46.020331671461463" lon="9.477174086496234">
        <ele>1518.0999999999999</ele>
        <time>2023-11-26T10:06:32Z</time>
      </trkpt>
      <trkpt lat="46.020340723916888" lon="9.477184982970357">
        <ele>1518.0599999999999</ele>
        <time>2023-11-26T10:06:33Z</time>
      </trkpt>
      <trkpt lat="46.020347848534584" lon="9.47719881311059">
        <ele>1518.1400000000001</ele>
        <time>2023-11-26T10:06:34Z</time>
      </trkpt>
      <trkpt lat="46.020357571542263" lon="9.477213984355331">
        <ele>1518.1700000000001</ele>
        <time>2023-11-26T10:06:35Z</time>
      </trkpt>
      <trkpt lat="46.020361762493849" lon="9.477227982133627">
        <ele>1518.23</ele>
        <time>2023-11-26T10:06:36Z</time>
      </trkpt>
      <trkpt lat="46.020365618169308" lon="9.477242231369019">
        <ele>1518.28</ele>
        <time>2023-11-26T10:06:37Z</time>
      </trkpt>
      <trkpt lat="46.020368551835418" lon="9.47725597769022">
        <ele>1518.4100000000001</ele>
        <time>2023-11-26T10:06:38Z</time>
      </trkpt>
      <trkpt lat="46.020403672009706" lon="9.477405594661832">
        <ele>1518.3800000000001</ele>
        <time>2023-11-26T10:06:48Z</time>
      </trkpt>
      <trkpt lat="46.020422950387001" lon="9.477431159466505">
        <ele>1518.3299999999999</ele>
        <time>2023-11-26T10:06:49Z</time>
      </trkpt>
      <trkpt lat="46.020433763042092" lon="9.477453622967005">
        <ele>1518.3900000000001</ele>
        <time>2023-11-26T10:06:50Z</time>
      </trkpt>
      <trkpt lat="46.020472403615713" lon="9.477642718702555">
        <ele>1519.26</ele>
        <time>2023-11-26T10:07:04Z</time>
      </trkpt>
      <trkpt lat="46.020470978692174" lon="9.477665098384023">
        <ele>1519.3399999999999</ele>
        <time>2023-11-26T10:07:07Z</time>
      </trkpt>
      <trkpt lat="46.020470559597015" lon="9.477679431438446">
        <ele>1519.3699999999999</ele>
        <time>2023-11-26T10:07:08Z</time>
      </trkpt>
      <trkpt lat="46.020538369193673" lon="9.477911107242107">
        <ele>1520.6500000000001</ele>
        <time>2023-11-26T10:07:24Z</time>
      </trkpt>
      <trkpt lat="46.020445330068469" lon="9.478096347302198">
        <ele>1520.78</ele>
        <time>2023-11-26T10:07:37Z</time>
      </trkpt>
      <trkpt lat="46.020431667566299" lon="9.478121409192681">
        <ele>1520.5699999999999</ele>
        <time>2023-11-26T10:07:39Z</time>
      </trkpt>
      <trkpt lat="46.02042194455862" lon="9.47813649661839">
        <ele>1520.79</ele>
        <time>2023-11-26T10:07:40Z</time>
      </trkpt>
      <trkpt lat="46.020410293713212" lon="9.478151416406035">
        <ele>1520.9000000000001</ele>
        <time>2023-11-26T10:07:41Z</time>
      </trkpt>
      <trkpt lat="46.020255144685507" lon="9.478347217664123">
        <ele>1520.6199999999999</ele>
        <time>2023-11-26T10:07:57Z</time>
      </trkpt>
      <trkpt lat="46.020165709778666" lon="9.478539079427719">
        <ele>1520.76</ele>
        <time>2023-11-26T10:08:10Z</time>
      </trkpt>
      <trkpt lat="46.020098989829421" lon="9.478727756068111">
        <ele>1522.0899999999999</ele>
        <time>2023-11-26T10:08:24Z</time>
      </trkpt>
      <trkpt lat="46.020093122497201" lon="9.478857843205333">
        <ele>1524.1800000000001</ele>
        <time>2023-11-26T10:08:35Z</time>
      </trkpt>
      <trkpt lat="46.020142072811723" lon="9.478982398286462">
        <ele>1526.72</ele>
        <time>2023-11-26T10:08:47Z</time>
      </trkpt>
      <trkpt lat="46.020204266533256" lon="9.479092117398977">
        <ele>1528.22</ele>
        <time>2023-11-26T10:08:58Z</time>
      </trkpt>
      <trkpt lat="46.020283391699195" lon="9.479195969179273">
        <ele>1529.5599999999999</ele>
        <time>2023-11-26T10:09:09Z</time>
      </trkpt>
      <trkpt lat="46.020368384197354" lon="9.479324128478766">
        <ele>1530.52</ele>
        <time>2023-11-26T10:09:21Z</time>
      </trkpt>
      <trkpt lat="46.020407946780324" lon="9.479503501206636">
        <ele>1532.2</ele>
        <time>2023-11-26T10:09:35Z</time>
      </trkpt>
      <trkpt lat="46.02042043581605" lon="9.479595366865397">
        <ele>1533.03</ele>
        <time>2023-11-26T10:09:42Z</time>
      </trkpt>
      <trkpt lat="46.020425800234079" lon="9.479792090132833">
        <ele>1535.53</ele>
        <time>2023-11-26T10:09:56Z</time>
      </trkpt>
      <trkpt lat="46.020416496321559" lon="9.479949753731489">
        <ele>1537.5699999999999</ele>
        <time>2023-11-26T10:10:08Z</time>
      </trkpt>
      <trkpt lat="46.020383471623063" lon="9.480060646310449">
        <ele>1539.52</ele>
        <time>2023-11-26T10:10:18Z</time>
      </trkpt>
      <trkpt lat="46.020372407510877" lon="9.480141280218959">
        <ele>1540.8599999999999</ele>
        <time>2023-11-26T10:10:25Z</time>
      </trkpt>
      <trkpt lat="46.020384561270475" lon="9.480231888592243">
        <ele>1542.27</ele>
        <time>2023-11-26T10:10:33Z</time>
      </trkpt>
      <trkpt lat="46.02038917131722" lon="9.480270529165864">
        <ele>1542.54</ele>
        <time>2023-11-26T10:10:36Z</time>
      </trkpt>
      <trkpt lat="46.020408701151609" lon="9.480454511940479">
        <ele>1543.46</ele>
        <time>2023-11-26T10:10:49Z</time>
      </trkpt>
      <trkpt lat="46.020454885438085" lon="9.480588873848319">
        <ele>1545.04</ele>
        <time>2023-11-26T10:11:01Z</time>
      </trkpt>
      <trkpt lat="46.020462093874812" lon="9.48059968650341">
        <ele>1545.25</ele>
        <time>2023-11-26T10:11:02Z</time>
      </trkpt>
      <trkpt lat="46.020541470497847" lon="9.480706471949816">
        <ele>1547.6199999999999</ele>
        <time>2023-11-26T10:11:15Z</time>
      </trkpt>
      <trkpt lat="46.02064180187881" lon="9.480836223810911">
        <ele>1550</ele>
        <time>2023-11-26T10:11:30Z</time>
      </trkpt>
      <trkpt lat="46.020722016692162" lon="9.480982488021255">
        <ele>1551.4400000000001</ele>
        <time>2023-11-26T10:11:44Z</time>
      </trkpt>
      <trkpt lat="46.020738696679473" lon="9.481133613735437">
        <ele>1553.03</ele>
        <time>2023-11-26T10:11:56Z</time>
      </trkpt>
      <trkpt lat="46.020747665315866" lon="9.481189018115401">
        <ele>1553.27</ele>
        <time>2023-11-26T10:12:00Z</time>
      </trkpt>
      <trkpt lat="46.020751437172294" lon="9.481202261522412">
        <ele>1553.1800000000001</ele>
        <time>2023-11-26T10:12:01Z</time>
      </trkpt>
      <trkpt lat="46.020774152129889" lon="9.481382137164474">
        <ele>1553.99</ele>
        <time>2023-11-26T10:12:14Z</time>
      </trkpt>
      <trkpt lat="46.02080793119967" lon="9.481573160737753">
        <ele>1554.75</ele>
        <time>2023-11-26T10:12:27Z</time>
      </trkpt>
      <trkpt lat="46.020835088565946" lon="9.481757562607527">
        <ele>1555.8599999999999</ele>
        <time>2023-11-26T10:12:40Z</time>
      </trkpt>
      <trkpt lat="46.020871549844742" lon="9.481955459341407">
        <ele>1557.55</ele>
        <time>2023-11-26T10:12:54Z</time>
      </trkpt>
      <trkpt lat="46.020903065800667" lon="9.482139190658927">
        <ele>1559.2</ele>
        <time>2023-11-26T10:13:07Z</time>
      </trkpt>
      <trkpt lat="46.020908765494823" lon="9.482151176780462">
        <ele>1559.4200000000001</ele>
        <time>2023-11-26T10:13:08Z</time>
      </trkpt>
      <trkpt lat="46.020915303379297" lon="9.482162911444902">
        <ele>1559.5699999999999</ele>
        <time>2023-11-26T10:13:09Z</time>
      </trkpt>
      <trkpt lat="46.021033320575953" lon="9.482330549508333">
        <ele>1560.3299999999999</ele>
        <time>2023-11-26T10:13:25Z</time>
      </trkpt>
      <trkpt lat="46.021159300580621" lon="9.482412692159414">
        <ele>1558.55</ele>
        <time>2023-11-26T10:13:37Z</time>
      </trkpt>
      <trkpt lat="46.021312940865755" lon="9.482542863115668">
        <ele>1557.2</ele>
        <time>2023-11-26T10:13:53Z</time>
      </trkpt>
      <trkpt lat="46.021455600857735" lon="9.482767917215824">
        <ele>1557.25</ele>
        <time>2023-11-26T10:14:12Z</time>
      </trkpt>
      <trkpt lat="46.02154235355556" lon="9.483017278835177">
        <ele>1558.01</ele>
        <time>2023-11-26T10:14:29Z</time>
      </trkpt>
      <trkpt lat="46.021559201180935" lon="9.483272926881909">
        <ele>1558.8199999999999</ele>
        <time>2023-11-26T10:14:44Z</time>
      </trkpt>
      <trkpt lat="46.021565068513155" lon="9.483519522473216">
        <ele>1560.3499999999999</ele>
        <time>2023-11-26T10:14:59Z</time>
      </trkpt>
      <trkpt lat="46.021591639146209" lon="9.483711551874876">
        <ele>1562.4400000000001</ele>
        <time>2023-11-26T10:15:12Z</time>
      </trkpt>
      <trkpt lat="46.021613432094455" lon="9.483872232958674">
        <ele>1564.0899999999999</ele>
        <time>2023-11-26T10:15:24Z</time>
      </trkpt>
      <trkpt lat="46.021615946665406" lon="9.483948675915599">
        <ele>1564.5599999999999</ele>
        <time>2023-11-26T10:15:32Z</time>
      </trkpt>
      <trkpt lat="46.021620305255055" lon="9.48397608473897">
        <ele>1564.72</ele>
        <time>2023-11-26T10:15:34Z</time>
      </trkpt>
      <trkpt lat="46.021622149273753" lon="9.483991339802742">
        <ele>1564.9200000000001</ele>
        <time>2023-11-26T10:15:35Z</time>
      </trkpt>
      <trkpt lat="46.021639332175255" lon="9.484183620661497">
        <ele>1566.78</ele>
        <time>2023-11-26T10:15:49Z</time>
      </trkpt>
      <trkpt lat="46.021644277498126" lon="9.484212286770344">
        <ele>1567.05</ele>
        <time>2023-11-26T10:15:51Z</time>
      </trkpt>
      <trkpt lat="46.021653832867742" lon="9.484325693920255">
        <ele>1568.3599999999999</ele>
        <time>2023-11-26T10:16:00Z</time>
      </trkpt>
      <trkpt lat="46.021661711856723" lon="9.484347905963659">
        <ele>1568.6099999999999</ele>
        <time>2023-11-26T10:16:02Z</time>
      </trkpt>
      <trkpt lat="46.021689288318157" lon="9.4844925776124">
        <ele>1569.9400000000001</ele>
        <time>2023-11-26T10:16:14Z</time>
      </trkpt>
      <trkpt lat="46.021692557260394" lon="9.48464211076498">
        <ele>1571.55</ele>
        <time>2023-11-26T10:16:26Z</time>
      </trkpt>
      <trkpt lat="46.021697418764234" lon="9.484708327800036">
        <ele>1572.55</ele>
        <time>2023-11-26T10:16:32Z</time>
      </trkpt>
      <trkpt lat="46.021697083488107" lon="9.484746884554625">
        <ele>1572.9000000000001</ele>
        <time>2023-11-26T10:16:35Z</time>
      </trkpt>
      <trkpt lat="46.021701693534851" lon="9.484862722456455">
        <ele>1574.8699999999999</ele>
        <time>2023-11-26T10:16:46Z</time>
      </trkpt>
      <trkpt lat="46.021733963862062" lon="9.484960287809372">
        <ele>1576.02</ele>
        <time>2023-11-26T10:16:56Z</time>
      </trkpt>
      <trkpt lat="46.021730778738856" lon="9.485064977779985">
        <ele>1577.54</ele>
        <time>2023-11-26T10:17:07Z</time>
      </trkpt>
      <trkpt lat="46.021711081266403" lon="9.485172182321549">
        <ele>1579.0599999999999</ele>
        <time>2023-11-26T10:17:18Z</time>
      </trkpt>
      <trkpt lat="46.021701609715819" lon="9.485269747674465">
        <ele>1581.02</ele>
        <time>2023-11-26T10:17:29Z</time>
      </trkpt>
      <trkpt lat="46.021700939163566" lon="9.485406456515193">
        <ele>1582.53</ele>
        <time>2023-11-26T10:17:41Z</time>
      </trkpt>
      <trkpt lat="46.021703369915485" lon="9.48541852645576">
        <ele>1582.6300000000001</ele>
        <time>2023-11-26T10:17:42Z</time>
      </trkpt>
      <trkpt lat="46.021702447906137" lon="9.485493544489145">
        <ele>1583.8499999999999</ele>
        <time>2023-11-26T10:17:49Z</time>
      </trkpt>
      <trkpt lat="46.021697921678424" lon="9.485524473711848">
        <ele>1584.1600000000001</ele>
        <time>2023-11-26T10:17:51Z</time>
      </trkpt>
      <trkpt lat="46.02170211263001" lon="9.48556168936193">
        <ele>1584.1600000000001</ele>
        <time>2023-11-26T10:17:54Z</time>
      </trkpt>
      <trkpt lat="46.021703453734517" lon="9.485662942752242">
        <ele>1585.0599999999999</ele>
        <time>2023-11-26T10:18:02Z</time>
      </trkpt>
      <trkpt lat="46.021710662171245" lon="9.485819935798645">
        <ele>1586.76</ele>
        <time>2023-11-26T10:18:15Z</time>
      </trkpt>
      <trkpt lat="46.02172901853919" lon="9.486003248021007">
        <ele>1588.03</ele>
        <time>2023-11-26T10:18:29Z</time>
      </trkpt>
      <trkpt lat="46.021730192005634" lon="9.486159821972251">
        <ele>1589.29</ele>
        <time>2023-11-26T10:18:42Z</time>
      </trkpt>
      <trkpt lat="46.02167034521699" lon="9.486232241615653">
        <ele>1591.01</ele>
        <time>2023-11-26T10:18:53Z</time>
      </trkpt>
      <trkpt lat="46.021619886159897" lon="9.486249424517155">
        <ele>1592.72</ele>
        <time>2023-11-26T10:19:02Z</time>
      </trkpt>
      <trkpt lat="46.021579317748547" lon="9.486270630732179">
        <ele>1593.6800000000001</ele>
        <time>2023-11-26T10:19:14Z</time>
      </trkpt>
      <trkpt lat="46.021527769044042" lon="9.486298207193613">
        <ele>1593.78</ele>
        <time>2023-11-26T10:19:26Z</time>
      </trkpt>
      <trkpt lat="46.021517375484109" lon="9.486302649602294">
        <ele>1593.6600000000001</ele>
        <time>2023-11-26T10:19:27Z</time>
      </trkpt>
      <trkpt lat="46.021454846486449" lon="9.48635084554553">
        <ele>1594</ele>
        <time>2023-11-26T10:19:39Z</time>
      </trkpt>
      <trkpt lat="46.021424923092127" lon="9.486409854143858">
        <ele>1592.9300000000001</ele>
        <time>2023-11-26T10:22:16Z</time>
      </trkpt>
      <trkpt lat="46.021416373550892" lon="9.486423768103123">
        <ele>1592.79</ele>
        <time>2023-11-26T10:26:07Z</time>
      </trkpt>
      <trkpt lat="46.021422995254397" lon="9.486535582691431">
        <ele>1592.4200000000001</ele>
        <time>2023-11-26T10:26:14Z</time>
      </trkpt>
      <trkpt lat="46.021402375772595" lon="9.486623089760542">
        <ele>1591.8800000000001</ele>
        <time>2023-11-26T10:26:22Z</time>
      </trkpt>
      <trkpt lat="46.021415619179606" lon="9.486673045903444">
        <ele>1591.73</ele>
        <time>2023-11-26T10:26:26Z</time>
      </trkpt>
      <trkpt lat="46.021414697170258" lon="9.486680924892426">
        <ele>1591.7</ele>
        <time>2023-11-26T10:26:27Z</time>
      </trkpt>
      <trkpt lat="46.021413188427687" lon="9.486715374514461">
        <ele>1591.6600000000001</ele>
        <time>2023-11-26T10:26:50Z</time>
      </trkpt>
      <trkpt lat="46.02141042239964" lon="9.486708668991923">
        <ele>1592.1500000000001</ele>
        <time>2023-11-26T10:27:13Z</time>
      </trkpt>
      <trkpt lat="46.021396424621344" lon="9.486655863001943">
        <ele>1591.76</ele>
        <time>2023-11-26T10:27:45Z</time>
      </trkpt>
      <trkpt lat="46.021395921707153" lon="9.486581683158875">
        <ele>1591.9100000000001</ele>
        <time>2023-11-26T10:27:55Z</time>
      </trkpt>
      <trkpt lat="46.021406566724181" lon="9.486530050635338">
        <ele>1592.45</ele>
        <time>2023-11-26T10:28:08Z</time>
      </trkpt>
      <trkpt lat="46.021426515653729" lon="9.486517310142517">
        <ele>1593.23</ele>
        <time>2023-11-26T10:28:38Z</time>
      </trkpt>
      <trkpt lat="46.021421905606985" lon="9.486422929912806">
        <ele>1592.23</ele>
        <time>2023-11-26T10:31:06Z</time>
      </trkpt>
      <trkpt lat="46.021524583920836" lon="9.486202066764236">
        <ele>1591.3900000000001</ele>
        <time>2023-11-26T10:32:35Z</time>
      </trkpt>
      <trkpt lat="46.021555764600635" lon="9.486177088692784">
        <ele>1590.72</ele>
        <time>2023-11-26T10:32:40Z</time>
      </trkpt>
      <trkpt lat="46.021594321355224" lon="9.486158061772585">
        <ele>1590.3299999999999</ele>
        <time>2023-11-26T10:32:44Z</time>
      </trkpt>
      <trkpt lat="46.021681744605303" lon="9.486136520281434">
        <ele>1588.8599999999999</ele>
        <time>2023-11-26T10:32:56Z</time>
      </trkpt>
      <trkpt lat="46.02169674821198" lon="9.486037362366915">
        <ele>1587.29</ele>
        <time>2023-11-26T10:33:06Z</time>
      </trkpt>
      <trkpt lat="46.021701861172915" lon="9.485895372927189">
        <ele>1585.76</ele>
        <time>2023-11-26T10:33:18Z</time>
      </trkpt>
      <trkpt lat="46.021700771525502" lon="9.485880453139544">
        <ele>1585.6500000000001</ele>
        <time>2023-11-26T10:33:19Z</time>
      </trkpt>
      <trkpt lat="46.021687109023333" lon="9.485811302438378">
        <ele>1585.3599999999999</ele>
        <time>2023-11-26T10:33:25Z</time>
      </trkpt>
      <trkpt lat="46.021680487319827" lon="9.48579965159297">
        <ele>1585.26</ele>
        <time>2023-11-26T10:33:26Z</time>
      </trkpt>
      <trkpt lat="46.021665399894118" lon="9.485660092905164">
        <ele>1584.5899999999999</ele>
        <time>2023-11-26T10:33:38Z</time>
      </trkpt>
      <trkpt lat="46.021649725735188" lon="9.485503183677793">
        <ele>1582.1300000000001</ele>
        <time>2023-11-26T10:33:53Z</time>
      </trkpt>
      <trkpt lat="46.021662130951881" lon="9.485432440415025">
        <ele>1581.5</ele>
        <time>2023-11-26T10:34:02Z</time>
      </trkpt>
      <trkpt lat="46.021661879494786" lon="9.485327834263444">
        <ele>1579.6300000000001</ele>
        <time>2023-11-26T10:34:11Z</time>
      </trkpt>
      <trkpt lat="46.021674033254385" lon="9.485218785703182">
        <ele>1578.1900000000001</ele>
        <time>2023-11-26T10:34:22Z</time>
      </trkpt>
      <trkpt lat="46.021671183407307" lon="9.485069420188665">
        <ele>1575.4400000000001</ele>
        <time>2023-11-26T10:34:36Z</time>
      </trkpt>
      <trkpt lat="46.021701861172915" lon="9.484947631135583">
        <ele>1573.7</ele>
        <time>2023-11-26T10:34:49Z</time>
      </trkpt>
      <trkpt lat="46.021689875051379" lon="9.484876804053783">
        <ele>1572.6300000000001</ele>
        <time>2023-11-26T10:34:59Z</time>
      </trkpt>
      <trkpt lat="46.021690042689443" lon="9.484837576746941">
        <ele>1571.71</ele>
        <time>2023-11-26T10:35:02Z</time>
      </trkpt>
      <trkpt lat="46.02168794721365" lon="9.484822070226073">
        <ele>1571.3099999999999</ele>
        <time>2023-11-26T10:35:03Z</time>
      </trkpt>
      <trkpt lat="46.021686857566237" lon="9.484806060791016">
        <ele>1570.9400000000001</ele>
        <time>2023-11-26T10:35:04Z</time>
      </trkpt>
      <trkpt lat="46.021687025204301" lon="9.484790470451117">
        <ele>1570.9000000000001</ele>
        <time>2023-11-26T10:35:05Z</time>
      </trkpt>
      <trkpt lat="46.021686689928174" lon="9.48477596975863">
        <ele>1570.6700000000001</ele>
        <time>2023-11-26T10:35:06Z</time>
      </trkpt>
      <trkpt lat="46.021686187013984" lon="9.484760966151953">
        <ele>1570.51</ele>
        <time>2023-11-26T10:35:07Z</time>
      </trkpt>
      <trkpt lat="46.021691635251045" lon="9.484589304775">
        <ele>1568.49</ele>
        <time>2023-11-26T10:35:20Z</time>
      </trkpt>
      <trkpt lat="46.021691132336855" lon="9.484551334753633">
        <ele>1568.49</ele>
        <time>2023-11-26T10:35:26Z</time>
      </trkpt>
      <trkpt lat="46.021676296368241" lon="9.484511185437441">
        <ele>1568.05</ele>
        <time>2023-11-26T10:35:29Z</time>
      </trkpt>
      <trkpt lat="46.0216732788831" lon="9.484496936202049">
        <ele>1568.1199999999999</ele>
        <time>2023-11-26T10:35:30Z</time>
      </trkpt>
      <trkpt lat="46.021670429036021" lon="9.484482519328594">
        <ele>1567.97</ele>
        <time>2023-11-26T10:35:31Z</time>
      </trkpt>
      <trkpt lat="46.021670261397958" lon="9.484410518780351">
        <ele>1567.3</ele>
        <time>2023-11-26T10:35:36Z</time>
      </trkpt>
      <trkpt lat="46.021675122901797" lon="9.484382523223758">
        <ele>1566.8399999999999</ele>
        <time>2023-11-26T10:35:38Z</time>
      </trkpt>
      <trkpt lat="46.021659364923835" lon="9.484355030581355">
        <ele>1566.3900000000001</ele>
        <time>2023-11-26T10:35:41Z</time>
      </trkpt>
      <trkpt lat="46.021649893373251" lon="9.484348576515913">
        <ele>1566.0999999999999</ele>
        <time>2023-11-26T10:35:42Z</time>
      </trkpt>
      <trkpt lat="46.021640170365572" lon="9.484310019761324">
        <ele>1566.49</ele>
        <time>2023-11-26T10:35:45Z</time>
      </trkpt>
      <trkpt lat="46.021637991070747" lon="9.484291998669505">
        <ele>1566.23</ele>
        <time>2023-11-26T10:35:46Z</time>
      </trkpt>
      <trkpt lat="46.021617706865072" lon="9.48408605530858">
        <ele>1564.46</ele>
        <time>2023-11-26T10:36:00Z</time>
      </trkpt>
      <trkpt lat="46.021613767370582" lon="9.48398781940341">
        <ele>1563.4400000000001</ele>
        <time>2023-11-26T10:36:07Z</time>
      </trkpt>
      <trkpt lat="46.021572528406978" lon="9.483775421977043">
        <ele>1561.76</ele>
        <time>2023-11-26T10:36:22Z</time>
      </trkpt>
      <trkpt lat="46.021558195352554" lon="9.483589343726635">
        <ele>1559.99</ele>
        <time>2023-11-26T10:36:34Z</time>
      </trkpt>
      <trkpt lat="46.021561129018664" lon="9.483557743951678">
        <ele>1559.5799999999999</ele>
        <time>2023-11-26T10:36:37Z</time>
      </trkpt>
      <trkpt lat="46.021559871733189" lon="9.483541902154684">
        <ele>1559.4300000000001</ele>
        <time>2023-11-26T10:36:38Z</time>
      </trkpt>
      <trkpt lat="46.0215472150594" lon="9.483312154188752">
        <ele>1557.55</ele>
        <time>2023-11-26T10:36:53Z</time>
      </trkpt>
      <trkpt lat="46.021550064906478" lon="9.483235543593764">
        <ele>1557.0799999999999</ele>
        <time>2023-11-26T10:37:03Z</time>
      </trkpt>
      <trkpt lat="46.021556183695793" lon="9.483207883313298">
        <ele>1557.05</ele>
        <time>2023-11-26T10:37:05Z</time>
      </trkpt>
      <trkpt lat="46.02156138047576" lon="9.48319137096405">
        <ele>1557.01</ele>
        <time>2023-11-26T10:37:06Z</time>
      </trkpt>
      <trkpt lat="46.021598931401968" lon="9.48309313505888">
        <ele>1558.48</ele>
        <time>2023-11-26T10:37:17Z</time>
      </trkpt>
      <trkpt lat="46.021610330790281" lon="9.483037563040853">
        <ele>1557.9300000000001</ele>
        <time>2023-11-26T10:37:21Z</time>
      </trkpt>
      <trkpt lat="46.021623993292451" lon="9.482919881120324">
        <ele>1557.5999999999999</ele>
        <time>2023-11-26T10:37:29Z</time>
      </trkpt>
      <trkpt lat="46.021623238921165" lon="9.482904374599457">
        <ele>1557.46</ele>
        <time>2023-11-26T10:37:30Z</time>
      </trkpt>
      <trkpt lat="46.02155945263803" lon="9.48270857334137">
        <ele>1555.73</ele>
        <time>2023-11-26T10:37:45Z</time>
      </trkpt>
      <trkpt lat="46.02152282372117" lon="9.482586784288287">
        <ele>1556.0999999999999</ele>
        <time>2023-11-26T10:37:56Z</time>
      </trkpt>
      <trkpt lat="46.021455433219671" lon="9.482558537274599">
        <ele>1555.8599999999999</ele>
        <time>2023-11-26T10:38:04Z</time>
      </trkpt>
      <trkpt lat="46.021343786269426" lon="9.482533726841211">
        <ele>1554.53</ele>
        <time>2023-11-26T10:38:16Z</time>
      </trkpt>
      <trkpt lat="46.021291483193636" lon="9.482526602223516">
        <ele>1554.46</ele>
        <time>2023-11-26T10:38:26Z</time>
      </trkpt>
      <trkpt lat="46.02128092199564" lon="9.482519226148725">
        <ele>1554.5599999999999</ele>
        <time>2023-11-26T10:38:27Z</time>
      </trkpt>
      <trkpt lat="46.02127019315958" lon="9.482511095702648">
        <ele>1554.46</ele>
        <time>2023-11-26T10:38:28Z</time>
      </trkpt>
      <trkpt lat="46.021251920610666" lon="9.48249751701951">
        <ele>1554.5599999999999</ele>
        <time>2023-11-26T10:38:30Z</time>
      </trkpt>
      <trkpt lat="46.021242532879114" lon="9.482489051297307">
        <ele>1554.76</ele>
        <time>2023-11-26T10:38:31Z</time>
      </trkpt>
      <trkpt lat="46.021234067156911" lon="9.482479328289628">
        <ele>1554.9400000000001</ele>
        <time>2023-11-26T10:38:32Z</time>
      </trkpt>
      <trkpt lat="46.021122839301825" lon="9.48237581178546">
        <ele>1556.04</ele>
        <time>2023-11-26T10:38:46Z</time>
      </trkpt>
      <trkpt lat="46.021050335839391" lon="9.48233088478446">
        <ele>1557.1900000000001</ele>
        <time>2023-11-26T10:38:56Z</time>
      </trkpt>
      <trkpt lat="46.020960481837392" lon="9.482226278632879">
        <ele>1557.3399999999999</ele>
        <time>2023-11-26T10:39:09Z</time>
      </trkpt>
      <trkpt lat="46.020921338349581" lon="9.482134580612183">
        <ele>1556.76</ele>
        <time>2023-11-26T10:39:23Z</time>
      </trkpt>
      <trkpt lat="46.020914129912853" lon="9.482121085748076">
        <ele>1556.8399999999999</ele>
        <time>2023-11-26T10:39:34Z</time>
      </trkpt>
      <trkpt lat="46.020909016951919" lon="9.482107004150748">
        <ele>1556.8299999999999</ele>
        <time>2023-11-26T10:39:35Z</time>
      </trkpt>
      <trkpt lat="46.020904155448079" lon="9.48209342546761">
        <ele>1556.6500000000001</ele>
        <time>2023-11-26T10:39:36Z</time>
      </trkpt>
      <trkpt lat="46.020897952839732" lon="9.482078086584806">
        <ele>1556.51</ele>
        <time>2023-11-26T10:39:37Z</time>
      </trkpt>
      <trkpt lat="46.020892588421702" lon="9.482062244787812">
        <ele>1556.3699999999999</ele>
        <time>2023-11-26T10:39:38Z</time>
      </trkpt>
      <trkpt lat="46.020888816565275" lon="9.482045480981469">
        <ele>1556.1300000000001</ele>
        <time>2023-11-26T10:39:39Z</time>
      </trkpt>
      <trkpt lat="46.020862245932221" lon="9.481833167374134">
        <ele>1554.76</ele>
        <time>2023-11-26T10:39:52Z</time>
      </trkpt>
      <trkpt lat="46.020825449377298" lon="9.48159939609468">
        <ele>1552.8900000000001</ele>
        <time>2023-11-26T10:40:07Z</time>
      </trkpt>
      <trkpt lat="46.020781779661775" lon="9.481359757483006">
        <ele>1552.3199999999999</ele>
        <time>2023-11-26T10:40:22Z</time>
      </trkpt>
      <trkpt lat="46.020729392766953" lon="9.481102684512734">
        <ele>1551.1700000000001</ele>
        <time>2023-11-26T10:40:38Z</time>
      </trkpt>
      <trkpt lat="46.020662588998675" lon="9.480883330106735">
        <ele>1548.76</ele>
        <time>2023-11-26T10:40:53Z</time>
      </trkpt>
      <trkpt lat="46.02056653238833" lon="9.480624916031957">
        <ele>1546.74</ele>
        <time>2023-11-26T10:41:10Z</time>
      </trkpt>
      <trkpt lat="46.020544236525893" lon="9.480523746460676">
        <ele>1546.1099999999999</ele>
        <time>2023-11-26T10:41:16Z</time>
      </trkpt>
      <trkpt lat="46.020537698641419" lon="9.480508994311094">
        <ele>1545.8099999999999</ele>
        <time>2023-11-26T10:41:17Z</time>
      </trkpt>
      <trkpt lat="46.020535100251436" lon="9.480493236333132">
        <ele>1545.8099999999999</ele>
        <time>2023-11-26T10:41:18Z</time>
      </trkpt>
      <trkpt lat="46.020534178242087" lon="9.48047798126936">
        <ele>1545.8099999999999</ele>
        <time>2023-11-26T10:41:19Z</time>
      </trkpt>
      <trkpt lat="46.020531998947263" lon="9.48046188801527">
        <ele>1545.55</ele>
        <time>2023-11-26T10:41:20Z</time>
      </trkpt>
      <trkpt lat="46.020529735833406" lon="9.480443364009261">
        <ele>1545.3599999999999</ele>
        <time>2023-11-26T10:41:21Z</time>
      </trkpt>
      <trkpt lat="46.02045320905745" lon="9.480202216655016">
        <ele>1543.3</ele>
        <time>2023-11-26T10:41:36Z</time>
      </trkpt>
      <trkpt lat="46.020468128845096" lon="9.48001429438591">
        <ele>1541.6400000000001</ele>
        <time>2023-11-26T10:41:48Z</time>
      </trkpt>
      <trkpt lat="46.020485144108534" lon="9.47986425831914">
        <ele>1539.8399999999999</ele>
        <time>2023-11-26T10:42:00Z</time>
      </trkpt>
      <trkpt lat="46.020491765812039" lon="9.479752527549863">
        <ele>1538.25</ele>
        <time>2023-11-26T10:42:10Z</time>
      </trkpt>
      <trkpt lat="46.020481204614043" lon="9.47969033382833">
        <ele>1536.97</ele>
        <time>2023-11-26T10:42:17Z</time>
      </trkpt>
      <trkpt lat="46.020464356988668" lon="9.479640126228333">
        <ele>1536</ele>
        <time>2023-11-26T10:42:21Z</time>
      </trkpt>
      <trkpt lat="46.020440049469471" lon="9.479436697438359">
        <ele>1533.8199999999999</ele>
        <time>2023-11-26T10:42:34Z</time>
      </trkpt>
      <trkpt lat="46.020416161045432" lon="9.479266544803977">
        <ele>1534.0899999999999</ele>
        <time>2023-11-26T10:42:45Z</time>
      </trkpt>
      <trkpt lat="46.020373497158289" lon="9.478986421599984">
        <ele>1534.03</ele>
        <time>2023-11-26T10:43:02Z</time>
      </trkpt>
      <trkpt lat="46.020367965102196" lon="9.478733288124204">
        <ele>1534.95</ele>
        <time>2023-11-26T10:43:19Z</time>
      </trkpt>
      <trkpt lat="46.020394619554281" lon="9.478657683357596">
        <ele>1533.99</ele>
        <time>2023-11-26T10:43:29Z</time>
      </trkpt>
      <trkpt lat="46.020380621775985" lon="9.478616276755929">
        <ele>1531.8399999999999</ele>
        <time>2023-11-26T10:43:37Z</time>
      </trkpt>
      <trkpt lat="46.020399900153279" lon="9.478501109406352">
        <ele>1529.3299999999999</ele>
        <time>2023-11-26T10:43:47Z</time>
      </trkpt>
      <trkpt lat="46.020440636202693" lon="9.47834269143641">
        <ele>1526.27</ele>
        <time>2023-11-26T10:44:00Z</time>
      </trkpt>
      <trkpt lat="46.020445665344596" lon="9.478255687281489">
        <ele>1523.5599999999999</ele>
        <time>2023-11-26T10:44:09Z</time>
      </trkpt>
      <trkpt lat="46.020506601780653" lon="9.478093665093184">
        <ele>1520.51</ele>
        <time>2023-11-26T10:44:21Z</time>
      </trkpt>
      <trkpt lat="46.020519929006696" lon="9.477881686761975">
        <ele>1518.3199999999999</ele>
        <time>2023-11-26T10:44:34Z</time>
      </trkpt>
      <trkpt lat="46.02043267339468" lon="9.477672390639782">
        <ele>1517.6400000000001</ele>
        <time>2023-11-26T10:44:49Z</time>
      </trkpt>
      <trkpt lat="46.020390093326569" lon="9.477537358179689">
        <ele>1518.21</ele>
        <time>2023-11-26T10:44:58Z</time>
      </trkpt>
      <trkpt lat="46.020316248759627" lon="9.477301491424441">
        <ele>1516.5999999999999</ele>
        <time>2023-11-26T10:45:13Z</time>
      </trkpt>
      <trkpt lat="46.020269310101867" lon="9.477006699889898">
        <ele>1516.71</ele>
        <time>2023-11-26T10:45:31Z</time>
      </trkpt>
      <trkpt lat="46.02022061124444" lon="9.476763121783733">
        <ele>1517.0999999999999</ele>
        <time>2023-11-26T10:45:46Z</time>
      </trkpt>
      <trkpt lat="46.020197309553623" lon="9.476558351889253">
        <ele>1518.6900000000001</ele>
        <time>2023-11-26T10:45:59Z</time>
      </trkpt>
      <trkpt lat="46.020204769447446" lon="9.476392976939678">
        <ele>1519.47</ele>
        <time>2023-11-26T10:46:09Z</time>
      </trkpt>
      <trkpt lat="46.020187335088849" lon="9.47617756202817">
        <ele>1519.76</ele>
        <time>2023-11-26T10:46:23Z</time>
      </trkpt>
      <trkpt lat="46.020114663988352" lon="9.475968098267913">
        <ele>1517.6500000000001</ele>
        <time>2023-11-26T10:46:37Z</time>
      </trkpt>
      <trkpt lat="46.020058086141944" lon="9.47570507414639">
        <ele>1515.53</ele>
        <time>2023-11-26T10:46:53Z</time>
      </trkpt>
      <trkpt lat="46.020011566579342" lon="9.47545881383121">
        <ele>1513.8699999999999</ele>
        <time>2023-11-26T10:47:07Z</time>
      </trkpt>
      <trkpt lat="46.019889526069164" lon="9.475178942084312">
        <ele>1512.0599999999999</ele>
        <time>2023-11-26T10:47:25Z</time>
      </trkpt>
      <trkpt lat="46.019772682338953" lon="9.474922372028232">
        <ele>1511.0599999999999</ele>
        <time>2023-11-26T10:47:41Z</time>
      </trkpt>
      <trkpt lat="46.019754493609071" lon="9.474865542724729">
        <ele>1511.4200000000001</ele>
        <time>2023-11-26T10:47:50Z</time>
      </trkpt>
      <trkpt lat="46.019748207181692" lon="9.474856909364462">
        <ele>1511.46</ele>
        <time>2023-11-26T10:47:51Z</time>
      </trkpt>
      <trkpt lat="46.019739825278521" lon="9.47484165430069">
        <ele>1511.1700000000001</ele>
        <time>2023-11-26T10:47:52Z</time>
      </trkpt>
      <trkpt lat="46.019732616841793" lon="9.474823717027903">
        <ele>1510.8599999999999</ele>
        <time>2023-11-26T10:47:53Z</time>
      </trkpt>
      <trkpt lat="46.0197270847857" lon="9.474805779755116">
        <ele>1510.78</ele>
        <time>2023-11-26T10:47:54Z</time>
      </trkpt>
      <trkpt lat="46.019720965996385" lon="9.474790189415216">
        <ele>1510.75</ele>
        <time>2023-11-26T10:47:55Z</time>
      </trkpt>
      <trkpt lat="46.019713673740625" lon="9.474776023998857">
        <ele>1510.53</ele>
        <time>2023-11-26T10:47:56Z</time>
      </trkpt>
      <trkpt lat="46.019706884399056" lon="9.474761355668306">
        <ele>1510.51</ele>
        <time>2023-11-26T10:47:57Z</time>
      </trkpt>
      <trkpt lat="46.019701017066836" lon="9.474745681509376">
        <ele>1510.6600000000001</ele>
        <time>2023-11-26T10:47:58Z</time>
      </trkpt>
      <trkpt lat="46.019695401191711" lon="9.474730174988508">
        <ele>1510.74</ele>
        <time>2023-11-26T10:47:59Z</time>
      </trkpt>
      <trkpt lat="46.019605798646808" lon="9.474509144201875">
        <ele>1510.5799999999999</ele>
        <time>2023-11-26T10:48:14Z</time>
      </trkpt>
      <trkpt lat="46.01949549280107" lon="9.474286939948797">
        <ele>1509.9000000000001</ele>
        <time>2023-11-26T10:48:29Z</time>
      </trkpt>
      <trkpt lat="46.019391138106585" lon="9.474052917212248">
        <ele>1509.3599999999999</ele>
        <time>2023-11-26T10:48:45Z</time>
      </trkpt>
      <trkpt lat="46.019314443692565" lon="9.473873125389218">
        <ele>1508.0799999999999</ele>
        <time>2023-11-26T10:48:57Z</time>
      </trkpt>
      <trkpt lat="46.019237665459514" lon="9.473643461242318">
        <ele>1505.8399999999999</ele>
        <time>2023-11-26T10:49:11Z</time>
      </trkpt>
      <trkpt lat="46.019188044592738" lon="9.473428633064032">
        <ele>1504.1400000000001</ele>
        <time>2023-11-26T10:49:24Z</time>
      </trkpt>
      <trkpt lat="46.019175890833139" lon="9.473346155136824">
        <ele>1503.8</ele>
        <time>2023-11-26T10:49:29Z</time>
      </trkpt>
      <trkpt lat="46.019171783700585" lon="9.473330313339829">
        <ele>1503.8299999999999</ele>
        <time>2023-11-26T10:49:30Z</time>
      </trkpt>
      <trkpt lat="46.019168682396412" lon="9.473313465714455">
        <ele>1503.9200000000001</ele>
        <time>2023-11-26T10:49:31Z</time>
      </trkpt>
      <trkpt lat="46.019166754558682" lon="9.47329611517489">
        <ele>1503.71</ele>
        <time>2023-11-26T10:49:32Z</time>
      </trkpt>
      <trkpt lat="46.019164826720953" lon="9.473279435187578">
        <ele>1503.6099999999999</ele>
        <time>2023-11-26T10:49:33Z</time>
      </trkpt>
      <trkpt lat="46.019163653254509" lon="9.473263844847679">
        <ele>1503.54</ele>
        <time>2023-11-26T10:49:34Z</time>
      </trkpt>
      <trkpt lat="46.019162479788065" lon="9.473248505964875">
        <ele>1503.24</ele>
        <time>2023-11-26T10:49:35Z</time>
      </trkpt>
      <trkpt lat="46.019085869193077" lon="9.473013561218977">
        <ele>1500.6199999999999</ele>
        <time>2023-11-26T10:49:51Z</time>
      </trkpt>
      <trkpt lat="46.018974725157022" lon="9.472803510725498">
        <ele>1498.24</ele>
        <time>2023-11-26T10:50:07Z</time>
      </trkpt>
      <trkpt lat="46.018903981894255" lon="9.472581641748548">
        <ele>1496.47</ele>
        <time>2023-11-26T10:50:21Z</time>
      </trkpt>
      <trkpt lat="46.018894929438829" lon="9.472568901255727">
        <ele>1496.25</ele>
        <time>2023-11-26T10:50:22Z</time>
      </trkpt>
      <trkpt lat="46.018886882811785" lon="9.472551802173257">
        <ele>1496.2</ele>
        <time>2023-11-26T10:50:23Z</time>
      </trkpt>
      <trkpt lat="46.018819073215127" lon="9.472415763884783">
        <ele>1496.1700000000001</ele>
        <time>2023-11-26T10:50:33Z</time>
      </trkpt>
      <trkpt lat="46.018719747662544" lon="9.47232523933053">
        <ele>1495.47</ele>
        <time>2023-11-26T10:50:43Z</time>
      </trkpt>
      <trkpt lat="46.018535094335675" lon="9.472157433629036">
        <ele>1495.1300000000001</ele>
        <time>2023-11-26T10:51:01Z</time>
      </trkpt>
      <trkpt lat="46.018479270860553" lon="9.472113428637385">
        <ele>1494.1800000000001</ele>
        <time>2023-11-26T10:51:07Z</time>
      </trkpt>
      <trkpt lat="46.01832621730864" lon="9.472059532999992">
        <ele>1493.4400000000001</ele>
        <time>2023-11-26T10:51:20Z</time>
      </trkpt>
      <trkpt lat="46.018130918964744" lon="9.471993064507842">
        <ele>1492.4300000000001</ele>
        <time>2023-11-26T10:51:37Z</time>
      </trkpt>
      <trkpt lat="46.017951713874936" lon="9.471958111971617">
        <ele>1491.72</ele>
        <time>2023-11-26T10:51:52Z</time>
      </trkpt>
      <trkpt lat="46.01789521984756" lon="9.471952831372619">
        <ele>1491.1400000000001</ele>
        <time>2023-11-26T10:52:00Z</time>
      </trkpt>
      <trkpt lat="46.017875522375107" lon="9.471942773088813">
        <ele>1491.2</ele>
        <time>2023-11-26T10:52:08Z</time>
      </trkpt>
      <trkpt lat="46.017844341695309" lon="9.471913520246744">
        <ele>1490.6199999999999</ele>
        <time>2023-11-26T10:52:13Z</time>
      </trkpt>
      <trkpt lat="46.017672680318356" lon="9.471796425059438">
        <ele>1489.8099999999999</ele>
        <time>2023-11-26T10:52:29Z</time>
      </trkpt>
      <trkpt lat="46.017501186579466" lon="9.471707828342915">
        <ele>1488.05</ele>
        <time>2023-11-26T10:52:43Z</time>
      </trkpt>
      <trkpt lat="46.017319886013865" lon="9.471665164455771">
        <ele>1486.9300000000001</ele>
        <time>2023-11-26T10:52:58Z</time>
      </trkpt>
      <trkpt lat="46.017136070877314" lon="9.471628703176975">
        <ele>1486.4300000000001</ele>
        <time>2023-11-26T10:53:13Z</time>
      </trkpt>
      <trkpt lat="46.017095502465963" lon="9.47163331322372">
        <ele>1486.5899999999999</ele>
        <time>2023-11-26T10:53:18Z</time>
      </trkpt>
      <trkpt lat="46.017083767801523" lon="9.471630966290832">
        <ele>1486.4200000000001</ele>
        <time>2023-11-26T10:53:19Z</time>
      </trkpt>
      <trkpt lat="46.017070859670639" lon="9.471629625186324">
        <ele>1486.1900000000001</ele>
        <time>2023-11-26T10:53:20Z</time>
      </trkpt>
      <trkpt lat="46.017057616263628" lon="9.471627194434404">
        <ele>1486.2</ele>
        <time>2023-11-26T10:53:21Z</time>
      </trkpt>
      <trkpt lat="46.017044456675649" lon="9.471624260768294">
        <ele>1485.9400000000001</ele>
        <time>2023-11-26T10:53:22Z</time>
      </trkpt>
      <trkpt lat="46.017031716182828" lon="9.471619818359613">
        <ele>1485.73</ele>
        <time>2023-11-26T10:53:23Z</time>
      </trkpt>
      <trkpt lat="46.017019227147102" lon="9.471614034846425">
        <ele>1485.73</ele>
        <time>2023-11-26T10:53:24Z</time>
      </trkpt>
      <trkpt lat="46.016856282949448" lon="9.471544213593006">
        <ele>1483.8800000000001</ele>
        <time>2023-11-26T10:53:38Z</time>
      </trkpt>
      <trkpt lat="46.016714544966817" lon="9.471423765644431">
        <ele>1482.8499999999999</ele>
        <time>2023-11-26T10:53:51Z</time>
      </trkpt>
      <trkpt lat="46.016628295183182" lon="9.471266604959965">
        <ele>1482.6600000000001</ele>
        <time>2023-11-26T10:54:02Z</time>
      </trkpt>
      <trkpt lat="46.016546068713069" lon="9.471067283302546">
        <ele>1482.1700000000001</ele>
        <time>2023-11-26T10:54:15Z</time>
      </trkpt>
      <trkpt lat="46.016498962417245" lon="9.470991594716907">
        <ele>1478.96</ele>
        <time>2023-11-26T13:43:18Z</time>
      </trkpt>
      <trkpt lat="46.016469290480018" lon="9.470988409593701">
        <ele>1478.6800000000001</ele>
        <time>2023-11-26T13:43:31Z</time>
      </trkpt>
      <trkpt lat="46.016399469226599" lon="9.470970472320914">
        <ele>1477.49</ele>
        <time>2023-11-26T13:43:43Z</time>
      </trkpt>
      <trkpt lat="46.016290672123432" lon="9.470956809818745">
        <ele>1476.2</ele>
        <time>2023-11-26T13:43:57Z</time>
      </trkpt>
      <trkpt lat="46.016179108992219" lon="9.470830243080854">
        <ele>1474.05</ele>
        <time>2023-11-26T13:44:13Z</time>
      </trkpt>
      <trkpt lat="46.016110125929117" lon="9.470706777647138">
        <ele>1470</ele>
        <time>2023-11-26T13:44:28Z</time>
      </trkpt>
      <trkpt lat="46.016107024624944" lon="9.470698311924934">
        <ele>1473.26</ele>
        <time>2023-11-26T13:44:29Z</time>
      </trkpt>
      <trkpt lat="46.016046339645982" lon="9.470592113211751">
        <ele>1470.1900000000001</ele>
        <time>2023-11-26T13:44:41Z</time>
      </trkpt>
      <trkpt lat="46.01598615758121" lon="9.470554478466511">
        <ele>1468.99</ele>
        <time>2023-11-26T13:44:51Z</time>
      </trkpt>
      <trkpt lat="46.015963107347488" lon="9.4705481082201">
        <ele>1468.29</ele>
        <time>2023-11-26T13:45:04Z</time>
      </trkpt>
      <trkpt lat="46.015966208651662" lon="9.470546431839466">
        <ele>1468.3900000000001</ele>
        <time>2023-11-26T13:45:31Z</time>
      </trkpt>
      <trkpt lat="46.015951121225953" lon="9.470548527315259">
        <ele>1468.8499999999999</ele>
        <time>2023-11-26T13:45:55Z</time>
      </trkpt>
      <trkpt lat="46.01591189391911" lon="9.470530841499567">
        <ele>1468.9200000000001</ele>
        <time>2023-11-26T13:46:11Z</time>
      </trkpt>
      <trkpt lat="46.015847520902753" lon="9.470490776002407">
        <ele>1469.45</ele>
        <time>2023-11-26T13:46:22Z</time>
      </trkpt>
      <trkpt lat="46.015770742669702" lon="9.47042346931994">
        <ele>1469.27</ele>
        <time>2023-11-26T13:46:36Z</time>
      </trkpt>
      <trkpt lat="46.01573889143765" lon="9.470412405207753">
        <ele>1468.9400000000001</ele>
        <time>2023-11-26T13:46:39Z</time>
      </trkpt>
      <trkpt lat="46.015662951394916" lon="9.47042397223413">
        <ele>1469.0799999999999</ele>
        <time>2023-11-26T13:46:47Z</time>
      </trkpt>
      <trkpt lat="46.015613246709108" lon="9.470424978062511">
        <ele>1469.22</ele>
        <time>2023-11-26T13:46:52Z</time>
      </trkpt>
      <trkpt lat="46.015534875914454" lon="9.470371920615435">
        <ele>1469.4100000000001</ele>
        <time>2023-11-26T13:47:04Z</time>
      </trkpt>
      <trkpt lat="46.015506377443671" lon="9.470339734107256">
        <ele>1468.1099999999999</ele>
        <time>2023-11-26T13:47:07Z</time>
      </trkpt>
      <trkpt lat="46.015409482643008" lon="9.470308301970363">
        <ele>1467.1500000000001</ele>
        <time>2023-11-26T13:47:18Z</time>
      </trkpt>
      <trkpt lat="46.015390874817967" lon="9.470308301970363">
        <ele>1466.99</ele>
        <time>2023-11-26T13:47:20Z</time>
      </trkpt>
      <trkpt lat="46.015283167362213" lon="9.470281396061182">
        <ele>1465.55</ele>
        <time>2023-11-26T13:47:33Z</time>
      </trkpt>
      <trkpt lat="46.015186440199614" lon="9.470192547887564">
        <ele>1464.28</ele>
        <time>2023-11-26T13:47:47Z</time>
      </trkpt>
      <trkpt lat="46.01511737331748" lon="9.470129515975714">
        <ele>1463.71</ele>
        <time>2023-11-26T13:47:58Z</time>
      </trkpt>
      <trkpt lat="46.015091724693775" lon="9.470087187364698">
        <ele>1463.1099999999999</ele>
        <time>2023-11-26T13:48:02Z</time>
      </trkpt>
      <trkpt lat="46.015000697225332" lon="9.469964476302266">
        <ele>1461.4100000000001</ele>
        <time>2023-11-26T13:48:15Z</time>
      </trkpt>
      <trkpt lat="46.0149488132447" lon="9.46987328119576">
        <ele>1462.28</ele>
        <time>2023-11-26T13:48:27Z</time>
      </trkpt>
      <trkpt lat="46.01487698033452" lon="9.46982148103416">
        <ele>1460.8099999999999</ele>
        <time>2023-11-26T13:48:39Z</time>
      </trkpt>
      <trkpt lat="46.014870442450047" lon="9.469816703349352">
        <ele>1460.77</ele>
        <time>2023-11-26T13:48:40Z</time>
      </trkpt>
      <trkpt lat="46.014771619811654" lon="9.469741014763713">
        <ele>1459.4100000000001</ele>
        <time>2023-11-26T13:48:54Z</time>
      </trkpt>
      <trkpt lat="46.014749491587281" lon="9.46972768753767">
        <ele>1459.22</ele>
        <time>2023-11-26T13:48:57Z</time>
      </trkpt>
      <trkpt lat="46.014647232368588" lon="9.469629703089595">
        <ele>1458.1900000000001</ele>
        <time>2023-11-26T13:49:09Z</time>
      </trkpt>
      <trkpt lat="46.014581518247724" lon="9.469532640650868">
        <ele>1457.8</ele>
        <time>2023-11-26T13:49:17Z</time>
      </trkpt>
      <trkpt lat="46.01451731286943" lon="9.469418479129672">
        <ele>1457.72</ele>
        <time>2023-11-26T13:49:28Z</time>
      </trkpt>
      <trkpt lat="46.014506919309497" lon="9.469342874363065">
        <ele>1457.4400000000001</ele>
        <time>2023-11-26T13:49:33Z</time>
      </trkpt>
      <trkpt lat="46.014535501599312" lon="9.469200130552054">
        <ele>1456.28</ele>
        <time>2023-11-26T13:49:44Z</time>
      </trkpt>
      <trkpt lat="46.014576237648726" lon="9.469055542722344">
        <ele>1454.54</ele>
        <time>2023-11-26T13:49:55Z</time>
      </trkpt>
      <trkpt lat="46.014577494934201" lon="9.468996450304985">
        <ele>1453.98</ele>
        <time>2023-11-26T13:50:00Z</time>
      </trkpt>
      <trkpt lat="46.014572298154235" lon="9.468959905207157">
        <ele>1453.6500000000001</ele>
        <time>2023-11-26T13:50:02Z</time>
      </trkpt>
      <trkpt lat="46.014539608731866" lon="9.468791177496314">
        <ele>1453.03</ele>
        <time>2023-11-26T13:50:15Z</time>
      </trkpt>
      <trkpt lat="46.014531059190631" lon="9.46868984028697">
        <ele>1452.05</ele>
        <time>2023-11-26T13:50:30Z</time>
      </trkpt>
      <trkpt lat="46.014446737244725" lon="9.46860434487462">
        <ele>1450.1700000000001</ele>
        <time>2023-11-26T13:50:44Z</time>
      </trkpt>
      <trkpt lat="46.01440005004406" lon="9.468629825860262">
        <ele>1449.45</ele>
        <time>2023-11-26T13:50:55Z</time>
      </trkpt>
      <trkpt lat="46.01433215662837" lon="9.468677099794149">
        <ele>1447.8499999999999</ele>
        <time>2023-11-26T13:51:07Z</time>
      </trkpt>
      <trkpt lat="46.014258982613683" lon="9.468683218583465">
        <ele>1446.54</ele>
        <time>2023-11-26T13:51:18Z</time>
      </trkpt>
      <trkpt lat="46.014187065884471" lon="9.468702245503664">
        <ele>1445.47</ele>
        <time>2023-11-26T13:51:29Z</time>
      </trkpt>
      <trkpt lat="46.014103498309851" lon="9.468703418970108">
        <ele>1443.1099999999999</ele>
        <time>2023-11-26T13:51:43Z</time>
      </trkpt>
      <trkpt lat="46.01399302482605" lon="9.468698473647237">
        <ele>1442.47</ele>
        <time>2023-11-26T13:51:56Z</time>
      </trkpt>
      <trkpt lat="46.013972321525216" lon="9.468698557466269">
        <ele>1442.1900000000001</ele>
        <time>2023-11-26T13:51:58Z</time>
      </trkpt>
      <trkpt lat="46.013940721750259" lon="9.468700652942061">
        <ele>1442.0699999999999</ele>
        <time>2023-11-26T13:52:01Z</time>
      </trkpt>
      <trkpt lat="46.013906858861446" lon="9.46868690662086">
        <ele>1441.46</ele>
        <time>2023-11-26T13:52:04Z</time>
      </trkpt>
      <trkpt lat="46.013769647106528" lon="9.468653965741396">
        <ele>1438.8199999999999</ele>
        <time>2023-11-26T13:52:18Z</time>
      </trkpt>
      <trkpt lat="46.013676775619388" lon="9.468609374016523">
        <ele>1436.48</ele>
        <time>2023-11-26T13:52:30Z</time>
      </trkpt>
      <trkpt lat="46.013575773686171" lon="9.468574589118362">
        <ele>1434.02</ele>
        <time>2023-11-26T13:52:43Z</time>
      </trkpt>
      <trkpt lat="46.013475609943271" lon="9.468552209436894">
        <ele>1431.6099999999999</ele>
        <time>2023-11-26T13:52:56Z</time>
      </trkpt>
      <trkpt lat="46.013393132016063" lon="9.468539133667946">
        <ele>1429.1400000000001</ele>
        <time>2023-11-26T13:53:09Z</time>
      </trkpt>
      <trkpt lat="46.013353234156966" lon="9.468529243022203">
        <ele>1428.46</ele>
        <time>2023-11-26T13:53:14Z</time>
      </trkpt>
      <trkpt lat="46.013315850868821" lon="9.468510802835226">
        <ele>1427.6900000000001</ele>
        <time>2023-11-26T13:53:18Z</time>
      </trkpt>
      <trkpt lat="46.013199761509895" lon="9.468479538336396">
        <ele>1425.5899999999999</ele>
        <time>2023-11-26T13:53:31Z</time>
      </trkpt>
      <trkpt lat="46.013117618858814" lon="9.468471240252256">
        <ele>1423.71</ele>
        <time>2023-11-26T13:53:41Z</time>
      </trkpt>
      <trkpt lat="46.013008821755648" lon="9.468462020158768">
        <ele>1421.6600000000001</ele>
        <time>2023-11-26T13:53:54Z</time>
      </trkpt>
      <trkpt lat="46.012938832864165" lon="9.468492949381471">
        <ele>1420.0699999999999</ele>
        <time>2023-11-26T13:54:05Z</time>
      </trkpt>
      <trkpt lat="46.012910418212414" lon="9.468505354598165">
        <ele>1419.03</ele>
        <time>2023-11-26T13:54:19Z</time>
      </trkpt>
      <trkpt lat="46.012863647192717" lon="9.468528404831886">
        <ele>1418.45</ele>
        <time>2023-11-26T13:54:35Z</time>
      </trkpt>
      <trkpt lat="46.012805812060833" lon="9.468550952151418">
        <ele>1417.0999999999999</ele>
        <time>2023-11-26T13:54:46Z</time>
      </trkpt>
      <trkpt lat="46.012736493721604" lon="9.468545755371451">
        <ele>1415.1199999999999</ele>
        <time>2023-11-26T13:54:59Z</time>
      </trkpt>
      <trkpt lat="46.012681676074862" lon="9.468618342652917">
        <ele>1413.28</ele>
        <time>2023-11-26T13:55:13Z</time>
      </trkpt>
      <trkpt lat="46.012627696618438" lon="9.468659497797489">
        <ele>1411.8399999999999</ele>
        <time>2023-11-26T13:55:27Z</time>
      </trkpt>
      <trkpt lat="46.012566676363349" lon="9.468694953247905">
        <ele>1409.4000000000001</ele>
        <time>2023-11-26T13:55:38Z</time>
      </trkpt>
      <trkpt lat="46.012513199821115" lon="9.468696294352412">
        <ele>1408.2</ele>
        <time>2023-11-26T13:55:50Z</time>
      </trkpt>
      <trkpt lat="46.012417562305927" lon="9.468713644891977">
        <ele>1405.1400000000001</ele>
        <time>2023-11-26T13:56:06Z</time>
      </trkpt>
      <trkpt lat="46.012333994731307" lon="9.468709118664265">
        <ele>1403.3399999999999</ele>
        <time>2023-11-26T13:56:20Z</time>
      </trkpt>
      <trkpt lat="46.012235255911946" lon="9.468644661828876">
        <ele>1400.8299999999999</ele>
        <time>2023-11-26T13:56:35Z</time>
      </trkpt>
      <trkpt lat="46.012107683345675" lon="9.468590347096324">
        <ele>1399.05</ele>
        <time>2023-11-26T13:56:50Z</time>
      </trkpt>
      <trkpt lat="46.011992013081908" lon="9.468515496701002">
        <ele>1397.8900000000001</ele>
        <time>2023-11-26T13:57:04Z</time>
      </trkpt>
      <trkpt lat="46.01187433116138" lon="9.468437796458602">
        <ele>1397.01</ele>
        <time>2023-11-26T13:57:16Z</time>
      </trkpt>
      <trkpt lat="46.011856812983751" lon="9.468425810337067">
        <ele>1396.97</ele>
        <time>2023-11-26T13:57:18Z</time>
      </trkpt>
      <trkpt lat="46.011816160753369" lon="9.468427570536733">
        <ele>1396.55</ele>
        <time>2023-11-26T13:57:22Z</time>
      </trkpt>
      <trkpt lat="46.011717757210135" lon="9.468370992690325">
        <ele>1395.7</ele>
        <time>2023-11-26T13:57:31Z</time>
      </trkpt>
      <trkpt lat="46.011659670621157" lon="9.468320198357105">
        <ele>1395.3499999999999</ele>
        <time>2023-11-26T13:57:36Z</time>
      </trkpt>
      <trkpt lat="46.0116021707654" lon="9.468234702944756">
        <ele>1394.98</ele>
        <time>2023-11-26T13:57:43Z</time>
      </trkpt>
      <trkpt lat="46.011580293998122" lon="9.468213664367795">
        <ele>1394.7</ele>
        <time>2023-11-26T13:57:45Z</time>
      </trkpt>
      <trkpt lat="46.011565625667572" lon="9.468196146190167">
        <ele>1393.72</ele>
        <time>2023-11-26T13:57:47Z</time>
      </trkpt>
      <trkpt lat="46.011431850492954" lon="9.468110483139753">
        <ele>1391.9000000000001</ele>
        <time>2023-11-26T13:58:00Z</time>
      </trkpt>
      <trkpt lat="46.011350462213159" lon="9.468033788725734">
        <ele>1390.6300000000001</ele>
        <time>2023-11-26T13:58:11Z</time>
      </trkpt>
      <trkpt lat="46.01127477362752" lon="9.467942677438259">
        <ele>1388.8499999999999</ele>
        <time>2023-11-26T13:58:25Z</time>
      </trkpt>
      <trkpt lat="46.01121174171567" lon="9.467867827042937">
        <ele>1387.53</ele>
        <time>2023-11-26T13:58:37Z</time>
      </trkpt>
      <trkpt lat="46.011134628206491" lon="9.467769339680672">
        <ele>1385.01</ele>
        <time>2023-11-26T13:58:49Z</time>
      </trkpt>
      <trkpt lat="46.01104854606092" lon="9.467706810683012">
        <ele>1383.3499999999999</ele>
        <time>2023-11-26T13:59:02Z</time>
      </trkpt>
      <trkpt lat="46.010977886617184" lon="9.467629445716739">
        <ele>1381.9000000000001</ele>
        <time>2023-11-26T13:59:12Z</time>
      </trkpt>
      <trkpt lat="46.010893061757088" lon="9.467434231191874">
        <ele>1381.99</ele>
        <time>2023-11-26T13:59:28Z</time>
      </trkpt>
      <trkpt lat="46.010844698175788" lon="9.467305317521095">
        <ele>1383.4300000000001</ele>
        <time>2023-11-26T13:59:41Z</time>
      </trkpt>
      <trkpt lat="46.01082039065659" lon="9.467277154326439">
        <ele>1382.9300000000001</ele>
        <time>2023-11-26T13:59:45Z</time>
      </trkpt>
      <trkpt lat="46.01075635291636" lon="9.467199956998229">
        <ele>1381.3699999999999</ele>
        <time>2023-11-26T13:59:55Z</time>
      </trkpt>
      <trkpt lat="46.010748306289315" lon="9.467197442427278">
        <ele>1381.51</ele>
        <time>2023-11-26T13:59:56Z</time>
      </trkpt>
      <trkpt lat="46.010639257729053" lon="9.467122172936797">
        <ele>1381.1500000000001</ele>
        <time>2023-11-26T14:00:09Z</time>
      </trkpt>
      <trkpt lat="46.010522665455937" lon="9.466994935646653">
        <ele>1378.99</ele>
        <time>2023-11-26T14:00:24Z</time>
      </trkpt>
      <trkpt lat="46.010472876951098" lon="9.466934837400913">
        <ele>1378.1500000000001</ele>
        <time>2023-11-26T14:00:30Z</time>
      </trkpt>
      <trkpt lat="46.010334994643927" lon="9.466761164367199">
        <ele>1376.23</ele>
        <time>2023-11-26T14:00:45Z</time>
      </trkpt>
      <trkpt lat="46.010298281908035" lon="9.466559663414955">
        <ele>1376.5</ele>
        <time>2023-11-26T14:00:59Z</time>
      </trkpt>
      <trkpt lat="46.01030146703124" lon="9.466507779434323">
        <ele>1376.27</ele>
        <time>2023-11-26T14:01:03Z</time>
      </trkpt>
      <trkpt lat="46.01028042845428" lon="9.466402251273394">
        <ele>1374.6099999999999</ele>
        <time>2023-11-26T14:01:15Z</time>
      </trkpt>
      <trkpt lat="46.010258216410875" lon="9.466312732547522">
        <ele>1374.0599999999999</ele>
        <time>2023-11-26T14:01:23Z</time>
      </trkpt>
      <trkpt lat="46.010241620242596" lon="9.466287586838007">
        <ele>1373.97</ele>
        <time>2023-11-26T14:01:26Z</time>
      </trkpt>
      <trkpt lat="46.010187556967139" lon="9.466142579913139">
        <ele>1374.5699999999999</ele>
        <time>2023-11-26T14:01:39Z</time>
      </trkpt>
      <trkpt lat="46.010172385722399" lon="9.466108465567231">
        <ele>1374.3900000000001</ele>
        <time>2023-11-26T14:01:44Z</time>
      </trkpt>
      <trkpt lat="46.010145731270313" lon="9.466026909649372">
        <ele>1373.4300000000001</ele>
        <time>2023-11-26T14:01:50Z</time>
      </trkpt>
      <trkpt lat="46.010173475369811" lon="9.465847704559565">
        <ele>1372.77</ele>
        <time>2023-11-26T14:02:05Z</time>
      </trkpt>
      <trkpt lat="46.010159980505705" lon="9.465770004317164">
        <ele>1372.53</ele>
        <time>2023-11-26T14:02:18Z</time>
      </trkpt>
      <trkpt lat="46.01005612872541" lon="9.465672774240375">
        <ele>1370.1300000000001</ele>
        <time>2023-11-26T14:02:33Z</time>
      </trkpt>
      <trkpt lat="46.010001227259636" lon="9.465665398165584">
        <ele>1368.51</ele>
        <time>2023-11-26T14:02:45Z</time>
      </trkpt>
      <trkpt lat="46.009894777089357" lon="9.465654753148556">
        <ele>1366.6199999999999</ele>
        <time>2023-11-26T14:02:59Z</time>
      </trkpt>
      <trkpt lat="46.009815232828259" lon="9.465670427307487">
        <ele>1365.05</ele>
        <time>2023-11-26T14:03:13Z</time>
      </trkpt>
      <trkpt lat="46.009743064641953" lon="9.465700015425682">
        <ele>1362.4100000000001</ele>
        <time>2023-11-26T14:03:27Z</time>
      </trkpt>
      <trkpt lat="46.009647930040956" lon="9.465686520561576">
        <ele>1360.1600000000001</ele>
        <time>2023-11-26T14:03:41Z</time>
      </trkpt>
      <trkpt lat="46.009547347202897" lon="9.465670930221677">
        <ele>1358.02</ele>
        <time>2023-11-26T14:03:54Z</time>
      </trkpt>
      <trkpt lat="46.009449698030949" lon="9.465669505298138">
        <ele>1355.1800000000001</ele>
        <time>2023-11-26T14:04:07Z</time>
      </trkpt>
      <trkpt lat="46.009369986131787" lon="9.465658022090793">
        <ele>1353.5</ele>
        <time>2023-11-26T14:04:18Z</time>
      </trkpt>
      <trkpt lat="46.009406866505742" lon="9.465748630464077">
        <ele>1351.9100000000001</ele>
        <time>2023-11-26T14:04:29Z</time>
      </trkpt>
      <trkpt lat="46.009472329169512" lon="9.46581183001399">
        <ele>1350.1700000000001</ele>
        <time>2023-11-26T14:04:42Z</time>
      </trkpt>
      <trkpt lat="46.009515663608909" lon="9.465910736471415">
        <ele>1347.5599999999999</ele>
        <time>2023-11-26T14:04:57Z</time>
      </trkpt>
      <trkpt lat="46.009579282253981" lon="9.465942420065403">
        <ele>1345.8199999999999</ele>
        <time>2023-11-26T14:05:11Z</time>
      </trkpt>
      <trkpt lat="46.009580120444298" lon="9.465989442542195">
        <ele>1346.01</ele>
        <time>2023-11-26T14:05:39Z</time>
      </trkpt>
      <trkpt lat="46.009597387164831" lon="9.466014169156551">
        <ele>1345.6199999999999</ele>
        <time>2023-11-26T14:05:55Z</time>
      </trkpt>
      <trkpt lat="46.009549358859658" lon="9.466067058965564">
        <ele>1343.8299999999999</ele>
        <time>2023-11-26T14:06:09Z</time>
      </trkpt>
      <trkpt lat="46.009475514292717" lon="9.466098407283425">
        <ele>1342.1500000000001</ele>
        <time>2023-11-26T14:06:21Z</time>
      </trkpt>
      <trkpt lat="46.009399993345141" lon="9.466124391183257">
        <ele>1340.21</ele>
        <time>2023-11-26T14:06:33Z</time>
      </trkpt>
      <trkpt lat="46.009330172091722" lon="9.466111902147532">
        <ele>1339.0799999999999</ele>
        <time>2023-11-26T14:06:45Z</time>
      </trkpt>
      <trkpt lat="46.00933494977653" lon="9.466170240193605">
        <ele>1337.1500000000001</ele>
        <time>2023-11-26T14:06:58Z</time>
      </trkpt>
      <trkpt lat="46.009357329457998" lon="9.466260680928826">
        <ele>1334.78</ele>
        <time>2023-11-26T14:07:10Z</time>
      </trkpt>
      <trkpt lat="46.009403262287378" lon="9.466262860223651">
        <ele>1334.05</ele>
        <time>2023-11-26T14:07:16Z</time>
      </trkpt>
      <trkpt lat="46.009471071884036" lon="9.466249952092767">
        <ele>1332.98</ele>
        <time>2023-11-26T14:07:27Z</time>
      </trkpt>
      <trkpt lat="46.009487165138125" lon="9.466286329552531">
        <ele>1331.1400000000001</ele>
        <time>2023-11-26T14:07:39Z</time>
      </trkpt>
      <trkpt lat="46.009436789900064" lon="9.466340644285083">
        <ele>1328.98</ele>
        <time>2023-11-26T14:07:50Z</time>
      </trkpt>
      <trkpt lat="46.009344253689051" lon="9.466428989544511">
        <ele>1326.5899999999999</ele>
        <time>2023-11-26T14:08:05Z</time>
      </trkpt>
      <trkpt lat="46.009259261190891" lon="9.466505432501435">
        <ele>1323.9100000000001</ele>
        <time>2023-11-26T14:08:19Z</time>
      </trkpt>
      <trkpt lat="46.009307289496064" lon="9.466522950679064">
        <ele>1322.1099999999999</ele>
        <time>2023-11-26T14:08:32Z</time>
      </trkpt>
      <trkpt lat="46.009265128523111" lon="9.466621186584234">
        <ele>1320.1400000000001</ele>
        <time>2023-11-26T14:08:46Z</time>
      </trkpt>
      <trkpt lat="46.009215423837304" lon="9.466712046414614">
        <ele>1317.8699999999999</ele>
        <time>2023-11-26T14:08:58Z</time>
      </trkpt>
      <trkpt lat="46.009179297834635" lon="9.466820592060685">
        <ele>1316.1600000000001</ele>
        <time>2023-11-26T14:09:10Z</time>
      </trkpt>
      <trkpt lat="46.009095562621951" lon="9.466860154643655">
        <ele>1314.3499999999999</ele>
        <time>2023-11-26T14:09:23Z</time>
      </trkpt>
      <trkpt lat="46.009001936763525" lon="9.466813299804926">
        <ele>1312.49</ele>
        <time>2023-11-26T14:09:36Z</time>
      </trkpt>
      <trkpt lat="46.008941838517785" lon="9.466781867668033">
        <ele>1311.49</ele>
        <time>2023-11-26T14:09:45Z</time>
      </trkpt>
      <trkpt lat="46.008869670331478" lon="9.466766780242324">
        <ele>1309.79</ele>
        <time>2023-11-26T14:09:53Z</time>
      </trkpt>
      <trkpt lat="46.008796747773886" lon="9.466709615662694">
        <ele>1309.6600000000001</ele>
        <time>2023-11-26T14:10:07Z</time>
      </trkpt>
      <trkpt lat="46.008788030594587" lon="9.466709615662694">
        <ele>1309.6500000000001</ele>
        <time>2023-11-26T14:10:18Z</time>
      </trkpt>
      <trkpt lat="46.008749976754189" lon="9.466737108305097">
        <ele>1307.78</ele>
        <time>2023-11-26T14:10:29Z</time>
      </trkpt>
      <trkpt lat="46.008710833266377" lon="9.466784130781889">
        <ele>1307.8699999999999</ele>
        <time>2023-11-26T14:10:41Z</time>
      </trkpt>
      <trkpt lat="46.008693482726812" lon="9.466828554868698">
        <ele>1306.9000000000001</ele>
        <time>2023-11-26T14:10:53Z</time>
      </trkpt>
      <trkpt lat="46.008633468300104" lon="9.466857556253672">
        <ele>1305.6199999999999</ele>
        <time>2023-11-26T14:11:07Z</time>
      </trkpt>
      <trkpt lat="46.008597007021308" lon="9.466868285089731">
        <ele>1304.9000000000001</ele>
        <time>2023-11-26T14:11:13Z</time>
      </trkpt>
      <trkpt lat="46.008519474416971" lon="9.466860489919782">
        <ele>1302.76</ele>
        <time>2023-11-26T14:11:25Z</time>
      </trkpt>
      <trkpt lat="46.008439846336842" lon="9.466895777732134">
        <ele>1300.2</ele>
        <time>2023-11-26T14:11:38Z</time>
      </trkpt>
      <trkpt lat="46.008353009819984" lon="9.466912960633636">
        <ele>1297.6500000000001</ele>
        <time>2023-11-26T14:11:48Z</time>
      </trkpt>
      <trkpt lat="46.008314788341522" lon="9.466897705569863">
        <ele>1297.28</ele>
        <time>2023-11-26T14:11:52Z</time>
      </trkpt>
      <trkpt lat="46.00825997069478" lon="9.466906925663352">
        <ele>1296.52</ele>
        <time>2023-11-26T14:11:58Z</time>
      </trkpt>
      <trkpt lat="46.008136337623" lon="9.466921342536807">
        <ele>1295.3099999999999</ele>
        <time>2023-11-26T14:12:11Z</time>
      </trkpt>
      <trkpt lat="46.008053692057729" lon="9.466954953968525">
        <ele>1293.9100000000001</ele>
        <time>2023-11-26T14:12:23Z</time>
      </trkpt>
      <trkpt lat="46.007934920489788" lon="9.467006837949157">
        <ele>1292.0899999999999</ele>
        <time>2023-11-26T14:12:37Z</time>
      </trkpt>
      <trkpt lat="46.007885802537203" lon="9.467045981436968">
        <ele>1290.5999999999999</ele>
        <time>2023-11-26T14:12:48Z</time>
      </trkpt>
      <trkpt lat="46.007803911343217" lon="9.467099038884044">
        <ele>1288.3</ele>
        <time>2023-11-26T14:13:05Z</time>
      </trkpt>
      <trkpt lat="46.007677596062422" lon="9.467105912044644">
        <ele>1286.0999999999999</ele>
        <time>2023-11-26T14:13:17Z</time>
      </trkpt>
      <trkpt lat="46.007604338228703" lon="9.467128291726112">
        <ele>1284.75</ele>
        <time>2023-11-26T14:13:26Z</time>
      </trkpt>
      <trkpt lat="46.007482130080462" lon="9.467128124088049">
        <ele>1284.22</ele>
        <time>2023-11-26T14:13:39Z</time>
      </trkpt>
      <trkpt lat="46.007408956065774" lon="9.467135919257999">
        <ele>1282.48</ele>
        <time>2023-11-26T14:13:54Z</time>
      </trkpt>
      <trkpt lat="46.007349360734224" lon="9.467187970876694">
        <ele>1280.1700000000001</ele>
        <time>2023-11-26T14:14:05Z</time>
      </trkpt>
      <trkpt lat="46.007328489795327" lon="9.467197442427278">
        <ele>1279.71</ele>
        <time>2023-11-26T14:14:07Z</time>
      </trkpt>
      <trkpt lat="46.007227152585983" lon="9.46720976382494">
        <ele>1277.3800000000001</ele>
        <time>2023-11-26T14:14:19Z</time>
      </trkpt>
      <trkpt lat="46.007139394059777" lon="9.467242620885372">
        <ele>1275.3</ele>
        <time>2023-11-26T14:14:35Z</time>
      </trkpt>
      <trkpt lat="46.007072422653437" lon="9.467270281165838">
        <ele>1273.21</ele>
        <time>2023-11-26T14:14:49Z</time>
      </trkpt>
      <trkpt lat="46.006996566429734" lon="9.467203645035625">
        <ele>1271.73</ele>
        <time>2023-11-26T14:15:00Z</time>
      </trkpt>
      <trkpt lat="46.006934121251106" lon="9.467213284224272">
        <ele>1269.8</ele>
        <time>2023-11-26T14:15:10Z</time>
      </trkpt>
      <trkpt lat="46.006884668022394" lon="9.467211188748479">
        <ele>1268.6800000000001</ele>
        <time>2023-11-26T14:15:17Z</time>
      </trkpt>
      <trkpt lat="46.006809398531914" lon="9.467225605621934">
        <ele>1267.3900000000001</ele>
        <time>2023-11-26T14:15:28Z</time>
      </trkpt>
      <trkpt lat="46.006772266700864" lon="9.467225354164839">
        <ele>1266.3699999999999</ele>
        <time>2023-11-26T14:15:41Z</time>
      </trkpt>
      <trkpt lat="46.006742175668478" lon="9.467246057465673">
        <ele>1265.6199999999999</ele>
        <time>2023-11-26T14:15:54Z</time>
      </trkpt>
      <trkpt lat="46.006665816530585" lon="9.46725863032043">
        <ele>1264.3</ele>
        <time>2023-11-26T14:16:06Z</time>
      </trkpt>
      <trkpt lat="46.006648298352957" lon="9.467238178476691">
        <ele>1263.2</ele>
        <time>2023-11-26T14:16:17Z</time>
      </trkpt>
      <trkpt lat="46.006631953641772" lon="9.467222336679697">
        <ele>1264.24</ele>
        <time>2023-11-26T14:17:51Z</time>
      </trkpt>
      <trkpt lat="46.006611585617065" lon="9.467220325022936">
        <ele>1263.53</ele>
        <time>2023-11-26T14:18:02Z</time>
      </trkpt>
      <trkpt lat="46.006605718284845" lon="9.46720783598721">
        <ele>1263.6099999999999</ele>
        <time>2023-11-26T14:18:12Z</time>
      </trkpt>
      <trkpt lat="46.006574956700206" lon="9.467183779925108">
        <ele>1263.0899999999999</ele>
        <time>2023-11-26T14:18:24Z</time>
      </trkpt>
      <trkpt lat="46.006539668887854" lon="9.467178834602237">
        <ele>1261.8900000000001</ele>
        <time>2023-11-26T14:18:33Z</time>
      </trkpt>
      <trkpt lat="46.00646766833961" lon="9.467188389971852">
        <ele>1259.6500000000001</ele>
        <time>2023-11-26T14:18:45Z</time>
      </trkpt>
      <trkpt lat="46.006447719410062" lon="9.467192580923438">
        <ele>1258.5</ele>
        <time>2023-11-26T14:18:49Z</time>
      </trkpt>
      <trkpt lat="46.006399607285857" lon="9.467160226777196">
        <ele>1259.04</ele>
        <time>2023-11-26T14:18:55Z</time>
      </trkpt>
      <trkpt lat="46.006367420777678" lon="9.467168273404241">
        <ele>1258.6400000000001</ele>
        <time>2023-11-26T14:18:58Z</time>
      </trkpt>
      <trkpt lat="46.006306149065495" lon="9.467155700549483">
        <ele>1257.1700000000001</ele>
        <time>2023-11-26T14:19:07Z</time>
      </trkpt>
      <trkpt lat="46.006267424672842" lon="9.467148827388883">
        <ele>1256.45</ele>
        <time>2023-11-26T14:19:12Z</time>
      </trkpt>
      <trkpt lat="46.00624630227685" lon="9.46714916266501">
        <ele>1256.03</ele>
        <time>2023-11-26T14:19:14Z</time>
      </trkpt>
      <trkpt lat="46.006139684468508" lon="9.467114629223943">
        <ele>1254.74</ele>
        <time>2023-11-26T14:19:24Z</time>
      </trkpt>
      <trkpt lat="46.006110599264503" lon="9.467086549848318">
        <ele>1254.45</ele>
        <time>2023-11-26T14:19:27Z</time>
      </trkpt>
      <trkpt lat="46.006030049175024" lon="9.466963922604919">
        <ele>1254.1600000000001</ele>
        <time>2023-11-26T14:19:37Z</time>
      </trkpt>
      <trkpt lat="46.005996353924274" lon="9.466945566236973">
        <ele>1254.21</ele>
        <time>2023-11-26T14:19:41Z</time>
      </trkpt>
      <trkpt lat="46.005965424701571" lon="9.46694053709507">
        <ele>1253.71</ele>
        <time>2023-11-26T14:19:44Z</time>
      </trkpt>
      <trkpt lat="46.005853777751327" lon="9.466899801045656">
        <ele>1252.9000000000001</ele>
        <time>2023-11-26T14:19:56Z</time>
      </trkpt>
      <trkpt lat="46.00582561455667" lon="9.466896448284388">
        <ele>1253.05</ele>
        <time>2023-11-26T14:20:07Z</time>
      </trkpt>
      <trkpt lat="46.005776496604085" lon="9.466913212090731">
        <ele>1253.3699999999999</ele>
        <time>2023-11-26T14:20:16Z</time>
      </trkpt>
      <trkpt lat="46.005746908485889" lon="9.466921761631966">
        <ele>1253.03</ele>
        <time>2023-11-26T14:20:19Z</time>
      </trkpt>
      <trkpt lat="46.005699718371034" lon="9.466924946755171">
        <ele>1252.6800000000001</ele>
        <time>2023-11-26T14:20:28Z</time>
      </trkpt>
      <trkpt lat="46.005697455257177" lon="9.466932658106089">
        <ele>1253.2</ele>
        <time>2023-11-26T14:21:06Z</time>
      </trkpt>
      <trkpt lat="46.005635848268867" lon="9.466925952583551">
        <ele>1252.46</ele>
        <time>2023-11-26T14:21:28Z</time>
      </trkpt>
      <trkpt lat="46.005589077249169" lon="9.466926120221615">
        <ele>1251.4400000000001</ele>
        <time>2023-11-26T14:21:33Z</time>
      </trkpt>
      <trkpt lat="46.005488326773047" lon="9.466885551810265">
        <ele>1250.24</ele>
        <time>2023-11-26T14:21:43Z</time>
      </trkpt>
      <trkpt lat="46.005390845239162" lon="9.466914301738143">
        <ele>1250.0599999999999</ele>
        <time>2023-11-26T14:21:52Z</time>
      </trkpt>
      <trkpt lat="46.005376847460866" lon="9.466919582337141">
        <ele>1250.02</ele>
        <time>2023-11-26T14:21:54Z</time>
      </trkpt>
      <trkpt lat="46.005321694537997" lon="9.4669200014323">
        <ele>1248.8099999999999</ele>
        <time>2023-11-26T14:21:59Z</time>
      </trkpt>
      <trkpt lat="46.00521675311029" lon="9.466862166300416">
        <ele>1247.6199999999999</ele>
        <time>2023-11-26T14:22:11Z</time>
      </trkpt>
      <trkpt lat="46.005127904936671" lon="9.4668457377702">
        <ele>1245.03</ele>
        <time>2023-11-26T14:22:23Z</time>
      </trkpt>
      <trkpt lat="46.005082139745355" lon="9.466817993670702">
        <ele>1244.1300000000001</ele>
        <time>2023-11-26T14:22:28Z</time>
      </trkpt>
      <trkpt lat="46.005024220794439" lon="9.466809527948499">
        <ele>1243.6900000000001</ele>
        <time>2023-11-26T14:22:33Z</time>
      </trkpt>
      <trkpt lat="46.004895055666566" lon="9.466775748878717">
        <ele>1242.4000000000001</ele>
        <time>2023-11-26T14:22:45Z</time>
      </trkpt>
      <trkpt lat="46.004784666001797" lon="9.466715985909104">
        <ele>1240.4000000000001</ele>
        <time>2023-11-26T14:22:57Z</time>
      </trkpt>
      <trkpt lat="46.004756167531013" lon="9.466713974252343">
        <ele>1239.6500000000001</ele>
        <time>2023-11-26T14:23:01Z</time>
      </trkpt>
      <trkpt lat="46.00466656498611" lon="9.466752195730805">
        <ele>1237.22</ele>
        <time>2023-11-26T14:23:12Z</time>
      </trkpt>
      <trkpt lat="46.004593977704644" lon="9.466756219044328">
        <ele>1235.48</ele>
        <time>2023-11-26T14:23:23Z</time>
      </trkpt>
      <trkpt lat="46.004499262198806" lon="9.466781364753842">
        <ele>1233.96</ele>
        <time>2023-11-26T14:23:37Z</time>
      </trkpt>
      <trkpt lat="46.004418209195137" lon="9.466768456622958">
        <ele>1232.1099999999999</ele>
        <time>2023-11-26T14:23:49Z</time>
      </trkpt>
      <trkpt lat="46.004393566399813" lon="9.466772731393576">
        <ele>1231.0999999999999</ele>
        <time>2023-11-26T14:23:59Z</time>
      </trkpt>
      <trkpt lat="46.004324834793806" lon="9.46680910885334">
        <ele>1230.22</ele>
        <time>2023-11-26T14:24:07Z</time>
      </trkpt>
      <trkpt lat="46.004244619980454" lon="9.466812210157514">
        <ele>1228.3599999999999</ele>
        <time>2023-11-26T14:24:17Z</time>
      </trkpt>
      <trkpt lat="46.004225760698318" lon="9.466826459392905">
        <ele>1228.1300000000001</ele>
        <time>2023-11-26T14:24:19Z</time>
      </trkpt>
      <trkpt lat="46.004076479002833" lon="9.466866357252002">
        <ele>1225.74</ele>
        <time>2023-11-26T14:24:35Z</time>
      </trkpt>
      <trkpt lat="46.003990983590484" lon="9.46693860925734">
        <ele>1224.6300000000001</ele>
        <time>2023-11-26T14:24:48Z</time>
      </trkpt>
      <trkpt lat="46.003927532583475" lon="9.466950930655003">
        <ele>1225.0799999999999</ele>
        <time>2023-11-26T14:24:58Z</time>
      </trkpt>
      <trkpt lat="46.003876905888319" lon="9.466965179890394">
        <ele>1223.77</ele>
        <time>2023-11-26T14:25:09Z</time>
      </trkpt>
      <trkpt lat="46.003811191767454" lon="9.466959312558174">
        <ele>1221.1700000000001</ele>
        <time>2023-11-26T14:25:22Z</time>
      </trkpt>
      <trkpt lat="46.003795936703682" lon="9.46696694009006">
        <ele>1220.6400000000001</ele>
        <time>2023-11-26T14:25:25Z</time>
      </trkpt>
      <trkpt lat="46.003720499575138" lon="9.466999629512429">
        <ele>1219.4100000000001</ele>
        <time>2023-11-26T14:25:35Z</time>
      </trkpt>
      <trkpt lat="46.003653276711702" lon="9.46698110550642">
        <ele>1218.28</ele>
        <time>2023-11-26T14:25:44Z</time>
      </trkpt>
      <trkpt lat="46.003621676936746" lon="9.466982446610928">
        <ele>1217.73</ele>
        <time>2023-11-26T14:25:48Z</time>
      </trkpt>
      <trkpt lat="46.003539115190506" lon="9.466969035565853">
        <ele>1216.3199999999999</ele>
        <time>2023-11-26T14:26:00Z</time>
      </trkpt>
      <trkpt lat="46.003503073006868" lon="9.466965347528458">
        <ele>1215.47</ele>
        <time>2023-11-26T14:26:10Z</time>
      </trkpt>
      <trkpt lat="46.003483375534415" lon="9.466940201818943">
        <ele>1214.51</ele>
        <time>2023-11-26T14:26:23Z</time>
      </trkpt>
      <trkpt lat="46.003459151834249" lon="9.466976495459676">
        <ele>1214.9200000000001</ele>
        <time>2023-11-26T14:26:35Z</time>
      </trkpt>
      <trkpt lat="46.003450686112046" lon="9.466976663097739">
        <ele>1214.74</ele>
        <time>2023-11-26T14:26:51Z</time>
      </trkpt>
      <trkpt lat="46.003449596464634" lon="9.466999797150493">
        <ele>1214.97</ele>
        <time>2023-11-26T14:26:56Z</time>
      </trkpt>
      <trkpt lat="46.003395784646273" lon="9.467045394703746">
        <ele>1214.21</ele>
        <time>2023-11-26T14:27:02Z</time>
      </trkpt>
      <trkpt lat="46.003346415236592" lon="9.467067942023277">
        <ele>1213.51</ele>
        <time>2023-11-26T14:27:07Z</time>
      </trkpt>
      <trkpt lat="46.003220267593861" lon="9.46702167391777">
        <ele>1211.3499999999999</ele>
        <time>2023-11-26T14:27:19Z</time>
      </trkpt>
      <trkpt lat="46.003184728324413" lon="9.466976160183549">
        <ele>1210.9300000000001</ele>
        <time>2023-11-26T14:27:28Z</time>
      </trkpt>
      <trkpt lat="46.003131419420242" lon="9.466977920383215">
        <ele>1210.0999999999999</ele>
        <time>2023-11-26T14:27:39Z</time>
      </trkpt>
      <trkpt lat="46.003059167414904" lon="9.466971382498741">
        <ele>1207.9000000000001</ele>
        <time>2023-11-26T14:27:54Z</time>
      </trkpt>
      <trkpt lat="46.003005271777511" lon="9.466953361406922">
        <ele>1206.5799999999999</ele>
        <time>2023-11-26T14:28:04Z</time>
      </trkpt>
      <trkpt lat="46.002934444695711" lon="9.466931903734803">
        <ele>1205.1800000000001</ele>
        <time>2023-11-26T14:28:14Z</time>
      </trkpt>
      <trkpt lat="46.002884656190872" lon="9.466904494911432">
        <ele>1204.04</ele>
        <time>2023-11-26T14:28:23Z</time>
      </trkpt>
      <trkpt lat="46.002803184092045" lon="9.466883791610599">
        <ele>1202.1300000000001</ele>
        <time>2023-11-26T14:28:35Z</time>
      </trkpt>
      <trkpt lat="46.002722969278693" lon="9.466833751648665">
        <ele>1200.8499999999999</ele>
        <time>2023-11-26T14:28:47Z</time>
      </trkpt>
      <trkpt lat="46.002649459987879" lon="9.466828051954508">
        <ele>1198.96</ele>
        <time>2023-11-26T14:29:00Z</time>
      </trkpt>
      <trkpt lat="46.002586092799902" lon="9.466792512685061">
        <ele>1197.52</ele>
        <time>2023-11-26T14:29:11Z</time>
      </trkpt>
      <trkpt lat="46.002502692863345" lon="9.466776167973876">
        <ele>1195.5799999999999</ele>
        <time>2023-11-26T14:29:24Z</time>
      </trkpt>
      <trkpt lat="46.002466566860676" lon="9.466782286763191">
        <ele>1194.95</ele>
        <time>2023-11-26T14:29:31Z</time>
      </trkpt>
      <trkpt lat="46.002427842468023" lon="9.466784801334143">
        <ele>1194.1600000000001</ele>
        <time>2023-11-26T14:29:35Z</time>
      </trkpt>
      <trkpt lat="46.002336395904422" lon="9.466785974800587">
        <ele>1192.8499999999999</ele>
        <time>2023-11-26T14:29:46Z</time>
      </trkpt>
      <trkpt lat="46.002248385921121" lon="9.46676317602396">
        <ele>1190.8900000000001</ele>
        <time>2023-11-26T14:29:56Z</time>
      </trkpt>
      <trkpt lat="46.002231119200587" lon="9.4667490106076">
        <ele>1190.8199999999999</ele>
        <time>2023-11-26T14:29:58Z</time>
      </trkpt>
      <trkpt lat="46.00211201235652" lon="9.466676842421293">
        <ele>1188.8900000000001</ele>
        <time>2023-11-26T14:30:12Z</time>
      </trkpt>
      <trkpt lat="46.002004304900765" lon="9.466575589030981">
        <ele>1187.99</ele>
        <time>2023-11-26T14:30:25Z</time>
      </trkpt>
      <trkpt lat="46.001981506124139" lon="9.46654818020761">
        <ele>1187.8699999999999</ele>
        <time>2023-11-26T14:30:28Z</time>
      </trkpt>
      <trkpt lat="46.001882264390588" lon="9.466357491910458">
        <ele>1187.5599999999999</ele>
        <time>2023-11-26T14:30:45Z</time>
      </trkpt>
      <trkpt lat="46.001864327117801" lon="9.466345338150859">
        <ele>1187.5999999999999</ele>
        <time>2023-11-26T14:30:48Z</time>
      </trkpt>
      <trkpt lat="46.001844545826316" lon="9.466342488303781">
        <ele>1187.26</ele>
        <time>2023-11-26T14:30:50Z</time>
      </trkpt>
      <trkpt lat="46.001725103706121" lon="9.466300494968891">
        <ele>1186.4400000000001</ele>
        <time>2023-11-26T14:31:03Z</time>
      </trkpt>
      <trkpt lat="46.001626197248697" lon="9.466234613209963">
        <ele>1185.45</ele>
        <time>2023-11-26T14:31:16Z</time>
      </trkpt>
      <trkpt lat="46.001587472856045" lon="9.466170826926827">
        <ele>1183.97</ele>
        <time>2023-11-26T14:31:28Z</time>
      </trkpt>
      <trkpt lat="46.00153055973351" lon="9.466167390346527">
        <ele>1182.3199999999999</ele>
        <time>2023-11-26T14:31:39Z</time>
      </trkpt>
      <trkpt lat="46.001460989937186" lon="9.466145597398281">
        <ele>1180.3499999999999</ele>
        <time>2023-11-26T14:31:52Z</time>
      </trkpt>
      <trkpt lat="46.001438358798623" lon="9.466138808056712">
        <ele>1179.6099999999999</ele>
        <time>2023-11-26T14:32:04Z</time>
      </trkpt>
      <trkpt lat="46.00138932466507" lon="9.466122966259718">
        <ele>1178.8699999999999</ele>
        <time>2023-11-26T14:32:17Z</time>
      </trkpt>
      <trkpt lat="46.001346660777926" lon="9.466132773086429">
        <ele>1177.3599999999999</ele>
        <time>2023-11-26T14:32:28Z</time>
      </trkpt>
      <trkpt lat="46.001296453177929" lon="9.466154146939516">
        <ele>1176.4200000000001</ele>
        <time>2023-11-26T14:32:41Z</time>
      </trkpt>
      <trkpt lat="46.00121296942234" lon="9.466148866340518">
        <ele>1174.3900000000001</ele>
        <time>2023-11-26T14:32:53Z</time>
      </trkpt>
      <trkpt lat="46.001141807064414" lon="9.466181136667728">
        <ele>1172.3399999999999</ele>
        <time>2023-11-26T14:33:06Z</time>
      </trkpt>
      <trkpt lat="46.001042146235704" lon="9.466190692037344">
        <ele>1169.3399999999999</ele>
        <time>2023-11-26T14:33:26Z</time>
      </trkpt>
      <trkpt lat="46.000969978049397" lon="9.466183986514807">
        <ele>1167.5</ele>
        <time>2023-11-26T14:33:41Z</time>
      </trkpt>
      <trkpt lat="46.00089630112052" lon="9.466171329841018">
        <ele>1165.6099999999999</ele>
        <time>2023-11-26T14:33:56Z</time>
      </trkpt>
      <trkpt lat="46.000838717445731" lon="9.466116009280086">
        <ele>1163.95</ele>
        <time>2023-11-26T14:34:09Z</time>
      </trkpt>
      <trkpt lat="46.000754898414016" lon="9.466122463345528">
        <ele>1162.5799999999999</ele>
        <time>2023-11-26T14:34:24Z</time>
      </trkpt>
      <trkpt lat="46.00067937746644" lon="9.46608055382967">
        <ele>1160.4200000000001</ele>
        <time>2023-11-26T14:34:37Z</time>
      </trkpt>
      <trkpt lat="46.000604527071118" lon="9.466045517474413">
        <ele>1158.8699999999999</ele>
        <time>2023-11-26T14:34:52Z</time>
      </trkpt>
      <trkpt lat="46.000536130741239" lon="9.465997908264399">
        <ele>1157.77</ele>
        <time>2023-11-26T14:35:05Z</time>
      </trkpt>
      <trkpt lat="46.000437391921878" lon="9.465985586866736">
        <ele>1156.1600000000001</ele>
        <time>2023-11-26T14:35:19Z</time>
      </trkpt>
      <trkpt lat="46.000376455485821" lon="9.465865306556225">
        <ele>1154.99</ele>
        <time>2023-11-26T14:35:30Z</time>
      </trkpt>
      <trkpt lat="46.000306885689497" lon="9.465789617970586">
        <ele>1153.3800000000001</ele>
        <time>2023-11-26T14:35:45Z</time>
      </trkpt>
      <trkpt lat="46.000302275642753" lon="9.465778553858399">
        <ele>1153.4000000000001</ele>
        <time>2023-11-26T14:35:46Z</time>
      </trkpt>
      <trkpt lat="46.000252654775977" lon="9.465683083981276">
        <ele>1152.78</ele>
        <time>2023-11-26T14:35:57Z</time>
      </trkpt>
      <trkpt lat="46.000178474932909" lon="9.465608904138207">
        <ele>1150.9300000000001</ele>
        <time>2023-11-26T14:36:12Z</time>
      </trkpt>
      <trkpt lat="46.00012231618166" lon="9.465559283271432">
        <ele>1149.1099999999999</ele>
        <time>2023-11-26T14:36:24Z</time>
      </trkpt>
      <trkpt lat="46.000081580132246" lon="9.465525588020682">
        <ele>1148.23</ele>
        <time>2023-11-26T14:36:33Z</time>
      </trkpt>
      <trkpt lat="46.000028103590012" lon="9.465495329350233">
        <ele>1147.1300000000001</ele>
        <time>2023-11-26T14:36:42Z</time>
      </trkpt>
      <trkpt lat="45.999971861019731" lon="9.465435901656747">
        <ele>1146.2</ele>
        <time>2023-11-26T14:36:50Z</time>
      </trkpt>
      <trkpt lat="45.99996549077332" lon="9.465424418449402">
        <ele>1146.0899999999999</ele>
        <time>2023-11-26T14:36:51Z</time>
      </trkpt>
      <trkpt lat="45.999929448589683" lon="9.465371193364263">
        <ele>1145.9400000000001</ele>
        <time>2023-11-26T14:36:57Z</time>
      </trkpt>
      <trkpt lat="45.999876726418734" lon="9.46529240347445">
        <ele>1145.28</ele>
        <time>2023-11-26T14:37:09Z</time>
      </trkpt>
      <trkpt lat="45.999823836609721" lon="9.465273628011346">
        <ele>1143.6800000000001</ele>
        <time>2023-11-26T14:37:19Z</time>
      </trkpt>
      <trkpt lat="45.999770862981677" lon="9.465217385441065">
        <ele>1142.1700000000001</ele>
        <time>2023-11-26T14:37:28Z</time>
      </trkpt>
      <trkpt lat="45.999757703393698" lon="9.465173045173287">
        <ele>1141.52</ele>
        <time>2023-11-26T14:37:33Z</time>
      </trkpt>
      <trkpt lat="45.999691234901547" lon="9.465121999382973">
        <ele>1139.8800000000001</ele>
        <time>2023-11-26T14:37:46Z</time>
      </trkpt>
      <trkpt lat="45.999658880755305" lon="9.465067936107516">
        <ele>1139.54</ele>
        <time>2023-11-26T14:37:55Z</time>
      </trkpt>
      <trkpt lat="45.999646224081516" lon="9.465022506192327">
        <ele>1139.4100000000001</ele>
        <time>2023-11-26T14:37:59Z</time>
      </trkpt>
      <trkpt lat="45.999630382284522" lon="9.464941788464785">
        <ele>1139.6199999999999</ele>
        <time>2023-11-26T14:38:05Z</time>
      </trkpt>
      <trkpt lat="45.999582689255476" lon="9.464888479560614">
        <ele>1139.3</ele>
        <time>2023-11-26T14:38:14Z</time>
      </trkpt>
      <trkpt lat="45.99952669814229" lon="9.464866099879146">
        <ele>1139.1800000000001</ele>
        <time>2023-11-26T14:38:23Z</time>
      </trkpt>
      <trkpt lat="45.999444220215082" lon="9.464827459305525">
        <ele>1137.9100000000001</ele>
        <time>2023-11-26T14:38:35Z</time>
      </trkpt>
      <trkpt lat="45.999388564378023" lon="9.464786136522889">
        <ele>1136.48</ele>
        <time>2023-11-26T14:38:46Z</time>
      </trkpt>
      <trkpt lat="45.999323604628444" lon="9.464736934751272">
        <ele>1134.9000000000001</ele>
        <time>2023-11-26T14:38:58Z</time>
      </trkpt>
      <trkpt lat="45.999239953234792" lon="9.464710196480155">
        <ele>1133.6099999999999</ele>
        <time>2023-11-26T14:39:14Z</time>
      </trkpt>
      <trkpt lat="45.999178010970354" lon="9.464675830677152">
        <ele>1132.6700000000001</ele>
        <time>2023-11-26T14:39:24Z</time>
      </trkpt>
      <trkpt lat="45.999080194160342" lon="9.464666359126568">
        <ele>1131.22</ele>
        <time>2023-11-26T14:39:39Z</time>
      </trkpt>
      <trkpt lat="45.998994614928961" lon="9.464671052992344">
        <ele>1129.48</ele>
        <time>2023-11-26T14:39:51Z</time>
      </trkpt>
      <trkpt lat="45.998925464227796" lon="9.464680859819055">
        <ele>1127.46</ele>
        <time>2023-11-26T14:40:03Z</time>
      </trkpt>
      <trkpt lat="45.998832173645496" lon="9.464670717716217">
        <ele>1126.1099999999999</ele>
        <time>2023-11-26T14:40:17Z</time>
      </trkpt>
      <trkpt lat="45.998737458139658" lon="9.464635094627738">
        <ele>1125.0899999999999</ele>
        <time>2023-11-26T14:40:31Z</time>
      </trkpt>
      <trkpt lat="45.998649448156357" lon="9.464590754359961">
        <ele>1123.5</ele>
        <time>2023-11-26T14:40:42Z</time>
      </trkpt>
      <trkpt lat="45.998588092625141" lon="9.464573320001364">
        <ele>1122</ele>
        <time>2023-11-26T14:40:53Z</time>
      </trkpt>
      <trkpt lat="45.998508632183075" lon="9.464539876207709">
        <ele>1120.52</ele>
        <time>2023-11-26T14:41:03Z</time>
      </trkpt>
      <trkpt lat="45.998425735160708" lon="9.464522525668144">
        <ele>1118.95</ele>
        <time>2023-11-26T14:41:15Z</time>
      </trkpt>
      <trkpt lat="45.998414251953363" lon="9.464524788782001">
        <ele>1118.3800000000001</ele>
        <time>2023-11-26T14:41:16Z</time>
      </trkpt>
      <trkpt lat="45.998401679098606" lon="9.464528560638428">
        <ele>1118.1099999999999</ele>
        <time>2023-11-26T14:41:17Z</time>
      </trkpt>
      <trkpt lat="45.998359601944685" lon="9.46452671661973">
        <ele>1117.4100000000001</ele>
        <time>2023-11-26T14:41:22Z</time>
      </trkpt>
      <trkpt lat="45.998349962756038" lon="9.464525878429413">
        <ele>1117.23</ele>
        <time>2023-11-26T14:41:23Z</time>
      </trkpt>
      <trkpt lat="45.998229095712304" lon="9.464495619758964">
        <ele>1115.72</ele>
        <time>2023-11-26T14:41:36Z</time>
      </trkpt>
      <trkpt lat="45.998212667182088" lon="9.464466953650117">
        <ele>1115.3499999999999</ele>
        <time>2023-11-26T14:41:39Z</time>
      </trkpt>
      <trkpt lat="45.998219540342689" lon="9.464440634474158">
        <ele>1115.5699999999999</ele>
        <time>2023-11-26T14:41:49Z</time>
      </trkpt>
      <trkpt lat="45.99821568466723" lon="9.464441724121571">
        <ele>1114.49</ele>
        <time>2023-11-26T14:41:51Z</time>
      </trkpt>
      <trkpt lat="45.998207554221153" lon="9.464391013607383">
        <ele>1115.48</ele>
        <time>2023-11-26T14:43:30Z</time>
      </trkpt>
      <trkpt lat="45.99817126058042" lon="9.464365784078836">
        <ele>1115.0599999999999</ele>
        <time>2023-11-26T14:43:33Z</time>
      </trkpt>
      <trkpt lat="45.998162375763059" lon="9.464355809614062">
        <ele>1114.98</ele>
        <time>2023-11-26T14:43:34Z</time>
      </trkpt>
      <trkpt lat="45.998151311650872" lon="9.464354468509555">
        <ele>1115.02</ele>
        <time>2023-11-26T14:43:35Z</time>
      </trkpt>
      <trkpt lat="45.998139241710305" lon="9.464349607005715">
        <ele>1114.8299999999999</ele>
        <time>2023-11-26T14:43:36Z</time>
      </trkpt>
      <trkpt lat="45.99812482483685" lon="9.464332424104214">
        <ele>1114.55</ele>
        <time>2023-11-26T14:43:37Z</time>
      </trkpt>
      <trkpt lat="45.998112838715315" lon="9.464315995573998">
        <ele>1114.51</ele>
        <time>2023-11-26T14:43:38Z</time>
      </trkpt>
      <trkpt lat="45.998106300830841" lon="9.464302835986018">
        <ele>1114.48</ele>
        <time>2023-11-26T14:43:39Z</time>
      </trkpt>
      <trkpt lat="45.99809791892767" lon="9.464289424940944">
        <ele>1114.27</ele>
        <time>2023-11-26T14:43:40Z</time>
      </trkpt>
      <trkpt lat="45.998031701892614" lon="9.464152213186026">
        <ele>1113.5599999999999</ele>
        <time>2023-11-26T14:43:49Z</time>
      </trkpt>
      <trkpt lat="45.998020386323333" lon="9.464139556512237">
        <ele>1113.3699999999999</ele>
        <time>2023-11-26T14:43:50Z</time>
      </trkpt>
      <trkpt lat="45.998009322211146" lon="9.464128408581018">
        <ele>1113.1500000000001</ele>
        <time>2023-11-26T14:43:51Z</time>
      </trkpt>
      <trkpt lat="45.997997000813484" lon="9.464118853211403">
        <ele>1112.9400000000001</ele>
        <time>2023-11-26T14:43:52Z</time>
      </trkpt>
      <trkpt lat="45.997988702729344" lon="9.464107621461153">
        <ele>1113.02</ele>
        <time>2023-11-26T14:43:53Z</time>
      </trkpt>
      <trkpt lat="45.997981997206807" lon="9.464096054434776">
        <ele>1113.0699999999999</ele>
        <time>2023-11-26T14:43:54Z</time>
      </trkpt>
      <trkpt lat="45.997955426573753" lon="9.464016342535615">
        <ele>1112.5799999999999</ele>
        <time>2023-11-26T14:44:00Z</time>
      </trkpt>
      <trkpt lat="45.997940842062235" lon="9.463993543758988">
        <ele>1112.47</ele>
        <time>2023-11-26T14:44:02Z</time>
      </trkpt>
      <trkpt lat="45.997931202873588" lon="9.463981641456485">
        <ele>1112.24</ele>
        <time>2023-11-26T14:44:03Z</time>
      </trkpt>
      <trkpt lat="45.997924078255892" lon="9.463956747204065">
        <ele>1112.0599999999999</ele>
        <time>2023-11-26T14:44:05Z</time>
      </trkpt>
      <trkpt lat="45.997885018587112" lon="9.463916849344969">
        <ele>1111.53</ele>
        <time>2023-11-26T14:44:12Z</time>
      </trkpt>
      <trkpt lat="45.997866494581103" lon="9.463883321732283">
        <ele>1111.0799999999999</ele>
        <time>2023-11-26T14:44:17Z</time>
      </trkpt>
      <trkpt lat="45.997816035524011" lon="9.463846022263169">
        <ele>1110.6400000000001</ele>
        <time>2023-11-26T14:44:30Z</time>
      </trkpt>
      <trkpt lat="45.997756272554398" lon="9.463762454688549">
        <ele>1109.8199999999999</ele>
        <time>2023-11-26T14:44:40Z</time>
      </trkpt>
      <trkpt lat="45.997708076611161" lon="9.463657345622778">
        <ele>1109.3699999999999</ele>
        <time>2023-11-26T14:44:54Z</time>
      </trkpt>
      <trkpt lat="45.997664574533701" lon="9.463599594309926">
        <ele>1109.45</ele>
        <time>2023-11-26T14:45:07Z</time>
      </trkpt>
      <trkpt lat="45.997663820162416" lon="9.463594229891896">
        <ele>1107.2</ele>
        <time>2023-11-26T14:45:11Z</time>
      </trkpt>
      <trkpt lat="45.997643955051899" lon="9.463587608188391">
        <ele>1107.0599999999999</ele>
        <time>2023-11-26T14:45:13Z</time>
      </trkpt>
      <trkpt lat="45.997629621997476" lon="9.463553493842483">
        <ele>1106.4200000000001</ele>
        <time>2023-11-26T14:45:18Z</time>
      </trkpt>
      <trkpt lat="45.997591903433204" lon="9.46349959820509">
        <ele>1105.97</ele>
        <time>2023-11-26T14:45:25Z</time>
      </trkpt>
      <trkpt lat="45.997563740238547" lon="9.463448468595743">
        <ele>1106.05</ele>
        <time>2023-11-26T14:45:31Z</time>
      </trkpt>
      <trkpt lat="45.997550413012505" lon="9.463413013145328">
        <ele>1105.5599999999999</ele>
        <time>2023-11-26T14:45:36Z</time>
      </trkpt>
      <trkpt lat="45.997519148513675" lon="9.463361967355013">
        <ele>1104.27</ele>
        <time>2023-11-26T14:45:43Z</time>
      </trkpt>
      <trkpt lat="45.997504228726029" lon="9.463159879669547">
        <ele>1102.75</ele>
        <time>2023-11-26T14:45:59Z</time>
      </trkpt>
      <trkpt lat="45.997482435777783" lon="9.463090477511287">
        <ele>1102.5899999999999</ele>
        <time>2023-11-26T14:46:04Z</time>
      </trkpt>
      <trkpt lat="45.997457038611174" lon="9.463048148900271">
        <ele>1102.3900000000001</ele>
        <time>2023-11-26T14:46:07Z</time>
      </trkpt>
      <trkpt lat="45.997431389987469" lon="9.462994001805782">
        <ele>1102.1900000000001</ele>
        <time>2023-11-26T14:46:15Z</time>
      </trkpt>
      <trkpt lat="45.997408842667937" lon="9.462959803640842">
        <ele>1101.8</ele>
        <time>2023-11-26T14:46:18Z</time>
      </trkpt>
      <trkpt lat="45.997398616746068" lon="9.462950667366386">
        <ele>1101.76</ele>
        <time>2023-11-26T14:46:19Z</time>
      </trkpt>
      <trkpt lat="45.997360982000828" lon="9.462931137531996">
        <ele>1101.25</ele>
        <time>2023-11-26T14:46:26Z</time>
      </trkpt>
      <trkpt lat="45.997311528772116" lon="9.462897442281246">
        <ele>1100.5</ele>
        <time>2023-11-26T14:46:32Z</time>
      </trkpt>
      <trkpt lat="45.997251514345407" lon="9.462806498631835">
        <ele>1097.8499999999999</ele>
        <time>2023-11-26T14:46:40Z</time>
      </trkpt>
      <trkpt lat="45.997255453839898" lon="9.462778000161052">
        <ele>1097.3699999999999</ele>
        <time>2023-11-26T14:46:41Z</time>
      </trkpt>
      <trkpt lat="45.997256124392152" lon="9.462757296860218">
        <ele>1097.55</ele>
        <time>2023-11-26T14:46:42Z</time>
      </trkpt>
      <trkpt lat="45.997248329222202" lon="9.462746148929">
        <ele>1097.5</ele>
        <time>2023-11-26T14:46:43Z</time>
      </trkpt>
      <trkpt lat="45.997232235968113" lon="9.462743131443858">
        <ele>1097.0999999999999</ele>
        <time>2023-11-26T14:46:44Z</time>
      </trkpt>
      <trkpt lat="45.997209018096328" lon="9.46273684501648">
        <ele>1096.8199999999999</ele>
        <time>2023-11-26T14:46:46Z</time>
      </trkpt>
      <trkpt lat="45.997204910963774" lon="9.46271731518209">
        <ele>1096.6099999999999</ele>
        <time>2023-11-26T14:46:47Z</time>
      </trkpt>
      <trkpt lat="45.997199295088649" lon="9.462699210271239">
        <ele>1096.5899999999999</ele>
        <time>2023-11-26T14:46:48Z</time>
      </trkpt>
      <trkpt lat="45.997177334502339" lon="9.462682697921991">
        <ele>1096.6199999999999</ele>
        <time>2023-11-26T14:46:50Z</time>
      </trkpt>
      <trkpt lat="45.997168617323041" lon="9.462647577747703">
        <ele>1096.0799999999999</ele>
        <time>2023-11-26T14:46:53Z</time>
      </trkpt>
      <trkpt lat="45.997175741940737" lon="9.462620001286268">
        <ele>1096.1400000000001</ele>
        <time>2023-11-26T14:46:54Z</time>
      </trkpt>
      <trkpt lat="45.997154703363776" lon="9.462516652420163">
        <ele>1095.3599999999999</ele>
        <time>2023-11-26T14:47:03Z</time>
      </trkpt>
      <trkpt lat="45.997130731120706" lon="9.462463008239865">
        <ele>1095.25</ele>
        <time>2023-11-26T14:47:06Z</time>
      </trkpt>
      <trkpt lat="45.997110698372126" lon="9.462369633838534">
        <ele>1094.5699999999999</ele>
        <time>2023-11-26T14:47:13Z</time>
      </trkpt>
      <trkpt lat="45.997084379196167" lon="9.462334346026182">
        <ele>1093.99</ele>
        <time>2023-11-26T14:47:16Z</time>
      </trkpt>
      <trkpt lat="45.997064346447587" lon="9.462339039891958">
        <ele>1093.6400000000001</ele>
        <time>2023-11-26T14:47:17Z</time>
      </trkpt>
      <trkpt lat="45.997020257636905" lon="9.462272990494967">
        <ele>1092.5599999999999</ele>
        <time>2023-11-26T14:47:23Z</time>
      </trkpt>
      <trkpt lat="45.996930655092001" lon="9.46219889447093">
        <ele>1090.6800000000001</ele>
        <time>2023-11-26T14:47:34Z</time>
      </trkpt>
      <trkpt lat="45.99691154435277" lon="9.462158242240548">
        <ele>1090.0999999999999</ele>
        <time>2023-11-26T14:47:37Z</time>
      </trkpt>
      <trkpt lat="45.996856475248933" lon="9.462129827588797">
        <ele>1089.29</ele>
        <time>2023-11-26T14:47:45Z</time>
      </trkpt>
      <trkpt lat="45.996818002313375" lon="9.462102586403489">
        <ele>1088.01</ele>
        <time>2023-11-26T14:47:53Z</time>
      </trkpt>
      <trkpt lat="45.996790761128068" lon="9.462088840082288">
        <ele>1086.8599999999999</ele>
        <time>2023-11-26T14:47:59Z</time>
      </trkpt>
      <trkpt lat="45.996718090027571" lon="9.462037542834878">
        <ele>1085.6700000000001</ele>
        <time>2023-11-26T14:48:09Z</time>
      </trkpt>
      <trkpt lat="45.996691938489676" lon="9.462001919746399">
        <ele>1084.98</ele>
        <time>2023-11-26T14:48:16Z</time>
      </trkpt>
      <trkpt lat="45.996674755588174" lon="9.461982138454914">
        <ele>1084.9100000000001</ele>
        <time>2023-11-26T14:48:18Z</time>
      </trkpt>
      <trkpt lat="45.99665354937315" lon="9.461977360770106">
        <ele>1084.3900000000001</ele>
        <time>2023-11-26T14:48:20Z</time>
      </trkpt>
      <trkpt lat="45.996641060337424" lon="9.461972415447235">
        <ele>1084.24</ele>
        <time>2023-11-26T14:48:21Z</time>
      </trkpt>
      <trkpt lat="45.996630163863301" lon="9.461974091827869">
        <ele>1084.1099999999999</ele>
        <time>2023-11-26T14:48:22Z</time>
      </trkpt>
      <trkpt lat="45.996600994840264" lon="9.461956489831209">
        <ele>1083.6900000000001</ele>
        <time>2023-11-26T14:48:27Z</time>
      </trkpt>
      <trkpt lat="45.996569143608212" lon="9.461933271959424">
        <ele>1083.29</ele>
        <time>2023-11-26T14:48:31Z</time>
      </trkpt>
      <trkpt lat="45.996561264619231" lon="9.46192136965692">
        <ele>1082.99</ele>
        <time>2023-11-26T14:48:32Z</time>
      </trkpt>
      <trkpt lat="45.996497059240937" lon="9.461913323029876">
        <ele>1082.1800000000001</ele>
        <time>2023-11-26T14:48:40Z</time>
      </trkpt>
      <trkpt lat="45.996489515528083" lon="9.461912401020527">
        <ele>1081.98</ele>
        <time>2023-11-26T14:48:41Z</time>
      </trkpt>
      <trkpt lat="45.996477948501706" lon="9.461910054087639">
        <ele>1081.72</ele>
        <time>2023-11-26T14:48:42Z</time>
      </trkpt>
      <trkpt lat="45.996463196352124" lon="9.46189790032804">
        <ele>1081.74</ele>
        <time>2023-11-26T14:48:44Z</time>
      </trkpt>
      <trkpt lat="45.996442157775164" lon="9.461869653314352">
        <ele>1081.6800000000001</ele>
        <time>2023-11-26T14:48:47Z</time>
      </trkpt>
      <trkpt lat="45.996394716203213" lon="9.461830090731382">
        <ele>1081.5599999999999</ele>
        <time>2023-11-26T14:48:52Z</time>
      </trkpt>
      <trkpt lat="45.996341910213232" lon="9.461806872859597">
        <ele>1081.3800000000001</ele>
        <time>2023-11-26T14:48:56Z</time>
      </trkpt>
      <trkpt lat="45.996275693178177" lon="9.461760688573122">
        <ele>1080.5999999999999</ele>
        <time>2023-11-26T14:49:04Z</time>
      </trkpt>
      <trkpt lat="45.996265802532434" lon="9.461751217022538">
        <ele>1080.6700000000001</ele>
        <time>2023-11-26T14:49:05Z</time>
      </trkpt>
      <trkpt lat="45.996245434507728" lon="9.46173713542521">
        <ele>1080.54</ele>
        <time>2023-11-26T14:49:07Z</time>
      </trkpt>
      <trkpt lat="45.996179636567831" lon="9.461705619469285">
        <ele>1079.3199999999999</ele>
        <time>2023-11-26T14:49:15Z</time>
      </trkpt>
      <trkpt lat="45.996161783114076" lon="9.461682653054595">
        <ele>1078.5799999999999</ele>
        <time>2023-11-26T14:49:18Z</time>
      </trkpt>
      <trkpt lat="45.996108138933778" lon="9.461662955582142">
        <ele>1077.4300000000001</ele>
        <time>2023-11-26T14:49:25Z</time>
      </trkpt>
      <trkpt lat="45.996055919677019" lon="9.461638312786818">
        <ele>1076.54</ele>
        <time>2023-11-26T14:49:31Z</time>
      </trkpt>
      <trkpt lat="45.996048208326101" lon="9.461629092693329">
        <ele>1076.3199999999999</ele>
        <time>2023-11-26T14:49:32Z</time>
      </trkpt>
      <trkpt lat="45.996035048738122" lon="9.461566563695669">
        <ele>1075.73</ele>
        <time>2023-11-26T14:49:37Z</time>
      </trkpt>
      <trkpt lat="45.996025912463665" lon="9.461499257013202">
        <ele>1074.99</ele>
        <time>2023-11-26T14:49:43Z</time>
      </trkpt>
      <trkpt lat="45.995967322960496" lon="9.461432369425893">
        <ele>1073.52</ele>
        <time>2023-11-26T14:49:51Z</time>
      </trkpt>
      <trkpt lat="45.995944356545806" lon="9.461373025551438">
        <ele>1073.1199999999999</ele>
        <time>2023-11-26T14:49:56Z</time>
      </trkpt>
      <trkpt lat="45.995889455080032" lon="9.461281076073647">
        <ele>1071.95</ele>
        <time>2023-11-26T14:50:05Z</time>
      </trkpt>
      <trkpt lat="45.995828434824944" lon="9.461219888180494">
        <ele>1070.5599999999999</ele>
        <time>2023-11-26T14:50:13Z</time>
      </trkpt>
      <trkpt lat="45.995771940797567" lon="9.461144786328077">
        <ele>1068.8099999999999</ele>
        <time>2023-11-26T14:50:23Z</time>
      </trkpt>
      <trkpt lat="45.995715446770191" lon="9.461090555414558">
        <ele>1067.3199999999999</ele>
        <time>2023-11-26T14:50:31Z</time>
      </trkpt>
      <trkpt lat="45.995705807581544" lon="9.461085861548781">
        <ele>1067.05</ele>
        <time>2023-11-26T14:50:32Z</time>
      </trkpt>
      <trkpt lat="45.995661467313766" lon="9.461029870435596">
        <ele>1065.8399999999999</ele>
        <time>2023-11-26T14:50:39Z</time>
      </trkpt>
      <trkpt lat="45.995560884475708" lon="9.460970191285014">
        <ele>1063.8800000000001</ele>
        <time>2023-11-26T14:50:49Z</time>
      </trkpt>
      <trkpt lat="45.995538840070367" lon="9.460944207385182">
        <ele>1062.78</ele>
        <time>2023-11-26T14:50:54Z</time>
      </trkpt>
      <trkpt lat="45.995434988290071" lon="9.460871368646622">
        <ele>1060.4400000000001</ele>
        <time>2023-11-26T14:51:07Z</time>
      </trkpt>
      <trkpt lat="45.995422247797251" lon="9.460869356989861">
        <ele>1060.4000000000001</ele>
        <time>2023-11-26T14:51:08Z</time>
      </trkpt>
      <trkpt lat="45.995409339666367" lon="9.46086784824729">
        <ele>1060.3399999999999</ele>
        <time>2023-11-26T14:51:09Z</time>
      </trkpt>
      <trkpt lat="45.995396682992578" lon="9.460866926237941">
        <ele>1060.26</ele>
        <time>2023-11-26T14:51:10Z</time>
      </trkpt>
      <trkpt lat="45.995384613052011" lon="9.46086491458118">
        <ele>1060.27</ele>
        <time>2023-11-26T14:51:11Z</time>
      </trkpt>
      <trkpt lat="45.995372207835317" lon="9.46086055599153">
        <ele>1060.0899999999999</ele>
        <time>2023-11-26T14:51:12Z</time>
      </trkpt>
      <trkpt lat="45.995360389351845" lon="9.460854521021247">
        <ele>1060.03</ele>
        <time>2023-11-26T14:51:13Z</time>
      </trkpt>
      <trkpt lat="45.995255196467042" lon="9.460785705596209">
        <ele>1058.6500000000001</ele>
        <time>2023-11-26T14:51:25Z</time>
      </trkpt>
      <trkpt lat="45.995109518989921" lon="9.460744131356478">
        <ele>1056.9000000000001</ele>
        <time>2023-11-26T14:51:39Z</time>
      </trkpt>
      <trkpt lat="45.995075739920139" lon="9.460726864635944">
        <ele>1056.46</ele>
        <time>2023-11-26T14:51:43Z</time>
      </trkpt>
      <trkpt lat="45.995053444057703" lon="9.460724014788866">
        <ele>1056.28</ele>
        <time>2023-11-26T14:51:45Z</time>
      </trkpt>
      <trkpt lat="45.99503475241363" lon="9.460730720311403">
        <ele>1056.3</ele>
        <time>2023-11-26T14:51:46Z</time>
      </trkpt>
      <trkpt lat="45.995024107396603" lon="9.460729379206896">
        <ele>1056.22</ele>
        <time>2023-11-26T14:51:47Z</time>
      </trkpt>
      <trkpt lat="45.994887985289097" lon="9.460727367550135">
        <ele>1054.48</ele>
        <time>2023-11-26T14:51:59Z</time>
      </trkpt>
      <trkpt lat="45.994790168479085" lon="9.460756788030267">
        <ele>1053.4400000000001</ele>
        <time>2023-11-26T14:52:08Z</time>
      </trkpt>
      <trkpt lat="45.994781283661723" lon="9.460766678676009">
        <ele>1053.3599999999999</ele>
        <time>2023-11-26T14:52:09Z</time>
      </trkpt>
      <trkpt lat="45.994771979749203" lon="9.460776150226593">
        <ele>1053.3299999999999</ele>
        <time>2023-11-26T14:52:10Z</time>
      </trkpt>
      <trkpt lat="45.994632253423333" lon="9.46090841665864">
        <ele>1051.1199999999999</ele>
        <time>2023-11-26T14:52:25Z</time>
      </trkpt>
      <trkpt lat="45.994578693062067" lon="9.460941106081009">
        <ele>1050.3099999999999</ele>
        <time>2023-11-26T14:52:32Z</time>
      </trkpt>
      <trkpt lat="45.994517086073756" lon="9.460967676714063">
        <ele>1049.3599999999999</ele>
        <time>2023-11-26T14:52:38Z</time>
      </trkpt>
      <trkpt lat="45.994492275640368" lon="9.460974130779505">
        <ele>1049.1700000000001</ele>
        <time>2023-11-26T14:52:40Z</time>
      </trkpt>
      <trkpt lat="45.994481211528182" lon="9.460975974798203">
        <ele>1048.54</ele>
        <time>2023-11-26T14:52:41Z</time>
      </trkpt>
      <trkpt lat="45.994469728320837" lon="9.460978237912059">
        <ele>1048.29</ele>
        <time>2023-11-26T14:52:42Z</time>
      </trkpt>
      <trkpt lat="45.994458999484777" lon="9.460981003940105">
        <ele>1048.1199999999999</ele>
        <time>2023-11-26T14:52:43Z</time>
      </trkpt>
      <trkpt lat="45.994446845725179" lon="9.460985027253628">
        <ele>1047.77</ele>
        <time>2023-11-26T14:52:44Z</time>
      </trkpt>
      <trkpt lat="45.994404600933194" lon="9.460995588451624">
        <ele>1046.9100000000001</ele>
        <time>2023-11-26T14:52:48Z</time>
      </trkpt>
      <trkpt lat="45.994379371404648" lon="9.460996929556131">
        <ele>1046.53</ele>
        <time>2023-11-26T14:52:50Z</time>
      </trkpt>
      <trkpt lat="45.994323715567589" lon="9.461008496582508">
        <ele>1045.8299999999999</ele>
        <time>2023-11-26T14:52:56Z</time>
      </trkpt>
      <trkpt lat="45.994290020316839" lon="9.461010089144111">
        <ele>1045.53</ele>
        <time>2023-11-26T14:52:59Z</time>
      </trkpt>
      <trkpt lat="45.994271328672767" lon="9.461007574573159">
        <ele>1044.9200000000001</ele>
        <time>2023-11-26T14:53:01Z</time>
      </trkpt>
      <trkpt lat="45.994260851293802" lon="9.461004976183176">
        <ele>1043.5</ele>
        <time>2023-11-26T14:53:02Z</time>
      </trkpt>
      <trkpt lat="45.994250876829028" lon="9.461003551259637">
        <ele>1043.8699999999999</ele>
        <time>2023-11-26T14:53:03Z</time>
      </trkpt>
      <trkpt lat="45.994226485490799" lon="9.461002629250288">
        <ele>1045.6099999999999</ele>
        <time>2023-11-26T14:53:06Z</time>
      </trkpt>
      <trkpt lat="45.994101595133543" lon="9.460982931777835">
        <ele>1043.1900000000001</ele>
        <time>2023-11-26T14:53:18Z</time>
      </trkpt>
      <trkpt lat="45.99409019574523" lon="9.460981925949454">
        <ele>1043.03</ele>
        <time>2023-11-26T14:53:19Z</time>
      </trkpt>
      <trkpt lat="45.994000006467104" lon="9.460921073332429">
        <ele>1041.53</ele>
        <time>2023-11-26T14:53:30Z</time>
      </trkpt>
      <trkpt lat="45.993939572945237" lon="9.46087614633143">
        <ele>1041</ele>
        <time>2023-11-26T14:53:36Z</time>
      </trkpt>
      <trkpt lat="45.993811497464776" lon="9.460805570706725">
        <ele>1039.78</ele>
        <time>2023-11-26T14:53:50Z</time>
      </trkpt>
      <trkpt lat="45.993748884648085" lon="9.460770869627595">
        <ele>1039.05</ele>
        <time>2023-11-26T14:53:57Z</time>
      </trkpt>
      <trkpt lat="45.993652576580644" lon="9.460764080286026">
        <ele>1037.77</ele>
        <time>2023-11-26T14:54:06Z</time>
      </trkpt>
      <trkpt lat="45.993539169430733" lon="9.460768355056644">
        <ele>1036.2</ele>
        <time>2023-11-26T14:54:18Z</time>
      </trkpt>
      <trkpt lat="45.993439173325896" lon="9.460798865184188">
        <ele>1034.8900000000001</ele>
        <time>2023-11-26T14:54:27Z</time>
      </trkpt>
      <trkpt lat="45.993428276851773" lon="9.460797272622585">
        <ele>1034.8900000000001</ele>
        <time>2023-11-26T14:54:28Z</time>
      </trkpt>
      <trkpt lat="45.993416626006365" lon="9.460796099156141">
        <ele>1034.6900000000001</ele>
        <time>2023-11-26T14:54:29Z</time>
      </trkpt>
      <trkpt lat="45.993404388427734" lon="9.460793836042285">
        <ele>1034.49</ele>
        <time>2023-11-26T14:54:30Z</time>
      </trkpt>
      <trkpt lat="45.993391815572977" lon="9.460792578756809">
        <ele>1034.3099999999999</ele>
        <time>2023-11-26T14:54:31Z</time>
      </trkpt>
      <trkpt lat="45.993218142539263" lon="9.46074522100389">
        <ele>1032.54</ele>
        <time>2023-11-26T14:54:47Z</time>
      </trkpt>
      <trkpt lat="45.993054695427418" lon="9.460666934028268">
        <ele>1030.48</ele>
        <time>2023-11-26T14:55:03Z</time>
      </trkpt>
      <trkpt lat="45.99292142316699" lon="9.460638100281358">
        <ele>1029.1099999999999</ele>
        <time>2023-11-26T14:55:16Z</time>
      </trkpt>
      <trkpt lat="45.992737524211407" lon="9.460655534639955">
        <ele>1026.96</ele>
        <time>2023-11-26T14:55:33Z</time>
      </trkpt>
      <trkpt lat="45.992631409317255" lon="9.46066458709538">
        <ele>1025.6700000000001</ele>
        <time>2023-11-26T14:55:43Z</time>
      </trkpt>
      <trkpt lat="45.992527473717928" lon="9.460715632885695">
        <ele>1024.4400000000001</ele>
        <time>2023-11-26T14:55:53Z</time>
      </trkpt>
      <trkpt lat="45.992435356602073" lon="9.460845217108727">
        <ele>1022.28</ele>
        <time>2023-11-26T14:56:05Z</time>
      </trkpt>
      <trkpt lat="45.992434183135629" lon="9.460886707529426">
        <ele>1021.8</ele>
        <time>2023-11-26T14:56:08Z</time>
      </trkpt>
      <trkpt lat="45.992429824545979" lon="9.460902130231261">
        <ele>1021.52</ele>
        <time>2023-11-26T14:56:09Z</time>
      </trkpt>
      <trkpt lat="45.992404762655497" lon="9.460978154093027">
        <ele>1020.54</ele>
        <time>2023-11-26T14:56:15Z</time>
      </trkpt>
      <trkpt lat="45.992397721856833" lon="9.460991565138102">
        <ele>1020.34</ele>
        <time>2023-11-26T14:56:16Z</time>
      </trkpt>
      <trkpt lat="45.992381712421775" lon="9.461084268987179">
        <ele>1018.89</ele>
        <time>2023-11-26T14:56:24Z</time>
      </trkpt>
      <trkpt lat="45.992376264184713" lon="9.461098182946444">
        <ele>1018.67</ele>
        <time>2023-11-26T14:56:25Z</time>
      </trkpt>
      <trkpt lat="45.992371570318937" lon="9.461111426353455">
        <ele>1018.4299999999999</ele>
        <time>2023-11-26T14:56:26Z</time>
      </trkpt>
      <trkpt lat="45.992372576147318" lon="9.461122071370482">
        <ele>1018.3</ele>
        <time>2023-11-26T14:56:27Z</time>
      </trkpt>
      <trkpt lat="45.992351453751326" lon="9.461266156286001">
        <ele>1016.34</ele>
        <time>2023-11-26T14:56:39Z</time>
      </trkpt>
      <trkpt lat="45.992294289171696" lon="9.461367325857282">
        <ele>1014.52</ele>
        <time>2023-11-26T14:56:49Z</time>
      </trkpt>
      <trkpt lat="45.992188928648829" lon="9.461426921188831">
        <ele>1012.3099999999999</ele>
        <time>2023-11-26T14:57:01Z</time>
      </trkpt>
      <trkpt lat="45.992117347195745" lon="9.46146396920085">
        <ele>1010.83</ele>
        <time>2023-11-26T14:57:08Z</time>
      </trkpt>
      <trkpt lat="45.992086753249168" lon="9.461467573419213">
        <ele>1010.16</ele>
        <time>2023-11-26T14:57:11Z</time>
      </trkpt>
      <trkpt lat="45.991966221481562" lon="9.461508393287659">
        <ele>1008.15</ele>
        <time>2023-11-26T14:57:23Z</time>
      </trkpt>
      <trkpt lat="45.991785507649183" lon="9.461535299196839">
        <ele>1005.58</ele>
        <time>2023-11-26T14:57:39Z</time>
      </trkpt>
      <trkpt lat="45.991709148511291" lon="9.461533622816205">
        <ele>1004.4299999999999</ele>
        <time>2023-11-26T14:57:50Z</time>
      </trkpt>
      <trkpt lat="45.991616109386086" lon="9.461484421044588">
        <ele>1003.48</ele>
        <time>2023-11-26T14:58:01Z</time>
      </trkpt>
      <trkpt lat="45.991488536819816" lon="9.46143664419651">
        <ele>1001.46</ele>
        <time>2023-11-26T14:58:13Z</time>
      </trkpt>
      <trkpt lat="45.991477305069566" lon="9.461432034149766">
        <ele>1001.27</ele>
        <time>2023-11-26T14:58:14Z</time>
      </trkpt>
      <trkpt lat="45.991277899593115" lon="9.4613594468683">
        <ele>998.79999999999995</ele>
        <time>2023-11-26T14:58:32Z</time>
      </trkpt>
      <trkpt lat="45.991256358101964" lon="9.461359530687332">
        <ele>998.48000000000002</ele>
        <time>2023-11-26T14:58:34Z</time>
      </trkpt>
      <trkpt lat="45.991102550178766" lon="9.46134083904326">
        <ele>996.25999999999999</ele>
        <time>2023-11-26T14:58:48Z</time>
      </trkpt>
      <trkpt lat="45.991003643721342" lon="9.461355842649937">
        <ele>994.76999999999998</ele>
        <time>2023-11-26T14:58:59Z</time>
      </trkpt>
      <trkpt lat="45.990916639566422" lon="9.461368415504694">
        <ele>993.48000000000002</ele>
        <time>2023-11-26T14:59:08Z</time>
      </trkpt>
      <trkpt lat="45.990787139162421" lon="9.461378725245595">
        <ele>991.62</ele>
        <time>2023-11-26T14:59:21Z</time>
      </trkpt>
      <trkpt lat="45.990810608491302" lon="9.461437566205859">
        <ele>987.38999999999999</ele>
        <time>2023-11-26T15:01:00Z</time>
      </trkpt>
      <trkpt lat="45.990864504128695" lon="9.461512165144086">
        <ele>985.44000000000005</ele>
        <time>2023-11-26T15:01:13Z</time>
      </trkpt>
      <trkpt lat="45.990852685645223" lon="9.461582489311695">
        <ele>982.61000000000001</ele>
        <time>2023-11-26T15:01:26Z</time>
      </trkpt>
      <trkpt lat="45.990796945989132" lon="9.461638648062944">
        <ele>980.02999999999997</ele>
        <time>2023-11-26T15:01:40Z</time>
      </trkpt>
      <trkpt lat="45.990746403113008" lon="9.46173713542521">
        <ele>977.51999999999998</ele>
        <time>2023-11-26T15:01:52Z</time>
      </trkpt>
      <trkpt lat="45.990684293210506" lon="9.461797485128045">
        <ele>974.63</ele>
        <time>2023-11-26T15:02:07Z</time>
      </trkpt>
      <trkpt lat="45.990674570202827" lon="9.461801508441567">
        <ele>974.5</ele>
        <time>2023-11-26T15:02:08Z</time>
      </trkpt>
      <trkpt lat="45.990653028711677" lon="9.461864121258259">
        <ele>972.74000000000001</ele>
        <time>2023-11-26T15:02:19Z</time>
      </trkpt>
      <trkpt lat="45.990580273792148" lon="9.461927823722363">
        <ele>970.50999999999999</ele>
        <time>2023-11-26T15:02:34Z</time>
      </trkpt>
      <trkpt lat="45.990522438660264" lon="9.461965458467603">
        <ele>969.22000000000003</ele>
        <time>2023-11-26T15:02:45Z</time>
      </trkpt>
      <trkpt lat="45.990459490567446" lon="9.461996639147401">
        <ele>967.27999999999997</ele>
        <time>2023-11-26T15:02:58Z</time>
      </trkpt>
      <trkpt lat="45.990397967398167" lon="9.462060341611505">
        <ele>965.20000000000005</ele>
        <time>2023-11-26T15:03:13Z</time>
      </trkpt>
      <trkpt lat="45.990347927436233" lon="9.462104346603155">
        <ele>963.87</ele>
        <time>2023-11-26T15:03:24Z</time>
      </trkpt>
      <trkpt lat="45.990285985171795" lon="9.462114907801151">
        <ele>962.40999999999997</ele>
        <time>2023-11-26T15:03:37Z</time>
      </trkpt>
      <trkpt lat="45.990235526114702" lon="9.462140472605825">
        <ele>960.92999999999995</ele>
        <time>2023-11-26T15:03:48Z</time>
      </trkpt>
      <trkpt lat="45.990168638527393" lon="9.462173078209162">
        <ele>958.50999999999999</ele>
        <time>2023-11-26T15:04:00Z</time>
      </trkpt>
      <trkpt lat="45.990084568038583" lon="9.462213143706322">
        <ele>956.45000000000005</ele>
        <time>2023-11-26T15:04:15Z</time>
      </trkpt>
      <trkpt lat="45.990006029605865" lon="9.46222186088562">
        <ele>954.77999999999997</ele>
        <time>2023-11-26T15:04:26Z</time>
      </trkpt>
      <trkpt lat="45.989901591092348" lon="9.462204845622182">
        <ele>953.5</ele>
        <time>2023-11-26T15:04:39Z</time>
      </trkpt>
      <trkpt lat="45.989811066538095" lon="9.462186740711331">
        <ele>952.55999999999995</ele>
        <time>2023-11-26T15:04:54Z</time>
      </trkpt>
      <trkpt lat="45.989731438457966" lon="9.462185986340046">
        <ele>951.27999999999997</ele>
        <time>2023-11-26T15:05:08Z</time>
      </trkpt>
      <trkpt lat="45.989622306078672" lon="9.462165199220181">
        <ele>950.05999999999995</ele>
        <time>2023-11-26T15:05:22Z</time>
      </trkpt>
      <trkpt lat="45.98954007960856" lon="9.462138460949063">
        <ele>948.94000000000005</ele>
        <time>2023-11-26T15:05:34Z</time>
      </trkpt>
      <trkpt lat="45.989464139565825" lon="9.46213192306459">
        <ele>948.23000000000002</ele>
        <time>2023-11-26T15:05:45Z</time>
      </trkpt>
      <trkpt lat="45.98938962444663" lon="9.462087582796812">
        <ele>946.75999999999999</ele>
        <time>2023-11-26T15:05:56Z</time>
      </trkpt>
      <trkpt lat="45.989379733800888" lon="9.462084481492639">
        <ele>946.75999999999999</ele>
        <time>2023-11-26T15:05:57Z</time>
      </trkpt>
      <trkpt lat="45.989327933639288" lon="9.462055312469602">
        <ele>945.73000000000002</ele>
        <time>2023-11-26T15:06:08Z</time>
      </trkpt>
      <trkpt lat="45.98924009129405" lon="9.462047768756747">
        <ele>943.02999999999997</ele>
        <time>2023-11-26T15:06:26Z</time>
      </trkpt>
      <trkpt lat="45.989172533154488" lon="9.462069058790803">
        <ele>940.75999999999999</ele>
        <time>2023-11-26T15:06:40Z</time>
      </trkpt>
      <trkpt lat="45.989083098247647" lon="9.462087918072939">
        <ele>937.76999999999998</ele>
        <time>2023-11-26T15:06:55Z</time>
      </trkpt>
      <trkpt lat="45.989036662504077" lon="9.462053049355745">
        <ele>935.70000000000005</ele>
        <time>2023-11-26T15:07:09Z</time>
      </trkpt>
      <trkpt lat="45.988958207890391" lon="9.462093282490969">
        <ele>933.45000000000005</ele>
        <time>2023-11-26T15:07:23Z</time>
      </trkpt>
      <trkpt lat="45.988853601738811" lon="9.462082972750068">
        <ele>931.27999999999997</ele>
        <time>2023-11-26T15:07:37Z</time>
      </trkpt>
      <trkpt lat="45.988770620897412" lon="9.46209336631">
        <ele>928.95000000000005</ele>
        <time>2023-11-26T15:07:49Z</time>
      </trkpt>
      <trkpt lat="45.988655369728804" lon="9.46208749897778">
        <ele>927.49000000000001</ele>
        <time>2023-11-26T15:08:02Z</time>
      </trkpt>
      <trkpt lat="45.988513212651014" lon="9.462028741836548">
        <ele>926.46000000000004</ele>
        <time>2023-11-26T15:08:19Z</time>
      </trkpt>
      <trkpt lat="45.988439619541168" lon="9.461991358548403">
        <ele>925.92999999999995</ele>
        <time>2023-11-26T15:08:28Z</time>
      </trkpt>
      <trkpt lat="45.988391675055027" lon="9.461980210617185">
        <ele>924.49000000000001</ele>
        <time>2023-11-26T15:08:34Z</time>
      </trkpt>
      <trkpt lat="45.988278519362211" lon="9.461997225880623">
        <ele>921.88</ele>
        <time>2023-11-26T15:08:52Z</time>
      </trkpt>
      <trkpt lat="45.988160250708461" lon="9.461952466517687">
        <ele>920.53999999999996</ele>
        <time>2023-11-26T15:09:06Z</time>
      </trkpt>
      <trkpt lat="45.98806980997324" lon="9.461923632770777">
        <ele>919.23000000000002</ele>
        <time>2023-11-26T15:09:20Z</time>
      </trkpt>
      <trkpt lat="45.987951457500458" lon="9.461907371878624">
        <ele>918.12</ele>
        <time>2023-11-26T15:09:36Z</time>
      </trkpt>
      <trkpt lat="45.987880965694785" lon="9.46188373491168">
        <ele>917.08000000000004</ele>
        <time>2023-11-26T15:09:46Z</time>
      </trkpt>
      <trkpt lat="45.987793793901801" lon="9.461861858144403">
        <ele>914.79999999999995</ele>
        <time>2023-11-26T15:09:58Z</time>
      </trkpt>
      <trkpt lat="45.987780718132854" lon="9.461857918649912">
        <ele>914.66999999999996</ele>
        <time>2023-11-26T15:09:59Z</time>
      </trkpt>
      <trkpt lat="45.987685415893793" lon="9.46178650483489">
        <ele>913.07000000000005</ele>
        <time>2023-11-26T15:10:10Z</time>
      </trkpt>
      <trkpt lat="45.987615846097469" lon="9.461751887574792">
        <ele>911.86000000000001</ele>
        <time>2023-11-26T15:10:21Z</time>
      </trkpt>
      <trkpt lat="45.987564716488123" lon="9.461710397154093">
        <ele>910.34000000000003</ele>
        <time>2023-11-26T15:10:31Z</time>
      </trkpt>
      <trkpt lat="45.987490955740213" lon="9.461693549528718">
        <ele>908.25</ele>
        <time>2023-11-26T15:10:45Z</time>
      </trkpt>
      <trkpt lat="45.987415853887796" lon="9.461654154583812">
        <ele>906.37</ele>
        <time>2023-11-26T15:11:02Z</time>
      </trkpt>
      <trkpt lat="45.987323988229036" lon="9.461617358028889">
        <ele>904.08000000000004</ele>
        <time>2023-11-26T15:11:15Z</time>
      </trkpt>
      <trkpt lat="45.987298171967268" lon="9.46160227060318">
        <ele>903.42999999999995</ele>
        <time>2023-11-26T15:11:18Z</time>
      </trkpt>
      <trkpt lat="45.987246204167604" lon="9.46152850985527">
        <ele>902.08000000000004</ele>
        <time>2023-11-26T15:11:30Z</time>
      </trkpt>
      <trkpt lat="45.987178310751915" lon="9.46149573661387">
        <ele>900.19000000000005</ele>
        <time>2023-11-26T15:11:44Z</time>
      </trkpt>
      <trkpt lat="45.987117039039731" lon="9.461509650573134">
        <ele>897.95000000000005</ele>
        <time>2023-11-26T15:12:00Z</time>
      </trkpt>
      <trkpt lat="45.987042607739568" lon="9.461605791002512">
        <ele>891.95000000000005</ele>
        <time>2023-11-26T15:12:43Z</time>
      </trkpt>
      <trkpt lat="45.986996926367283" lon="9.461548374965787">
        <ele>890.70000000000005</ele>
        <time>2023-11-26T15:12:58Z</time>
      </trkpt>
      <trkpt lat="45.986906569451094" lon="9.461537478491664">
        <ele>888.63</ele>
        <time>2023-11-26T15:13:12Z</time>
      </trkpt>
      <trkpt lat="45.986831802874804" lon="9.461487270891666">
        <ele>886.13</ele>
        <time>2023-11-26T15:13:26Z</time>
      </trkpt>
      <trkpt lat="45.986721999943256" lon="9.461485175415874">
        <ele>884.11000000000001</ele>
        <time>2023-11-26T15:13:44Z</time>
      </trkpt>
      <trkpt lat="45.986648742109537" lon="9.461443852633238">
        <ele>881.57000000000005</ele>
        <time>2023-11-26T15:13:59Z</time>
      </trkpt>
      <trkpt lat="45.986562827602029" lon="9.46144100278616">
        <ele>879.50999999999999</ele>
        <time>2023-11-26T15:14:14Z</time>
      </trkpt>
      <trkpt lat="45.986483367159963" lon="9.461417701095343">
        <ele>877.61000000000001</ele>
        <time>2023-11-26T15:14:28Z</time>
      </trkpt>
      <trkpt lat="45.986417317762971" lon="9.461411330848932">
        <ele>875.47000000000003</ele>
        <time>2023-11-26T15:14:43Z</time>
      </trkpt>
      <trkpt lat="45.986377838999033" lon="9.461328601464629">
        <ele>873.5</ele>
        <time>2023-11-26T15:14:56Z</time>
      </trkpt>
      <trkpt lat="45.98632637411356" lon="9.461274370551109">
        <ele>871.71000000000004</ele>
        <time>2023-11-26T15:15:09Z</time>
      </trkpt>
      <trkpt lat="45.986278345808387" lon="9.461219133809209">
        <ele>869.58000000000004</ele>
        <time>2023-11-26T15:15:24Z</time>
      </trkpt>
      <trkpt lat="45.986218079924583" lon="9.461176386103034">
        <ele>867.23000000000002</ele>
        <time>2023-11-26T15:15:40Z</time>
      </trkpt>
      <trkpt lat="45.98614951595664" lon="9.46110287681222">
        <ele>864.37</ele>
        <time>2023-11-26T15:15:57Z</time>
      </trkpt>
      <trkpt lat="45.986084220930934" lon="9.461061051115394">
        <ele>862.33000000000004</ele>
        <time>2023-11-26T15:16:12Z</time>
      </trkpt>
      <trkpt lat="45.986028481274843" lon="9.461026936769486">
        <ele>860.63</ele>
        <time>2023-11-26T15:16:23Z</time>
      </trkpt>
      <trkpt lat="45.985971400514245" lon="9.461058368906379">
        <ele>859.01999999999998</ele>
        <time>2023-11-26T15:16:36Z</time>
      </trkpt>
      <trkpt lat="45.986026553437114" lon="9.461168088018894">
        <ele>857.47000000000003</ele>
        <time>2023-11-26T15:16:50Z</time>
      </trkpt>
      <trkpt lat="45.985949439927936" lon="9.461343269795179">
        <ele>853.85000000000002</ele>
        <time>2023-11-26T15:18:45Z</time>
      </trkpt>
      <trkpt lat="45.985869057476521" lon="9.461287027224898">
        <ele>852.03999999999996</ele>
        <time>2023-11-26T15:18:56Z</time>
      </trkpt>
      <trkpt lat="45.98577132448554" lon="9.461161633953452">
        <ele>849.97000000000003</ele>
        <time>2023-11-26T15:19:08Z</time>
      </trkpt>
      <trkpt lat="45.985731845721602" lon="9.461077395826578">
        <ele>848.55999999999995</ele>
        <time>2023-11-26T15:19:15Z</time>
      </trkpt>
      <trkpt lat="45.985728492960334" lon="9.461063900962472">
        <ele>848.82000000000005</ele>
        <time>2023-11-26T15:19:16Z</time>
      </trkpt>
      <trkpt lat="45.985722290351987" lon="9.461047975346446">
        <ele>848.62</ele>
        <time>2023-11-26T15:19:17Z</time>
      </trkpt>
      <trkpt lat="45.985716758295894" lon="9.461032301187515">
        <ele>848.32000000000005</ele>
        <time>2023-11-26T15:19:18Z</time>
      </trkpt>
      <trkpt lat="45.985665963962674" lon="9.460926940664649">
        <ele>846.90999999999997</ele>
        <time>2023-11-26T15:19:28Z</time>
      </trkpt>
      <trkpt lat="45.985571164637804" lon="9.460762739181519">
        <ele>845.13999999999999</ele>
        <time>2023-11-26T15:19:42Z</time>
      </trkpt>
      <trkpt lat="45.985429594293237" lon="9.460641033947468">
        <ele>843.34000000000003</ele>
        <time>2023-11-26T15:19:57Z</time>
      </trkpt>
      <trkpt lat="45.985420122742653" lon="9.460632400587201">
        <ele>843.15999999999997</ele>
        <time>2023-11-26T15:19:58Z</time>
      </trkpt>
      <trkpt lat="45.985408890992403" lon="9.460627539083362">
        <ele>843.01999999999998</ele>
        <time>2023-11-26T15:19:59Z</time>
      </trkpt>
      <trkpt lat="45.985398245975375" lon="9.460623431950808">
        <ele>842.88999999999999</ele>
        <time>2023-11-26T15:20:00Z</time>
      </trkpt>
      <trkpt lat="45.985388522967696" lon="9.460617061704397">
        <ele>842.69000000000005</ele>
        <time>2023-11-26T15:20:01Z</time>
      </trkpt>
      <trkpt lat="45.985279809683561" lon="9.460537265986204">
        <ele>841.52999999999997</ele>
        <time>2023-11-26T15:20:13Z</time>
      </trkpt>
      <trkpt lat="45.985109573230147" lon="9.460454452782869">
        <ele>839.20000000000005</ele>
        <time>2023-11-26T15:20:29Z</time>
      </trkpt>
      <trkpt lat="45.985069172456861" lon="9.460436599329114">
        <ele>838.49000000000001</ele>
        <time>2023-11-26T15:20:33Z</time>
      </trkpt>
      <trkpt lat="45.98505936563015" lon="9.46043785661459">
        <ele>838.5</ele>
        <time>2023-11-26T15:20:34Z</time>
      </trkpt>
      <trkpt lat="45.985047044232488" lon="9.460434252396226">
        <ele>838.38</ele>
        <time>2023-11-26T15:20:35Z</time>
      </trkpt>
      <trkpt lat="45.984923914074898" lon="9.460414554923773">
        <ele>837.52999999999997</ele>
        <time>2023-11-26T15:20:47Z</time>
      </trkpt>
      <trkpt lat="45.984844202175736" lon="9.46051362901926">
        <ele>837.34000000000003</ele>
        <time>2023-11-26T15:20:58Z</time>
      </trkpt>
      <trkpt lat="45.98481310531497" lon="9.460680009797216">
        <ele>837.39999999999998</ele>
        <time>2023-11-26T15:21:10Z</time>
      </trkpt>
      <trkpt lat="45.984782679006457" lon="9.460809258744121">
        <ele>837.60000000000002</ele>
        <time>2023-11-26T15:21:21Z</time>
      </trkpt>
      <trkpt lat="45.984687460586429" lon="9.460976980626583">
        <ele>837.48000000000002</ele>
        <time>2023-11-26T15:21:34Z</time>
      </trkpt>
      <trkpt lat="45.984595092013478" lon="9.461160125210881">
        <ele>837.16999999999996</ele>
        <time>2023-11-26T15:21:46Z</time>
      </trkpt>
      <trkpt lat="45.984510518610477" lon="9.461348466575146">
        <ele>837.01999999999998</ele>
        <time>2023-11-26T15:21:57Z</time>
      </trkpt>
      <trkpt lat="45.984439356252551" lon="9.461495820432901">
        <ele>836.82000000000005</ele>
        <time>2023-11-26T15:22:07Z</time>
      </trkpt>
      <trkpt lat="45.984359392896295" lon="9.461583662778139">
        <ele>836.57000000000005</ele>
        <time>2023-11-26T15:22:16Z</time>
      </trkpt>
      <trkpt lat="45.984301557764411" lon="9.461665386334062">
        <ele>836.08000000000004</ele>
        <time>2023-11-26T15:22:23Z</time>
      </trkpt>
      <trkpt lat="45.984207596629858" lon="9.461756749078631">
        <ele>836.08000000000004</ele>
        <time>2023-11-26T15:22:33Z</time>
      </trkpt>
      <trkpt lat="45.984180439263582" lon="9.461767980828881">
        <ele>836.16999999999996</ele>
        <time>2023-11-26T15:22:35Z</time>
      </trkpt>
      <trkpt lat="45.984169794246554" lon="9.46176647208631">
        <ele>836.13</ele>
        <time>2023-11-26T15:22:36Z</time>
      </trkpt>
      <trkpt lat="45.984157137572765" lon="9.461772339418531">
        <ele>836.08000000000004</ele>
        <time>2023-11-26T15:22:37Z</time>
      </trkpt>
      <trkpt lat="45.98399662412703" lon="9.461809135973454">
        <ele>835.61000000000001</ele>
        <time>2023-11-26T15:22:49Z</time>
      </trkpt>
      <trkpt lat="45.983952702954412" lon="9.461812153458595">
        <ele>835.21000000000004</ele>
        <time>2023-11-26T15:22:52Z</time>
      </trkpt>
      <trkpt lat="45.983934598043561" lon="9.461803268641233">
        <ele>835.08000000000004</ele>
        <time>2023-11-26T15:22:53Z</time>
      </trkpt>
      <trkpt lat="45.983730414882302" lon="9.461812488734722">
        <ele>834.36000000000001</ele>
        <time>2023-11-26T15:23:05Z</time>
      </trkpt>
      <trkpt lat="45.983527656644583" lon="9.461856745183468">
        <ele>833.61000000000001</ele>
        <time>2023-11-26T15:23:19Z</time>
      </trkpt>
      <trkpt lat="45.983346020802855" lon="9.461829168722034">
        <ele>832.49000000000001</ele>
        <time>2023-11-26T15:23:30Z</time>
      </trkpt>
      <trkpt lat="45.983129264786839" lon="9.461764292791486">
        <ele>831.10000000000002</ele>
        <time>2023-11-26T15:23:43Z</time>
      </trkpt>
      <trkpt lat="45.982911670580506" lon="9.461715342476964">
        <ele>829.87</ele>
        <time>2023-11-26T15:23:57Z</time>
      </trkpt>
      <trkpt lat="45.982870347797871" lon="9.461716348305345">
        <ele>829.60000000000002</ele>
        <time>2023-11-26T15:24:00Z</time>
      </trkpt>
      <trkpt lat="45.98285417072475" lon="9.461721209809184">
        <ele>829.46000000000004</ele>
        <time>2023-11-26T15:24:01Z</time>
      </trkpt>
      <trkpt lat="45.98283707164228" lon="9.461724981665611">
        <ele>829.24000000000001</ele>
        <time>2023-11-26T15:24:02Z</time>
      </trkpt>
      <trkpt lat="45.982761215418577" lon="9.461729843169451">
        <ele>828.73000000000002</ele>
        <time>2023-11-26T15:24:07Z</time>
      </trkpt>
      <trkpt lat="45.982645880430937" lon="9.46174937300384">
        <ele>828.11000000000001</ele>
        <time>2023-11-26T15:24:15Z</time>
      </trkpt>
      <trkpt lat="45.982632804661989" lon="9.461751049384475">
        <ele>828.13</ele>
        <time>2023-11-26T15:24:16Z</time>
      </trkpt>
      <trkpt lat="45.982619812712073" lon="9.461752977222204">
        <ele>828.02999999999997</ele>
        <time>2023-11-26T15:24:17Z</time>
      </trkpt>
      <trkpt lat="45.982605898752809" lon="9.461755994707346">
        <ele>828.25</ele>
        <time>2023-11-26T15:24:18Z</time>
      </trkpt>
      <trkpt lat="45.98259030841291" lon="9.461761526763439">
        <ele>828.09000000000003</ele>
        <time>2023-11-26T15:24:19Z</time>
      </trkpt>
      <trkpt lat="45.982574298977852" lon="9.461764711886644">
        <ele>828.12</ele>
        <time>2023-11-26T15:24:20Z</time>
      </trkpt>
      <trkpt lat="45.982559127733111" lon="9.461766136810184">
        <ele>827.99000000000001</ele>
        <time>2023-11-26T15:24:21Z</time>
      </trkpt>
      <trkpt lat="45.982545046135783" lon="9.461769657209516">
        <ele>827.91999999999996</ele>
        <time>2023-11-26T15:24:22Z</time>
      </trkpt>
      <trkpt lat="45.982403894886374" lon="9.461793629452586">
        <ele>827.5</ele>
        <time>2023-11-26T15:24:34Z</time>
      </trkpt>
      <trkpt lat="45.982314543798566" lon="9.461820451542735">
        <ele>827.36000000000001</ele>
        <time>2023-11-26T15:24:40Z</time>
      </trkpt>
      <trkpt lat="45.982168866321445" lon="9.461814500391483">
        <ele>827.38999999999999</ele>
        <time>2023-11-26T15:24:51Z</time>
      </trkpt>
      <trkpt lat="45.982084376737475" lon="9.461753396317363">
        <ele>827.35000000000002</ele>
        <time>2023-11-26T15:25:00Z</time>
      </trkpt>
      <trkpt lat="45.982065601274371" lon="9.46172590367496">
        <ele>827.62</ele>
        <time>2023-11-26T15:25:14Z</time>
      </trkpt>
      <trkpt lat="45.982052609324455" lon="9.461719784885645">
        <ele>827.57000000000005</ele>
        <time>2023-11-26T15:25:15Z</time>
      </trkpt>
      <trkpt lat="45.982038779184222" lon="9.461718611419201">
        <ele>827.65999999999997</ele>
        <time>2023-11-26T15:25:16Z</time>
      </trkpt>
      <trkpt lat="45.982031067833304" lon="9.461726071313024">
        <ele>827.62</ele>
        <time>2023-11-26T15:25:17Z</time>
      </trkpt>
      <trkpt lat="45.982024194672704" lon="9.461728502064943">
        <ele>827.57000000000005</ele>
        <time>2023-11-26T15:25:18Z</time>
      </trkpt>
      <trkpt lat="45.981909697875381" lon="9.46163160726428">
        <ele>827.48000000000002</ele>
        <time>2023-11-26T15:25:30Z</time>
      </trkpt>
      <trkpt lat="45.981876840814948" lon="9.461611490696669">
        <ele>827.5</ele>
        <time>2023-11-26T15:25:33Z</time>
      </trkpt>
      <trkpt lat="45.981866614893079" lon="9.46160864084959">
        <ele>827.54999999999995</ele>
        <time>2023-11-26T15:25:34Z</time>
      </trkpt>
      <trkpt lat="45.981856053695083" lon="9.461601432412863">
        <ele>827.5</ele>
        <time>2023-11-26T15:25:35Z</time>
      </trkpt>
      <trkpt lat="45.981845827773213" lon="9.46158810518682">
        <ele>827.5</ele>
        <time>2023-11-26T15:25:36Z</time>
      </trkpt>
      <trkpt lat="45.981836440041661" lon="9.461576119065285">
        <ele>827.59000000000003</ele>
        <time>2023-11-26T15:25:37Z</time>
      </trkpt>
      <trkpt lat="45.981740551069379" lon="9.461479475721717">
        <ele>827.26999999999998</ele>
        <time>2023-11-26T15:25:47Z</time>
      </trkpt>
      <trkpt lat="45.981629909947515" lon="9.461322650313377">
        <ele>827.13999999999999</ele>
        <time>2023-11-26T15:25:59Z</time>
      </trkpt>
      <trkpt lat="45.981504432857037" lon="9.461181750521064">
        <ele>826.25999999999999</ele>
        <time>2023-11-26T15:26:12Z</time>
      </trkpt>
      <trkpt lat="45.981488507241011" lon="9.46116104722023">
        <ele>826.26999999999998</ele>
        <time>2023-11-26T15:26:14Z</time>
      </trkpt>
      <trkpt lat="45.981476353481412" lon="9.461147971451283">
        <ele>826.27999999999997</ele>
        <time>2023-11-26T15:26:15Z</time>
      </trkpt>
      <trkpt lat="45.981467049568892" lon="9.461137494072318">
        <ele>826.26999999999998</ele>
        <time>2023-11-26T15:26:16Z</time>
      </trkpt>
      <trkpt lat="45.98145816475153" lon="9.461126765236259">
        <ele>826.26999999999998</ele>
        <time>2023-11-26T15:26:17Z</time>
      </trkpt>
      <trkpt lat="45.981448106467724" lon="9.461117461323738">
        <ele>826.27999999999997</ele>
        <time>2023-11-26T15:26:18Z</time>
      </trkpt>
      <trkpt lat="45.98143519833684" lon="9.461107319220901">
        <ele>826.28999999999996</ele>
        <time>2023-11-26T15:26:19Z</time>
      </trkpt>
      <trkpt lat="45.981333274394274" lon="9.460996929556131">
        <ele>825.25</ele>
        <time>2023-11-26T15:26:30Z</time>
      </trkpt>
      <trkpt lat="45.981296896934509" lon="9.460924342274666">
        <ele>824.76999999999998</ele>
        <time>2023-11-26T15:26:36Z</time>
      </trkpt>
      <trkpt lat="45.981256160885096" lon="9.460875978693366">
        <ele>824.28999999999996</ele>
        <time>2023-11-26T15:26:41Z</time>
      </trkpt>
      <trkpt lat="45.981237720698118" lon="9.460862064734101">
        <ele>824.20000000000005</ele>
        <time>2023-11-26T15:26:42Z</time>
      </trkpt>
      <trkpt lat="45.981222046539187" lon="9.460846893489361">
        <ele>823.92999999999995</ele>
        <time>2023-11-26T15:26:43Z</time>
      </trkpt>
      <trkpt lat="45.981184663251042" lon="9.460791908204556">
        <ele>823.76999999999998</ele>
        <time>2023-11-26T15:26:46Z</time>
      </trkpt>
      <trkpt lat="45.981178712099791" lon="9.4607706181705">
        <ele>823.63</ele>
        <time>2023-11-26T15:26:47Z</time>
      </trkpt>
      <trkpt lat="45.981167899444699" lon="9.460751339793205">
        <ele>823.62</ele>
        <time>2023-11-26T15:26:48Z</time>
      </trkpt>
      <trkpt lat="45.981156919151545" lon="9.460732815787196">
        <ele>823.63999999999999</ele>
        <time>2023-11-26T15:26:49Z</time>
      </trkpt>
      <trkpt lat="45.981149123981595" lon="9.460713537409902">
        <ele>823.55999999999995</ele>
        <time>2023-11-26T15:26:50Z</time>
      </trkpt>
      <trkpt lat="45.981138898059726" lon="9.460697947070003">
        <ele>823.5</ele>
        <time>2023-11-26T15:26:51Z</time>
      </trkpt>
      <trkpt lat="45.981130180880427" lon="9.460680764168501">
        <ele>823.23000000000002</ele>
        <time>2023-11-26T15:26:52Z</time>
      </trkpt>
      <trkpt lat="45.981123056262732" lon="9.460662407800555">
        <ele>823.19000000000005</ele>
        <time>2023-11-26T15:26:53Z</time>
      </trkpt>
      <trkpt lat="45.981062622740865" lon="9.460520502179861">
        <ele>822.47000000000003</ele>
        <time>2023-11-26T15:27:02Z</time>
      </trkpt>
      <trkpt lat="45.981055917218328" lon="9.460505750030279">
        <ele>822.38999999999999</ele>
        <time>2023-11-26T15:27:03Z</time>
      </trkpt>
      <trkpt lat="45.981048373505473" lon="9.460490914061666">
        <ele>822.27999999999997</ele>
        <time>2023-11-26T15:27:04Z</time>
      </trkpt>
      <trkpt lat="45.980950137600303" lon="9.460335429757834">
        <ele>821.32000000000005</ele>
        <time>2023-11-26T15:27:16Z</time>
      </trkpt>
      <trkpt lat="45.980873946100473" lon="9.460260663181543">
        <ele>820.52999999999997</ele>
        <time>2023-11-26T15:27:24Z</time>
      </trkpt>
      <trkpt lat="45.98084787838161" lon="9.460251946002245">
        <ele>819.90999999999997</ele>
        <time>2023-11-26T15:27:26Z</time>
      </trkpt>
      <trkpt lat="45.980834634974599" lon="9.460252029821277">
        <ele>820.20000000000005</ele>
        <time>2023-11-26T15:27:27Z</time>
      </trkpt>
      <trkpt lat="45.980822229757905" lon="9.460248174145818">
        <ele>820.19000000000005</ele>
        <time>2023-11-26T15:27:28Z</time>
      </trkpt>
      <trkpt lat="45.980811333283782" lon="9.460245994850993">
        <ele>820.17999999999995</ele>
        <time>2023-11-26T15:27:29Z</time>
      </trkpt>
      <trkpt lat="45.98079901188612" lon="9.460245408117771">
        <ele>820.16999999999996</ele>
        <time>2023-11-26T15:27:30Z</time>
      </trkpt>
      <trkpt lat="45.980644030496478" lon="9.46023459546268">
        <ele>818.09000000000003</ele>
        <time>2023-11-26T15:27:42Z</time>
      </trkpt>
      <trkpt lat="45.980593822896481" lon="9.460248509421945">
        <ele>818.39999999999998</ele>
        <time>2023-11-26T15:27:46Z</time>
      </trkpt>
      <trkpt lat="45.980580495670438" lon="9.460239037871361">
        <ele>817.97000000000003</ele>
        <time>2023-11-26T15:27:47Z</time>
      </trkpt>
      <trkpt lat="45.980457784608006" lon="9.460124289616942">
        <ele>816.29999999999995</ele>
        <time>2023-11-26T15:27:58Z</time>
      </trkpt>
      <trkpt lat="45.980353681370616" lon="9.460030412301421">
        <ele>814.70000000000005</ele>
        <time>2023-11-26T15:28:08Z</time>
      </trkpt>
      <trkpt lat="45.9802370890975" lon="9.459946090355516">
        <ele>813.54999999999995</ele>
        <time>2023-11-26T15:28:18Z</time>
      </trkpt>
      <trkpt lat="45.980201466009021" lon="9.45991650223732">
        <ele>813.19000000000005</ele>
        <time>2023-11-26T15:28:21Z</time>
      </trkpt>
      <trkpt lat="45.980090573430061" lon="9.459765711799264">
        <ele>811.86000000000001</ele>
        <time>2023-11-26T15:28:32Z</time>
      </trkpt>
      <trkpt lat="45.980058303102851" lon="9.459699410945177">
        <ele>811.25</ele>
        <time>2023-11-26T15:28:36Z</time>
      </trkpt>
      <trkpt lat="45.98000449128449" lon="9.459552560001612">
        <ele>809.67999999999995</ele>
        <time>2023-11-26T15:28:46Z</time>
      </trkpt>
      <trkpt lat="45.97995319403708" lon="9.459393722936511">
        <ele>808.30999999999995</ele>
        <time>2023-11-26T15:28:55Z</time>
      </trkpt>
      <trkpt lat="45.979938358068466" lon="9.459354411810637">
        <ele>808.07000000000005</ele>
        <time>2023-11-26T15:28:57Z</time>
      </trkpt>
      <trkpt lat="45.979841966181993" lon="9.459187192842364">
        <ele>806.77999999999997</ele>
        <time>2023-11-26T15:29:06Z</time>
      </trkpt>
      <trkpt lat="45.979819837957621" lon="9.459105134010315">
        <ele>806.13</ele>
        <time>2023-11-26T15:29:10Z</time>
      </trkpt>
      <trkpt lat="45.979810450226068" lon="9.459047634154558">
        <ele>805.60000000000002</ele>
        <time>2023-11-26T15:29:13Z</time>
      </trkpt>
      <trkpt lat="45.979772564023733" lon="9.45897001773119">
        <ele>804.79999999999995</ele>
        <time>2023-11-26T15:29:17Z</time>
      </trkpt>
      <trkpt lat="45.979769630357623" lon="9.458931460976601">
        <ele>804.67999999999995</ele>
        <time>2023-11-26T15:29:19Z</time>
      </trkpt>
      <trkpt lat="45.979723697528243" lon="9.458710681647062">
        <ele>803.32000000000005</ele>
        <time>2023-11-26T15:29:30Z</time>
      </trkpt>
      <trkpt lat="45.979714812710881" lon="9.458691738545895">
        <ele>803.25</ele>
        <time>2023-11-26T15:29:31Z</time>
      </trkpt>
      <trkpt lat="45.979691427201033" lon="9.458605656400323">
        <ele>802.69000000000005</ele>
        <time>2023-11-26T15:29:36Z</time>
      </trkpt>
      <trkpt lat="45.979649852961302" lon="9.45850390009582">
        <ele>801.98000000000002</ele>
        <time>2023-11-26T15:29:44Z</time>
      </trkpt>
      <trkpt lat="45.979644069448113" lon="9.458455955609679">
        <ele>801.87</ele>
        <time>2023-11-26T15:29:47Z</time>
      </trkpt>
      <trkpt lat="45.979601070284843" lon="9.458399545401335">
        <ele>801.53999999999996</ele>
        <time>2023-11-26T15:29:51Z</time>
      </trkpt>
      <trkpt lat="45.979584557935596" lon="9.458343638107181">
        <ele>801.26999999999998</ele>
        <time>2023-11-26T15:29:54Z</time>
      </trkpt>
      <trkpt lat="45.979471821337938" lon="9.45818429812789">
        <ele>800.14999999999998</ele>
        <time>2023-11-26T15:30:06Z</time>
      </trkpt>
      <trkpt lat="45.979385823011398" lon="9.458039542660117">
        <ele>798.79999999999995</ele>
        <time>2023-11-26T15:30:19Z</time>
      </trkpt>
      <trkpt lat="45.979287000373006" lon="9.457936445251107">
        <ele>797.23000000000002</ele>
        <time>2023-11-26T15:30:30Z</time>
      </trkpt>
      <trkpt lat="45.97919438034296" lon="9.457818511873484">
        <ele>795.54999999999995</ele>
        <time>2023-11-26T15:30:40Z</time>
      </trkpt>
      <trkpt lat="45.979193123057485" lon="9.457800155505538">
        <ele>795.19000000000005</ele>
        <time>2023-11-26T15:30:41Z</time>
      </trkpt>
      <trkpt lat="45.979181723669171" lon="9.457706697285175">
        <ele>793.58000000000004</ele>
        <time>2023-11-26T15:30:46Z</time>
      </trkpt>
      <trkpt lat="45.97915724851191" lon="9.457605946809053">
        <ele>792.27999999999997</ele>
        <time>2023-11-26T15:30:52Z</time>
      </trkpt>
      <trkpt lat="45.979114333167672" lon="9.45752514526248">
        <ele>790.64999999999998</ele>
        <time>2023-11-26T15:30:57Z</time>
      </trkpt>
      <trkpt lat="45.979080218821764" lon="9.457436380907893">
        <ele>789.26999999999998</ele>
        <time>2023-11-26T15:31:03Z</time>
      </trkpt>
      <trkpt lat="45.978972008451819" lon="9.45732825435698">
        <ele>786.10000000000002</ele>
        <time>2023-11-26T15:31:15Z</time>
      </trkpt>
      <trkpt lat="45.978860948234797" lon="9.457323392853141">
        <ele>783.94000000000005</ele>
        <time>2023-11-26T15:31:25Z</time>
      </trkpt>
      <trkpt lat="45.97872725687921" lon="9.457291876897216">
        <ele>781.13</ele>
        <time>2023-11-26T15:31:37Z</time>
      </trkpt>
      <trkpt lat="45.978617956861854" lon="9.457235131412745">
        <ele>778.63999999999999</ele>
        <time>2023-11-26T15:31:47Z</time>
      </trkpt>
      <trkpt lat="45.978465573862195" lon="9.457100769504905">
        <ele>776.71000000000004</ele>
        <time>2023-11-26T15:32:00Z</time>
      </trkpt>
      <trkpt lat="45.978443026542664" lon="9.45706975646317">
        <ele>775.88999999999999</ele>
        <time>2023-11-26T15:32:05Z</time>
      </trkpt>
      <trkpt lat="45.978371193632483" lon="9.457050729542971">
        <ele>775.87</ele>
        <time>2023-11-26T15:32:16Z</time>
      </trkpt>
      <trkpt lat="45.978249572217464" lon="9.457059195265174">
        <ele>773.35000000000002</ele>
        <time>2023-11-26T15:32:27Z</time>
      </trkpt>
      <trkpt lat="45.978229707106948" lon="9.457095321267843">
        <ele>772.72000000000003</ele>
        <time>2023-11-26T15:32:30Z</time>
      </trkpt>
      <trkpt lat="45.978172877803445" lon="9.45716061629355">
        <ele>771.42999999999995</ele>
        <time>2023-11-26T15:32:45Z</time>
      </trkpt>
      <trkpt lat="45.978076234459877" lon="9.457298163324595">
        <ele>768.83000000000004</ele>
        <time>2023-11-26T15:32:56Z</time>
      </trkpt>
      <trkpt lat="45.978059554472566" lon="9.457401931285858">
        <ele>767.48000000000002</ele>
        <time>2023-11-26T15:33:03Z</time>
      </trkpt>
      <trkpt lat="45.97799819894135" lon="9.457614496350288">
        <ele>764.21000000000004</ele>
        <time>2023-11-26T15:33:18Z</time>
      </trkpt>
      <trkpt lat="45.977910943329334" lon="9.457915239036083">
        <ele>761.5</ele>
        <time>2023-11-26T15:33:34Z</time>
      </trkpt>
      <trkpt lat="45.97785696387291" lon="9.45803334005177">
        <ele>760.32000000000005</ele>
        <time>2023-11-26T15:33:41Z</time>
      </trkpt>
      <trkpt lat="45.977677255868912" lon="9.458256801590323">
        <ele>757.40999999999997</ele>
        <time>2023-11-26T15:33:58Z</time>
      </trkpt>
      <trkpt lat="45.97751691006124" lon="9.458236517384648">
        <ele>755.33000000000004</ele>
        <time>2023-11-26T15:34:10Z</time>
      </trkpt>
      <trkpt lat="45.977384224534035" lon="9.458109196275473">
        <ele>753.63</ele>
        <time>2023-11-26T15:34:20Z</time>
      </trkpt>
      <trkpt lat="45.977378524839878" lon="9.458041302859783">
        <ele>752.97000000000003</ele>
        <time>2023-11-26T15:34:24Z</time>
      </trkpt>
      <trkpt lat="45.977353462949395" lon="9.457952538505197">
        <ele>751.90999999999997</ele>
        <time>2023-11-26T15:34:30Z</time>
      </trkpt>
      <trkpt lat="45.977333346381783" lon="9.457918256521225">
        <ele>751.62</ele>
        <time>2023-11-26T15:34:32Z</time>
      </trkpt>
      <trkpt lat="45.977325551211834" lon="9.457818428054452">
        <ele>750.32000000000005</ele>
        <time>2023-11-26T15:34:39Z</time>
      </trkpt>
      <trkpt lat="45.977287832647562" lon="9.457746595144272">
        <ele>749.48000000000002</ele>
        <time>2023-11-26T15:34:44Z</time>
      </trkpt>
      <trkpt lat="45.977283641695976" lon="9.457712899893522">
        <ele>749.19000000000005</ele>
        <time>2023-11-26T15:34:46Z</time>
      </trkpt>
      <trkpt lat="45.97726671025157" lon="9.45762287825346">
        <ele>748.12</ele>
        <time>2023-11-26T15:34:51Z</time>
      </trkpt>
      <trkpt lat="45.977255813777447" lon="9.457592871040106">
        <ele>747.57000000000005</ele>
        <time>2023-11-26T15:34:53Z</time>
      </trkpt>
      <trkpt lat="45.977206947281957" lon="9.457519110292196">
        <ele>747.03999999999996</ele>
        <time>2023-11-26T15:34:58Z</time>
      </trkpt>
      <trkpt lat="45.977141233161092" lon="9.457354238256812">
        <ele>744.30999999999995</ele>
        <time>2023-11-26T15:35:10Z</time>
      </trkpt>
      <trkpt lat="45.977087421342731" lon="9.457222390919924">
        <ele>742.02999999999997</ele>
        <time>2023-11-26T15:35:19Z</time>
      </trkpt>
      <trkpt lat="45.977023970335722" lon="9.457061542198062">
        <ele>740.32000000000005</ele>
        <time>2023-11-26T15:35:29Z</time>
      </trkpt>
      <trkpt lat="45.976917101070285" lon="9.45687722414732">
        <ele>737.50999999999999</ele>
        <time>2023-11-26T15:35:42Z</time>
      </trkpt>
      <trkpt lat="45.976867731660604" lon="9.45681762881577">
        <ele>736.65999999999997</ele>
        <time>2023-11-26T15:35:46Z</time>
      </trkpt>
      <trkpt lat="45.976827582344413" lon="9.456767588853836">
        <ele>735.75999999999999</ele>
        <time>2023-11-26T15:35:50Z</time>
      </trkpt>
      <trkpt lat="45.976703027263284" lon="9.456658037379384">
        <ele>732.94000000000005</ele>
        <time>2023-11-26T15:36:03Z</time>
      </trkpt>
      <trkpt lat="45.976667236536741" lon="9.456642866134644">
        <ele>732.27999999999997</ele>
        <time>2023-11-26T15:36:06Z</time>
      </trkpt>
      <trkpt lat="45.976611664518714" lon="9.456573966890574">
        <ele>731.04999999999995</ele>
        <time>2023-11-26T15:36:13Z</time>
      </trkpt>
      <trkpt lat="45.976524660363793" lon="9.456382188946009">
        <ele>728.60000000000002</ele>
        <time>2023-11-26T15:36:25Z</time>
      </trkpt>
      <trkpt lat="45.976506052538753" lon="9.456293843686581">
        <ele>727.09000000000003</ele>
        <time>2023-11-26T15:36:38Z</time>
      </trkpt>
      <trkpt lat="45.976488618180156" lon="9.456301471218467">
        <ele>727</ele>
        <time>2023-11-26T15:36:55Z</time>
      </trkpt>
      <trkpt lat="45.97645316272974" lon="9.456267273053527">
        <ele>726.75999999999999</ele>
        <time>2023-11-26T15:37:15Z</time>
      </trkpt>
      <trkpt lat="45.976442517712712" lon="9.456267105415463">
        <ele>727.17999999999995</ele>
        <time>2023-11-26T15:37:18Z</time>
      </trkpt>
      <trkpt lat="45.976365320384502" lon="9.456320498138666">
        <ele>725.94000000000005</ele>
        <time>2023-11-26T15:37:33Z</time>
      </trkpt>
      <trkpt lat="45.97632709890604" lon="9.456339357420802">
        <ele>727.42999999999995</ele>
        <time>2023-11-26T15:39:30Z</time>
      </trkpt>
      <trkpt lat="45.976279741153121" lon="9.456350337713957">
        <ele>727.69000000000005</ele>
        <time>2023-11-26T15:39:55Z</time>
      </trkpt>
      <trkpt lat="45.976278819143772" lon="9.456347320228815">
        <ele>728.53999999999996</ele>
        <time>2023-11-26T15:40:11Z</time>
      </trkpt>
      <trkpt lat="45.976279824972153" lon="9.456352181732655">
        <ele>727.90999999999997</ele>
        <time>2023-11-26T15:40:13Z</time>
      </trkpt>
      <trkpt lat="45.976253673434258" lon="9.456369280815125">
        <ele>727.90999999999997</ele>
        <time>2023-11-26T15:40:34Z</time>
      </trkpt>
      <trkpt lat="45.976228108629584" lon="9.456386966630817">
        <ele>728.04999999999995</ele>
        <time>2023-11-26T15:40:56Z</time>
      </trkpt>
      <trkpt lat="45.976188462227583" lon="9.456390738487244">
        <ele>727.64999999999998</ele>
        <time>2023-11-26T15:40:59Z</time>
      </trkpt>
      <trkpt lat="45.976054100319743" lon="9.456394677981734">
        <ele>724.87</ele>
        <time>2023-11-26T15:41:12Z</time>
      </trkpt>
      <trkpt lat="45.975927449762821" lon="9.456438012421131">
        <ele>722.60000000000002</ele>
        <time>2023-11-26T15:41:23Z</time>
      </trkpt>
      <trkpt lat="45.975849414244294" lon="9.456550246104598">
        <ele>720.38999999999999</ele>
        <time>2023-11-26T15:41:33Z</time>
      </trkpt>
      <trkpt lat="45.975800966843963" lon="9.45664269849658">
        <ele>718.57000000000005</ele>
        <time>2023-11-26T15:41:40Z</time>
      </trkpt>
      <trkpt lat="45.97566400654614" lon="9.45673112757504">
        <ele>716.13999999999999</ele>
        <time>2023-11-26T15:41:52Z</time>
      </trkpt>
      <trkpt lat="45.975492680445313" lon="9.456756608560681">
        <ele>713.96000000000004</ele>
        <time>2023-11-26T15:42:04Z</time>
      </trkpt>
      <trkpt lat="45.975334011018276" lon="9.456754345446825">
        <ele>712.39999999999998</ele>
        <time>2023-11-26T15:42:15Z</time>
      </trkpt>
      <trkpt lat="45.975239714607596" lon="9.456761637702584">
        <ele>711.92999999999995</ele>
        <time>2023-11-26T15:42:26Z</time>
      </trkpt>
      <trkpt lat="45.975236529484391" lon="9.456788627430797">
        <ele>711.83000000000004</ele>
        <time>2023-11-26T15:42:38Z</time>
      </trkpt>
      <trkpt lat="45.975229823961854" lon="9.456792566925287">
        <ele>711.57000000000005</ele>
        <time>2023-11-26T15:42:39Z</time>
      </trkpt>
      <trkpt lat="45.975138209760189" lon="9.456855515018106">
        <ele>709.99000000000001</ele>
        <time>2023-11-26T15:42:49Z</time>
      </trkpt>
      <trkpt lat="45.975049613043666" lon="9.456941764801741">
        <ele>708.19000000000005</ele>
        <time>2023-11-26T15:42:58Z</time>
      </trkpt>
      <trkpt lat="45.975014744326472" lon="9.45707562379539">
        <ele>705.65999999999997</ele>
        <time>2023-11-26T15:43:10Z</time>
      </trkpt>
      <trkpt lat="45.974991274997592" lon="9.457104625180364">
        <ele>703.99000000000001</ele>
        <time>2023-11-26T15:43:15Z</time>
      </trkpt>
      <trkpt lat="45.974927991628647" lon="9.457140080630779">
        <ele>703.00999999999999</ele>
        <time>2023-11-26T15:43:22Z</time>
      </trkpt>
      <trkpt lat="45.97488708794117" lon="9.457141421735287">
        <ele>701.41999999999996</ele>
        <time>2023-11-26T15:43:25Z</time>
      </trkpt>
      <trkpt lat="45.974860265851021" lon="9.457127004861832">
        <ele>701.00999999999999</ele>
        <time>2023-11-26T15:43:28Z</time>
      </trkpt>
      <trkpt lat="45.974705535918474" lon="9.456978728994727">
        <ele>699.32000000000005</ele>
        <time>2023-11-26T15:43:40Z</time>
      </trkpt>
      <trkpt lat="45.974542172625661" lon="9.456863477826119">
        <ele>697.30999999999995</ele>
        <time>2023-11-26T15:43:53Z</time>
      </trkpt>
      <trkpt lat="45.97440923564136" lon="9.45683129131794">
        <ele>694.69000000000005</ele>
        <time>2023-11-26T15:44:05Z</time>
      </trkpt>
      <trkpt lat="45.974305551499128" lon="9.456822909414768">
        <ele>691.65999999999997</ele>
        <time>2023-11-26T15:44:16Z</time>
      </trkpt>
      <trkpt lat="45.9741913061589" lon="9.456821233034134">
        <ele>688.13999999999999</ele>
        <time>2023-11-26T15:44:28Z</time>
      </trkpt>
      <trkpt lat="45.974092651158571" lon="9.456825759261847">
        <ele>685.63</ele>
        <time>2023-11-26T15:44:39Z</time>
      </trkpt>
      <trkpt lat="45.973999192938209" lon="9.456847468391061">
        <ele>682.41999999999996</ele>
        <time>2023-11-26T15:44:49Z</time>
      </trkpt>
      <trkpt lat="45.973942615091801" lon="9.456844115629792">
        <ele>680.64999999999998</ele>
        <time>2023-11-26T15:44:57Z</time>
      </trkpt>
      <trkpt lat="45.973917469382286" lon="9.456822071224451">
        <ele>679.77999999999997</ele>
        <time>2023-11-26T15:45:00Z</time>
      </trkpt>
      <trkpt lat="45.973827531561255" lon="9.456768091768026">
        <ele>676.40999999999997</ele>
        <time>2023-11-26T15:45:11Z</time>
      </trkpt>
      <trkpt lat="45.973765254020691" lon="9.456728864461184">
        <ele>673.03999999999996</ele>
        <time>2023-11-26T15:45:20Z</time>
      </trkpt>
      <trkpt lat="45.973732229322195" lon="9.456700868904591">
        <ele>672.20000000000005</ele>
        <time>2023-11-26T15:45:25Z</time>
      </trkpt>
      <trkpt lat="45.973593844100833" lon="9.456611601635814">
        <ele>668.95000000000005</ele>
        <time>2023-11-26T15:45:35Z</time>
      </trkpt>
      <trkpt lat="45.973469205200672" lon="9.456541109830141">
        <ele>665.55999999999995</ele>
        <time>2023-11-26T15:45:46Z</time>
      </trkpt>
      <trkpt lat="45.973390750586987" lon="9.456496685743332">
        <ele>662.34000000000003</ele>
        <time>2023-11-26T15:45:56Z</time>
      </trkpt>
      <trkpt lat="45.973271559923887" lon="9.456430887803435">
        <ele>658.98000000000002</ele>
        <time>2023-11-26T15:46:09Z</time>
      </trkpt>
      <trkpt lat="45.973183466121554" lon="9.45639057084918">
        <ele>657.28999999999996</ele>
        <time>2023-11-26T15:46:21Z</time>
      </trkpt>
      <trkpt lat="45.973162679001689" lon="9.456389145925641">
        <ele>655.42999999999995</ele>
        <time>2023-11-26T15:46:24Z</time>
      </trkpt>
      <trkpt lat="45.973077099770308" lon="9.456398282200098">
        <ele>652.37</ele>
        <time>2023-11-26T15:46:37Z</time>
      </trkpt>
      <trkpt lat="45.972984228283167" lon="9.456425607204437">
        <ele>649.84000000000003</ele>
        <time>2023-11-26T15:46:51Z</time>
      </trkpt>
      <trkpt lat="45.972787924110889" lon="9.456466594710946">
        <ele>648.36000000000001</ele>
        <time>2023-11-26T15:47:08Z</time>
      </trkpt>
      <trkpt lat="45.972766801714897" lon="9.456462822854519">
        <ele>646.78999999999996</ele>
        <time>2023-11-26T15:47:10Z</time>
      </trkpt>
      <trkpt lat="45.972698153927922" lon="9.456459218636155">
        <ele>645.08000000000004</ele>
        <time>2023-11-26T15:47:17Z</time>
      </trkpt>
      <trkpt lat="45.972591368481517" lon="9.456475395709276">
        <ele>641.75999999999999</ele>
        <time>2023-11-26T15:47:30Z</time>
      </trkpt>
      <trkpt lat="45.972376372665167" lon="9.456537421792746">
        <ele>638.72000000000003</ele>
        <time>2023-11-26T15:47:43Z</time>
      </trkpt>
      <trkpt lat="45.972223905846477" lon="9.456551419571042">
        <ele>635.71000000000004</ele>
        <time>2023-11-26T15:47:55Z</time>
      </trkpt>
      <trkpt lat="45.972071522846818" lon="9.456511018797755">
        <ele>632.47000000000003</ele>
        <time>2023-11-26T15:48:09Z</time>
      </trkpt>
      <trkpt lat="45.972039587795734" lon="9.456489309668541">
        <ele>631.53999999999996</ele>
        <time>2023-11-26T15:48:14Z</time>
      </trkpt>
      <trkpt lat="45.971973622217774" lon="9.456446561962366">
        <ele>630.44000000000005</ele>
        <time>2023-11-26T15:48:19Z</time>
      </trkpt>
      <trkpt lat="45.971982842311263" lon="9.456404149532318">
        <ele>629.67999999999995</ele>
        <time>2023-11-26T15:48:22Z</time>
      </trkpt>
      <trkpt lat="45.972011256963015" lon="9.456377411261201">
        <ele>628.16999999999996</ele>
        <time>2023-11-26T15:48:26Z</time>
      </trkpt>
      <trkpt lat="45.972117790952325" lon="9.456224776804447">
        <ele>624.83000000000004</ele>
        <time>2023-11-26T15:48:40Z</time>
      </trkpt>
      <trkpt lat="45.972197335213423" lon="9.456114051863551">
        <ele>622.14999999999998</ele>
        <time>2023-11-26T15:48:52Z</time>
      </trkpt>
      <trkpt lat="45.972207142040133" lon="9.456107094883919">
        <ele>621.82000000000005</ele>
        <time>2023-11-26T15:48:53Z</time>
      </trkpt>
      <trkpt lat="45.972308311611414" lon="9.456010954454541">
        <ele>618.21000000000004</ele>
        <time>2023-11-26T15:49:06Z</time>
      </trkpt>
      <trkpt lat="45.972338235005736" lon="9.455977929756045">
        <ele>617.30999999999995</ele>
        <time>2023-11-26T15:49:10Z</time>
      </trkpt>
      <trkpt lat="45.972404535859823" lon="9.455899810418487">
        <ele>615.30999999999995</ele>
        <time>2023-11-26T15:49:19Z</time>
      </trkpt>
      <trkpt lat="45.972488187253475" lon="9.455812973901629">
        <ele>613.01999999999998</ele>
        <time>2023-11-26T15:49:30Z</time>
      </trkpt>
      <trkpt lat="45.972395734861493" lon="9.455817919224501">
        <ele>610.09000000000003</ele>
        <time>2023-11-26T15:49:43Z</time>
      </trkpt>
      <trkpt lat="45.97238534130156" lon="9.455829150974751">
        <ele>609.38</ele>
        <time>2023-11-26T15:49:45Z</time>
      </trkpt>
      <trkpt lat="45.97227293998003" lon="9.455797467380762">
        <ele>606.17999999999995</ele>
        <time>2023-11-26T15:49:57Z</time>
      </trkpt>
      <trkpt lat="45.972171602770686" lon="9.455799562856555">
        <ele>603.75999999999999</ele>
        <time>2023-11-26T15:50:08Z</time>
      </trkpt>
      <trkpt lat="45.972074037417769" lon="9.455792186781764">
        <ele>600.98000000000002</ele>
        <time>2023-11-26T15:50:17Z</time>
      </trkpt>
      <trkpt lat="45.971952080726624" lon="9.455758575350046">
        <ele>597.40999999999997</ele>
        <time>2023-11-26T15:50:30Z</time>
      </trkpt>
      <trkpt lat="45.971934059634805" lon="9.455755306407809">
        <ele>596.90999999999997</ele>
        <time>2023-11-26T15:50:32Z</time>
      </trkpt>
      <trkpt lat="45.971880750730634" lon="9.455693447962403">
        <ele>594.87</ele>
        <time>2023-11-26T15:50:39Z</time>
      </trkpt>
      <trkpt lat="45.971892820671201" lon="9.455657238140702">
        <ele>593.91999999999996</ele>
        <time>2023-11-26T15:50:43Z</time>
      </trkpt>
      <trkpt lat="45.971886115148664" lon="9.455568809062243">
        <ele>592.74000000000001</ele>
        <time>2023-11-26T15:50:48Z</time>
      </trkpt>
      <trkpt lat="45.971835572272539" lon="9.455539304763079">
        <ele>590.75999999999999</ele>
        <time>2023-11-26T15:50:54Z</time>
      </trkpt>
      <trkpt lat="45.97177061252296" lon="9.455513656139374">
        <ele>589.21000000000004</ele>
        <time>2023-11-26T15:51:02Z</time>
      </trkpt>
      <trkpt lat="45.971724512055516" lon="9.455449618399143">
        <ele>588.27999999999997</ele>
        <time>2023-11-26T15:51:08Z</time>
      </trkpt>
      <trkpt lat="45.971704563125968" lon="9.455389017239213">
        <ele>586.87</ele>
        <time>2023-11-26T15:51:12Z</time>
      </trkpt>
      <trkpt lat="45.971611440181732" lon="9.455172680318356">
        <ele>584.63999999999999</ele>
        <time>2023-11-26T15:51:24Z</time>
      </trkpt>
      <trkpt lat="45.971605991944671" lon="9.454941507428885">
        <ele>581.65999999999997</ele>
        <time>2023-11-26T15:51:37Z</time>
      </trkpt>
      <trkpt lat="45.971598699688911" lon="9.45484109222889">
        <ele>580.98000000000002</ele>
        <time>2023-11-26T15:51:42Z</time>
      </trkpt>
      <trkpt lat="45.971579672768712" lon="9.454698516055942">
        <ele>579.48000000000002</ele>
        <time>2023-11-26T15:51:52Z</time>
      </trkpt>
      <trkpt lat="45.971507588401437" lon="9.454689379781485">
        <ele>577.87</ele>
        <time>2023-11-26T15:52:02Z</time>
      </trkpt>
      <trkpt lat="45.971305668354034" lon="9.454743610695005">
        <ele>577.01999999999998</ele>
        <time>2023-11-26T15:52:13Z</time>
      </trkpt>
      <trkpt lat="45.971226710826159" lon="9.454775545746088">
        <ele>575.20000000000005</ele>
        <time>2023-11-26T15:52:18Z</time>
      </trkpt>
      <trkpt lat="45.9711520280689" lon="9.454766744747758">
        <ele>574.13999999999999</ele>
        <time>2023-11-26T15:52:23Z</time>
      </trkpt>
      <trkpt lat="45.971010373905301" lon="9.454593239352107">
        <ele>572.25</ele>
        <time>2023-11-26T15:52:38Z</time>
      </trkpt>
      <trkpt lat="45.971001824364066" lon="9.454344883561134">
        <ele>570.09000000000003</ele>
        <time>2023-11-26T15:52:52Z</time>
      </trkpt>
      <trkpt lat="45.971016995608807" lon="9.454202810302377">
        <ele>569.95000000000005</ele>
        <time>2023-11-26T15:52:59Z</time>
      </trkpt>
      <trkpt lat="45.971002411097288" lon="9.454011535272002">
        <ele>569.46000000000004</ele>
        <time>2023-11-26T15:53:10Z</time>
      </trkpt>
      <trkpt lat="45.970973409712315" lon="9.453872563317418">
        <ele>568.75</ele>
        <time>2023-11-26T15:53:17Z</time>
      </trkpt>
      <trkpt lat="45.970942564308643" lon="9.453748175874353">
        <ele>568</ele>
        <time>2023-11-26T15:53:24Z</time>
      </trkpt>
      <trkpt lat="45.970943151041865" lon="9.453725880011916">
        <ele>567.85000000000002</ele>
        <time>2023-11-26T15:53:25Z</time>
      </trkpt>
      <trkpt lat="45.970940887928009" lon="9.453708529472351">
        <ele>567.83000000000004</ele>
        <time>2023-11-26T15:53:26Z</time>
      </trkpt>
      <trkpt lat="45.970937618985772" lon="9.453687909990549">
        <ele>567.65999999999997</ele>
        <time>2023-11-26T15:53:27Z</time>
      </trkpt>
      <trkpt lat="45.970933428034186" lon="9.453667709603906">
        <ele>567.66999999999996</ele>
        <time>2023-11-26T15:53:28Z</time>
      </trkpt>
      <trkpt lat="45.970926638692617" lon="9.453649772331119">
        <ele>567.60000000000002</ele>
        <time>2023-11-26T15:53:29Z</time>
      </trkpt>
      <trkpt lat="45.970871485769749" lon="9.45346905849874">
        <ele>567.41999999999996</ele>
        <time>2023-11-26T15:53:39Z</time>
      </trkpt>
      <trkpt lat="45.970858493819833" lon="9.453343749046326">
        <ele>567.95000000000005</ele>
        <time>2023-11-26T15:53:46Z</time>
      </trkpt>
      <trkpt lat="45.970835275948048" lon="9.45330779068172">
        <ele>568.51999999999998</ele>
        <time>2023-11-26T15:53:55Z</time>
      </trkpt>
      <trkpt lat="45.970773082226515" lon="9.453336289152503">
        <ele>568.30999999999995</ele>
        <time>2023-11-26T15:54:03Z</time>
      </trkpt>
      <trkpt lat="45.970705188810825" lon="9.453392783179879">
        <ele>568.42999999999995</ele>
        <time>2023-11-26T15:54:11Z</time>
      </trkpt>
      <trkpt lat="45.970669817179441" lon="9.453460089862347">
        <ele>568.50999999999999</ele>
        <time>2023-11-26T15:54:17Z</time>
      </trkpt>
      <trkpt lat="45.970660010352731" lon="9.453468807041645">
        <ele>568.63</ele>
        <time>2023-11-26T15:54:18Z</time>
      </trkpt>
      <trkpt lat="45.970650035887957" lon="9.453479200601578">
        <ele>568.59000000000003</ele>
        <time>2023-11-26T15:54:19Z</time>
      </trkpt>
      <trkpt lat="45.970641234889627" lon="9.453491689637303">
        <ele>568.59000000000003</ele>
        <time>2023-11-26T15:54:20Z</time>
      </trkpt>
      <trkpt lat="45.970631428062916" lon="9.453504178673029">
        <ele>568.72000000000003</ele>
        <time>2023-11-26T15:54:21Z</time>
      </trkpt>
      <trkpt lat="45.970622291788459" lon="9.453516080975533">
        <ele>568.55999999999995</ele>
        <time>2023-11-26T15:54:22Z</time>
      </trkpt>
      <trkpt lat="45.970614831894636" lon="9.453527899459004">
        <ele>568.66999999999996</ele>
        <time>2023-11-26T15:54:23Z</time>
      </trkpt>
    </trkseg>
  </trk>

</gpx>